[[{"header":{"parameterUnit":"m.s-1","parameterCategory":1,"la1":30.6,"la2":29.2853,"lo1":-89.7004,"lo2":-87.6739,"dy":0.0162,"dx":0.0183,"nx":112,"ny":82,"refTime":"2026-04-19T12:00:00:Z","depth":0,"parameterNumber":2,"parameterNumberName":"U-component_of_WINDS"},"data":[0.0,0.0,0.0,0.0,0.0,0.0,0.0,0.0,0.0,0.0,0.0,0.0,0.0,0.0,0.0,0.0,0.0,0.0,0.0,0.0,0.0,0.0,0.0,0.0,0.0,0.0,0.0,0.0,0.0,0.0,0.0,0.0,0.0,0.0,0.0,0.0,0.0,0.0,0.0,0.0,0.0,0.0,0.0,0.0,0.0,0.0,0.0,0.0,0.0,0.0,0.0,0.0,0.0,0.0,0.0,0.0,0.0,0.0,0.0,0.0,0.0,0.0,0.0,0.0,0.0,0.0,0.0,0.0,0.0,0.0,0.0,0.0,0.0,0.0,0.0,0.0,0.0,0.0,0.0,0.0,0.0,0.0,0.0,0.0,0.0,0.0,0.0,0.0,0.0,0.0,0.0,5.2941,5.774,6.0639,6.075,5.9061,5.5611,5.0031,0.0,0.0,0.0,0.0,0.0,0.0,0.0,0.0,0.0,0.0,0.0,0.0,0.0,0.0,0.0,0.0,0.0,0.0,0.0,0.0,0.0,0.0,0.0,0.0,0.0,0.0,0.0,0.0,0.0,0.0,0.0,0.0,0.0,0.0,0.0,0.0,0.0,0.0,0.0,0.0,0.0,0.0,0.0,0.0,0.0,0.0,0.0,0.0,0.0,0.0,0.0,0.0,0.0,0.0,0.0,0.0,0.0,0.0,0.0,0.0,0.0,0.0,0.0,0.0,0.0,0.0,0.0,0.0,0.0,0.0,0.0,0.0,0.0,0.0,0.0,0.0,0.0,0.0,0.0,0.0,0.0,0.0,0.0,0.0,0.0,0.0,0.0,0.0,0.0,0.0,0.0,0.0,0.0,0.0,0.0,0.0,0.0,0.0,0.0,0.0,0.0,0.0,0.0,0.0,4.9067,5.9059,6.0908,6.1704,6.2389,5.9722,5.5868,5.0912,0.0,0.0,0.0,0.0,0.0,0.0,0.0,0.0,0.0,0.0,0.0,0.0,0.0,0.0,0.0,0.0,0.0,0.0,0.0,0.0,0.0,0.0,0.0,0.0,0.0,0.0,0.0,0.0,0.0,0.0,0.0,0.0,0.0,0.0,0.0,0.0,0.0,0.0,0.0,0.0,0.0,0.0,0.0,0.0,0.0,0.0,0.0,0.0,0.0,0.0,0.0,0.0,0.0,0.0,0.0,0.0,0.0,0.0,0.0,0.0,0.0,0.0,0.0,0.0,0.0,0.0,0.0,0.0,0.0,0.0,0.0,0.0,0.0,0.0,0.0,0.0,0.0,0.0,0.0,0.0,0.0,0.0,0.0,0.0,0.0,0.0,0.0,0.0,0.0,0.0,0.0,0.0,0.0,0.0,0.0,0.0,0.0,0.0,0.0,0.0,0.0,0.0,0.0,4.8641,5.3271,6.1386,6.2658,6.2915,6.2793,6.026,5.6602,5.1756,4.7195,0.0,0.0,0.0,0.0,0.0,0.0,0.0,0.0,0.0,0.0,0.0,0.0,0.0,0.0,0.0,0.0,0.0,0.0,0.0,0.0,0.0,0.0,0.0,0.0,0.0,0.0,0.0,0.0,0.0,0.0,0.0,0.0,0.0,0.0,0.0,0.0,0.0,0.0,0.0,0.0,0.0,0.0,0.0,0.0,0.0,0.0,0.0,0.0,0.0,0.0,0.0,0.0,0.0,0.0,0.0,0.0,0.0,0.0,0.0,0.0,0.0,0.0,0.0,0.0,0.0,0.0,0.0,0.0,0.0,0.0,0.0,0.0,0.0,0.0,0.0,0.0,0.0,0.0,0.0,0.0,0.0,0.0,0.0,0.0,0.0,0.0,0.0,0.0,0.0,0.0,0.0,0.0,0.0,0.0,0.0,0.0,0.0,0.0,0.0,0.0,0.0,0.0,5.4173,5.7542,6.2817,6.3606,6.3677,6.3404,6.0481,5.6811,5.2564,4.7168,0.0,0.0,0.0,0.0,0.0,0.0,0.0,0.0,0.0,0.0,0.0,0.0,0.0,0.0,0.0,0.0,0.0,0.0,0.0,0.0,0.0,0.0,0.0,0.0,0.0,0.0,0.0,0.0,0.0,0.0,0.0,0.0,0.0,0.0,0.0,0.0,0.0,0.0,0.0,0.0,0.0,0.0,0.0,0.0,0.0,0.0,0.0,0.0,0.0,0.0,0.0,0.0,0.0,0.0,0.0,0.0,0.0,0.0,0.0,0.0,0.0,0.0,0.0,0.0,0.0,0.0,0.0,0.0,0.0,0.0,0.0,0.0,0.0,0.0,0.0,0.0,0.0,0.0,0.0,0.0,0.0,0.0,0.0,0.0,0.0,0.0,0.0,0.0,0.0,0.0,0.0,0.0,0.0,0.0,0.0,0.0,0.0,0.0,0.0,0.0,0.0,0.0,5.5014,6.0379,6.4673,6.3712,6.3429,6.4979,6.0114,5.5856,5.3287,4.6425,0.0,0.0,0.0,0.0,0.0,0.0,0.0,0.0,0.0,0.0,0.0,0.0,0.0,0.0,0.0,0.0,0.0,0.0,0.0,0.0,0.0,0.0,0.0,0.0,0.0,0.0,0.0,0.0,0.0,0.0,0.0,0.0,0.0,0.0,0.0,0.0,0.0,0.0,0.0,0.0,0.0,0.0,0.0,0.0,0.0,0.0,0.0,0.0,0.0,0.0,0.0,0.0,0.0,0.0,0.0,0.0,0.0,0.0,0.0,0.0,0.0,0.0,0.0,0.0,0.0,0.0,0.0,0.0,0.0,0.0,0.0,0.0,0.0,0.0,0.0,0.0,0.0,0.0,0.0,0.0,0.0,0.0,0.0,0.0,0.0,0.0,0.0,0.0,0.0,0.0,0.0,0.0,0.0,0.0,0.0,0.0,0.0,0.0,0.0,0.0,0.0,0.0,5.4542,5.9343,0.0,6.3791,6.3459,6.3678,6.0346,5.6384,5.1912,0.0,0.0,0.0,0.0,0.0,0.0,0.0,0.0,0.0,0.0,0.0,0.0,0.0,0.0,0.0,0.0,0.0,0.0,0.0,0.0,0.0,0.0,0.0,0.0,0.0,0.0,0.0,0.0,0.0,0.0,0.0,0.0,0.0,0.0,0.0,0.0,0.0,0.0,0.0,0.0,0.0,0.0,0.0,0.0,0.0,0.0,0.0,0.0,0.0,0.0,0.0,0.0,0.0,0.0,0.0,0.0,0.0,0.0,0.0,0.0,0.0,0.0,0.0,0.0,0.0,0.0,0.0,0.0,0.0,0.0,0.0,0.0,0.0,0.0,0.0,0.0,0.0,0.0,0.0,0.0,0.0,0.0,0.0,0.0,0.0,0.0,0.0,0.0,0.0,0.0,0.0,0.0,0.0,0.0,0.0,0.0,0.0,0.0,0.0,0.0,0.0,0.0,5.0185,5.4997,5.9451,0.0,6.389,6.3645,6.3428,6.0335,5.6305,5.1371,0.0,0.0,0.0,0.0,0.0,0.0,0.0,0.0,0.0,0.0,0.0,0.0,0.0,0.0,0.0,0.0,0.0,0.0,0.0,0.0,0.0,0.0,0.0,0.0,0.0,0.0,0.0,0.0,0.0,0.0,0.0,0.0,0.0,0.0,0.0,0.0,0.0,0.0,0.0,0.0,0.0,0.0,0.0,0.0,0.0,0.0,0.0,0.0,0.0,0.0,0.0,0.0,0.0,0.0,0.0,0.0,0.0,0.0,0.0,0.0,0.0,0.0,0.0,0.0,0.0,0.0,0.0,0.0,0.0,0.0,0.0,0.0,0.0,0.0,0.0,0.0,0.0,0.0,0.0,0.0,0.0,0.0,0.0,0.0,0.0,0.0,0.0,0.0,0.0,0.0,0.0,0.0,0.0,0.0,0.0,0.0,0.0,0.0,0.0,0.0,0.0,0.0,5.1311,5.6745,6.1411,6.4548,6.4131,6.3936,6.4799,5.9878,5.5341,0.0,0.0,0.0,0.0,0.0,0.0,0.0,0.0,0.0,0.0,0.0,0.0,0.0,0.0,0.0,0.0,0.0,0.0,0.0,0.0,0.0,0.0,0.0,0.0,0.0,0.0,0.0,0.0,0.0,0.0,0.0,0.0,0.0,0.0,0.0,0.0,0.0,0.0,0.0,0.0,0.0,0.0,0.0,0.0,0.0,0.0,0.0,0.0,0.0,0.0,0.0,0.0,0.0,0.0,0.0,0.0,0.0,0.0,0.0,0.0,0.0,0.0,0.0,0.0,0.0,0.0,0.0,0.0,0.0,0.0,0.0,0.0,0.0,0.0,0.0,0.0,0.0,0.0,0.0,0.0,0.0,0.0,0.0,0.0,0.0,0.0,0.0,0.0,0.0,0.0,0.0,0.0,0.0,0.0,0.0,0.0,0.0,0.0,0.0,0.0,0.0,0.0,0.0,0.0,5.7926,6.2489,6.4504,6.4464,6.3981,6.3193,6.0174,5.5829,4.9951,0.0,0.0,0.0,0.0,0.0,0.0,0.0,0.0,0.0,0.0,0.0,0.0,0.0,0.0,0.0,0.0,0.0,0.0,0.0,0.0,0.0,0.0,0.0,0.0,0.0,0.0,0.0,0.0,0.0,0.0,0.0,0.0,0.0,0.0,0.0,0.0,0.0,0.0,0.0,0.0,0.0,0.0,0.0,0.0,0.0,0.0,0.0,0.0,0.0,0.0,0.0,0.0,0.0,0.0,0.0,0.0,0.0,0.0,0.0,0.0,0.0,0.0,0.0,0.0,0.0,0.0,0.0,0.0,0.0,0.0,0.0,0.0,0.0,0.0,0.0,0.0,0.0,0.0,0.0,0.0,0.0,0.0,0.0,0.0,0.0,0.0,0.0,0.0,0.0,0.0,0.0,0.0,0.0,0.0,0.0,0.0,0.0,0.0,0.0,0.0,0.0,0.0,5.279,5.8636,6.3102,6.485,6.5019,6.4681,6.3788,6.1366,5.7184,5.0793,0.0,0.0,0.0,0.0,0.0,0.0,0.0,0.0,0.0,0.0,0.0,0.0,0.0,0.0,0.0,0.0,0.0,0.0,0.0,0.0,0.0,0.0,0.0,0.0,0.0,0.0,0.0,0.0,0.0,0.0,0.0,0.0,0.0,0.0,0.0,0.0,0.0,0.0,0.0,0.0,0.0,0.0,0.0,0.0,0.0,0.0,0.0,0.0,0.0,0.0,0.0,0.0,0.0,0.0,0.0,0.0,0.0,0.0,0.0,0.0,0.0,0.0,0.0,0.0,0.0,0.0,0.0,0.0,0.0,0.0,0.0,0.0,0.0,0.0,0.0,0.0,0.0,0.0,0.0,0.0,0.0,0.0,0.0,0.0,0.0,0.0,0.0,0.0,0.0,0.0,0.0,0.0,0.0,0.0,0.0,0.0,0.0,0.0,0.0,0.0,0.0,0.0,5.3491,5.9092,6.3421,6.5562,6.5818,6.5764,6.5717,6.3057,5.9052,5.3563,0.0,0.0,0.0,0.0,0.0,0.0,0.0,0.0,0.0,0.0,0.0,0.0,0.0,0.0,0.0,0.0,0.0,0.0,0.0,0.0,0.0,0.0,0.0,0.0,0.0,0.0,0.0,0.0,0.0,0.0,0.0,0.0,0.0,0.0,0.0,0.0,0.0,0.0,0.0,0.0,0.0,0.0,0.0,0.0,0.0,0.0,0.0,0.0,0.0,0.0,0.0,0.0,0.0,0.0,0.0,0.0,0.0,0.0,0.0,0.0,3.7988,0.0,0.0,0.0,0.0,0.0,0.0,0.0,0.0,0.0,0.0,0.0,0.0,0.0,0.0,0.0,0.0,0.0,0.0,0.0,0.0,0.0,0.0,0.0,0.0,0.0,0.0,0.0,0.0,0.0,0.0,0.0,0.0,0.0,0.0,0.0,0.0,0.0,0.0,0.0,0.0,0.0,5.371,6.0032,6.4748,6.6393,6.6576,6.6339,6.5751,6.3551,5.9874,5.4526,0.0,0.0,0.0,0.0,0.0,0.0,0.0,0.0,0.0,0.0,0.0,0.0,0.0,0.0,0.0,0.0,0.0,0.0,0.0,0.0,0.0,0.0,0.0,0.0,0.0,0.0,0.0,0.0,0.0,0.0,0.0,0.0,0.0,0.0,0.0,0.0,0.0,0.0,0.0,0.0,0.0,0.0,0.0,0.0,0.0,0.0,0.0,0.0,0.0,0.0,0.0,0.0,0.0,0.0,0.0,0.0,0.0,0.0,0.0,0.0,0.0,4.0878,0.0,0.0,0.0,0.0,0.0,0.0,0.0,0.0,0.0,0.0,0.0,0.0,0.0,0.0,0.0,0.0,0.0,0.0,0.0,0.0,0.0,0.0,0.0,0.0,0.0,0.0,0.0,0.0,0.0,0.0,0.0,0.0,0.0,0.0,0.0,0.0,0.0,0.0,0.0,0.0,5.4306,6.056,6.5155,6.6622,6.6791,6.6622,6.6271,6.4208,6.1132,5.6919,5.2076,0.0,0.0,0.0,0.0,0.0,0.0,0.0,0.0,0.0,0.0,0.0,0.0,0.0,0.0,0.0,0.0,0.0,0.0,0.0,0.0,0.0,0.0,0.0,0.0,0.0,0.0,0.0,0.0,0.0,0.0,0.0,0.0,0.0,0.0,0.0,0.0,0.0,0.0,0.0,0.0,0.0,0.0,0.0,0.0,0.0,0.0,0.0,0.0,0.0,0.0,0.0,0.0,0.0,0.0,0.0,5.3687,5.4363,5.5074,5.5446,4.9914,4.768,4.7699,0.0,0.0,0.0,0.0,0.0,0.0,0.0,0.0,0.0,0.0,0.0,0.0,0.0,0.0,0.0,0.0,0.0,0.0,0.0,0.0,0.0,0.0,0.0,0.0,0.0,5.2507,5.163,0.0,0.0,0.0,0.0,0.0,0.0,0.0,0.0,0.0,0.0,0.0,0.0,5.5128,6.0996,6.5324,6.6677,6.6791,6.6791,6.6791,6.4999,6.2657,5.976,5.5454,5.1108,0.0,0.0,0.0,0.0,0.0,0.0,0.0,0.0,0.0,0.0,0.0,0.0,0.0,0.0,0.0,0.0,0.0,0.0,0.0,0.0,0.0,0.0,0.0,0.0,0.0,0.0,0.0,0.0,0.0,0.0,0.0,0.0,3.4063,3.3724,0.0,0.0,0.0,0.0,0.0,0.0,0.0,0.0,0.0,0.0,0.0,0.0,0.0,0.0,5.1116,5.3822,5.5378,5.5818,5.7814,5.8896,5.9066,5.9167,5.9674,6.0385,5.9471,0.0,5.2469,5.0626,0.0,0.0,0.0,0.0,0.0,0.0,0.0,0.0,0.0,0.0,0.0,0.0,0.0,0.0,0.0,0.0,0.0,0.0,0.0,0.0,0.0,0.0,5.5184,5.4309,5.4754,5.4873,0.0,4.9991,4.676,4.4284,0.0,0.0,0.0,0.0,0.0,0.0,0.0,0.0,5.6148,6.1864,6.5865,6.669,6.6791,6.6791,6.6791,6.5933,6.4393,6.2039,5.9402,5.6474,5.3222,4.8826,0.0,0.0,0.0,0.0,0.0,0.0,0.0,0.0,0.0,0.0,0.0,0.0,0.0,0.0,0.0,0.0,0.0,0.0,0.0,0.0,0.0,0.0,0.0,0.0,0.0,0.0,0.0,0.0,0.0,3.3902,3.7078,3.6419,3.7285,3.7215,0.0,0.0,0.0,0.0,0.0,0.0,0.0,0.0,0.0,5.1708,5.3145,5.4769,5.6664,5.8863,6.0351,6.1197,6.2238,6.294,6.3351,6.2991,6.2986,6.3336,6.3336,6.1981,5.9598,5.6327,5.3721,5.1555,0.0,0.0,0.0,0.0,0.0,0.0,5.2418,0.0,0.0,0.0,0.0,0.0,0.0,0.0,0.0,0.0,0.0,0.0,0.0,0.0,0.0,5.821,5.893,5.9268,5.8524,5.6558,5.3719,0.0,4.8731,4.7299,4.3283,0.0,0.0,0.0,0.0,0.0,5.8228,6.2787,6.5967,6.6724,6.6791,6.6791,6.6791,6.573,6.447,6.3056,6.129,5.9118,5.6438,5.3466,5.0105,0.0,0.0,0.0,0.0,0.0,0.0,0.0,0.0,0.0,0.0,0.0,0.0,0.0,0.0,0.0,0.0,0.0,0.0,0.0,0.0,0.0,0.0,0.0,0.0,0.0,0.0,0.0,0.0,3.7311,4.0229,3.9002,4.0776,4.1195,0.0,0.0,0.0,0.0,0.0,0.0,5.0357,5.1715,5.3738,5.6568,5.7734,5.9199,6.1037,6.2357,6.3578,6.4679,6.494,6.5362,6.5861,6.5381,6.5158,6.5126,6.4991,6.5077,6.5044,6.0805,5.8313,5.6916,5.4837,5.3551,0.0,5.4414,5.4905,5.5378,5.8506,5.9453,5.8979,5.7171,0.0,5.3856,4.9796,0.0,0.0,0.0,0.0,5.2791,5.6713,0.0,5.981,6.1704,6.255,6.2821,6.2245,6.1535,5.95,0.0,5.4271,5.3225,4.7991,0.0,0.0,0.0,0.0,5.7569,6.0596,6.3903,6.6203,6.6724,6.6791,6.6724,6.6542,6.5527,6.458,6.3815,6.2645,6.1168,5.947,5.7503,5.4579,0.0,0.0,0.0,0.0,0.0,0.0,0.0,0.0,0.0,0.0,0.0,0.0,0.0,0.0,0.0,0.0,0.0,0.0,0.0,0.0,0.0,0.0,0.0,0.0,0.0,0.0,0.0,0.0,0.0,0.0,4.1813,4.5679,0.0,0.0,0.0,0.0,4.9427,5.235,5.4197,5.4569,5.7223,5.8937,5.9298,6.1319,6.2804,6.3588,6.4397,6.4806,6.4902,6.5546,6.5854,6.5911,6.5867,6.5842,6.581,6.519,6.5683,6.6644,6.355,6.1767,6.0858,5.9284,5.822,5.7645,5.8457,5.8709,5.8945,6.0622,6.0689,6.025,6.1588,6.0032,5.7494,5.6528,5.4753,0.0,0.0,5.6396,5.8038,6.0442,6.213,6.3409,6.4241,6.4478,6.4478,6.4444,6.3849,6.2178,0.0,5.7004,0.0,5.4112,0.0,0.0,5.575,0.0,6.0565,6.3015,6.5337,6.6757,6.6791,6.6791,6.6542,6.5818,6.5683,6.5324,6.458,6.3886,6.3467,6.3388,6.0518,5.8121,5.6396,5.0865,0.0,0.0,0.0,0.0,0.0,0.0,0.0,0.0,0.0,0.0,0.0,0.0,0.0,0.0,0.0,0.0,0.0,0.0,0.0,0.0,0.0,0.0,0.0,0.0,0.0,0.0,0.0,0.0,4.5677,4.9271,0.0,0.0,5.1119,5.2736,5.3141,5.589,5.7874,5.8548,6.038,6.2113,6.3559,6.4356,6.509,6.5791,6.6537,6.6882,6.6888,6.6725,6.6671,6.6644,6.571,6.532,6.532,6.5075,6.6045,6.7702,6.6619,6.594,6.5493,6.4952,6.4275,6.3734,6.4478,6.4749,6.4884,6.5967,6.6136,6.573,6.4837,6.284,6.0675,5.9911,5.9167,5.8727,5.9742,6.0385,6.1216,6.2956,6.3802,6.4275,6.4546,6.4613,6.4613,6.4613,6.441,6.3802,6.2482,6.1231,5.972,5.7549,5.8108,5.8605,5.8048,6.0387,6.2872,6.4688,6.6034,6.6791,6.6791,6.6791,6.6508,6.5784,6.5717,6.5189,6.3951,6.4195,6.374,6.2282,6.1717,5.9971,5.6877,5.3803,4.9077,0.0,0.0,0.0,0.0,0.0,0.0,0.0,0.0,0.0,0.0,0.0,0.0,0.0,0.0,0.0,0.0,0.0,0.0,0.0,0.0,0.0,0.0,0.0,0.0,0.0,0.0,4.8753,4.8651,5.2408,5.4506,5.3142,5.5424,5.7107,5.7509,5.9513,6.106,6.1733,6.2858,6.4009,6.5214,6.55,6.591,6.6597,6.7062,6.7433,6.7655,6.7498,6.7404,6.7375,6.6191,6.5652,6.5622,6.5203,6.6092,6.7862,6.8367,6.8755,6.9021,6.8769,6.8233,6.7658,6.8132,6.8301,6.8368,6.891,6.891,6.8436,6.6914,6.5425,6.414,6.3666,6.3531,6.3632,6.4106,6.4241,6.4478,6.5459,6.5899,6.6136,6.6136,6.6136,6.6136,6.6136,6.6136,6.6136,6.6136,6.4522,6.27,6.1042,6.17,6.2167,6.1247,6.2911,6.4783,6.6237,6.6643,6.6893,6.7129,6.6927,6.6508,6.5784,6.5222,6.4647,6.3917,6.3224,6.2545,6.1848,6.1368,5.9901,5.728,5.4567,5.0508,4.5121,0.0,0.0,0.0,0.0,0.0,0.0,0.0,0.0,0.0,0.0,0.0,0.0,0.0,0.0,0.0,0.0,0.0,0.0,0.0,0.0,0.0,0.0,0.0,4.3274,4.8914,5.2562,5.0651,5.5245,5.7958,5.6278,5.831,6.0557,6.2602,6.3447,6.3906,6.4007,6.4672,6.4743,6.4096,6.4725,6.5413,6.6101,6.6101,6.643,6.7059,6.7718,6.8047,6.8017,6.7389,6.7059,6.6999,6.5712,6.5909,6.7336,6.8762,7.0164,7.1276,7.0577,6.9857,6.9248,6.9248,6.9248,6.9248,6.9248,6.8707,6.803,6.7996,6.7996,6.7963,6.7929,6.7929,6.7929,6.7929,6.7929,6.7929,6.7929,6.8504,6.9113,6.9113,6.9113,6.9113,6.9113,6.9113,6.9113,6.9113,6.6745,6.4715,6.4681,6.4681,6.4918,6.5615,6.5784,0.0,6.7726,6.732,6.7151,6.7861,6.732,6.6576,6.5818,6.441,6.3849,6.4478,6.1076,6.0086,6.2384,5.9622,5.8053,5.8113,5.3353,5.0038,4.8378,0.0,0.0,0.0,0.0,0.0,0.0,0.0,0.0,0.0,0.0,0.0,0.0,0.0,0.0,0.0,0.0,0.0,0.0,0.0,0.0,0.0,0.0,4.9099,4.8842,5.2287,5.4967,5.518,5.8642,6.1051,6.1062,6.2928,6.4013,6.3662,6.4738,6.5012,6.404,6.5102,6.586,6.6191,6.6819,6.7478,6.8166,6.8166,6.8286,6.8435,6.8645,6.8704,6.8704,6.8525,6.8435,6.8435,6.8076,6.8729,7.01,7.0509,7.1515,7.2826,7.266,7.2485,7.2315,7.2315,7.2315,7.2315,7.2315,7.1785,7.1075,7.0534,6.9992,6.9451,6.8944,6.8774,6.8774,6.8774,6.8774,6.8774,6.8774,6.8944,6.9113,6.9113,6.9113,6.9113,6.9113,6.9113,6.9113,6.9113,6.8436,6.7523,6.6406,6.6643,6.6711,6.5852,0.0,0.0,6.7929,6.8233,6.8538,6.8741,6.8605,6.7929,6.6609,6.6136,0.0,0.0,6.1535,6.0465,6.0015,5.9236,5.857,5.8117,5.4441,5.1757,0.0,0.0,0.0,0.0,0.0,0.0,0.0,0.0,0.0,0.0,0.0,0.0,0.0,0.0,0.0,0.0,0.0,0.0,0.0,0.0,0.0,0.0,5.0308,5.3093,5.4545,5.5807,5.69,5.7832,6.0368,6.2313,6.2985,6.4282,6.4885,6.445,6.5401,6.5787,6.5293,6.6251,6.7148,6.7807,6.8227,6.8734,6.9393,6.9423,6.9542,6.9812,6.9812,6.9812,6.9782,6.9542,6.9423,0.0,6.9123,6.9477,7.0343,7.0947,7.1714,0.0,0.0,0.0,0.0,0.0,7.35,7.35,7.35,7.3206,7.28,7.236,7.1921,7.1503,7.1075,7.0939,7.0939,7.0939,7.0939,7.0939,7.0939,7.0939,7.0939,7.0939,7.0939,7.0872,7.0534,7.0737,7.077,7.0161,0.0,0.0,6.8504,6.8335,6.8098,6.7252,6.8233,6.9045,0.0,6.9011,6.9214,6.9519,6.9282,6.8605,6.7387,6.6406,0.0,0.0,0.0,5.9655,5.8094,0.0,0.0,0.0,0.0,0.0,0.0,0.0,0.0,0.0,5.0802,5.0435,0.0,0.0,0.0,0.0,0.0,0.0,0.0,0.0,0.0,0.0,0.0,0.0,0.0,0.0,0.0,0.0,5.4536,5.6831,5.9548,5.9221,5.8863,5.9488,6.1134,6.248,6.3257,6.3917,6.4575,6.5174,6.5922,6.661,0.0,0.0,0.0,0.0,0.0,6.9602,7.0233,7.026,7.059,7.1128,7.1128,7.1128,7.1128,7.056,7.0293,7.0203,6.9572,6.9273,6.934,7.0618,7.1223,7.1422,7.2859,7.3534,7.374,7.374,7.3867,0.0,0.0,0.0,0.0,7.3804,7.3771,7.3737,7.3567,7.35,7.35,7.35,7.35,7.35,7.35,7.35,7.35,7.35,7.35,7.3331,7.2665,7.3037,7.3105,7.1819,7.209,7.209,7.0826,6.9891,6.9282,6.9113,6.9248,0.0,7.015,6.9688,6.9586,7.0229,0.0,0.0,6.8233,6.6203,6.4884,6.4715,6.1298,5.8563,5.7015,5.6393,5.6715,5.8,5.8108,5.9207,6.1371,6.1456,6.1679,6.1851,5.5244,5.4021,0.0,0.0,0.0,0.0,0.0,0.0,0.0,0.0,0.0,0.0,0.0,0.0,0.0,0.0,0.0,5.3525,5.6048,5.8343,6.0536,6.1573,6.2181,6.2329,6.2689,6.3348,6.4516,6.5712,6.646,6.661,6.7747,6.8465,6.8615,6.9243,0.0,6.972,7.0769,7.1398,7.1517,7.2056,7.2415,7.2535,0.0,0.0,7.2535,7.2385,7.2026,7.155,7.1398,7.1038,7.0562,7.0854,7.1346,7.202,7.2949,7.4122,7.5279,7.5279,7.6057,7.7154,7.7154,7.7154,7.6918,7.5676,7.527,7.5033,7.3872,7.35,0.0,7.35,7.35,7.35,7.35,7.35,7.35,7.35,7.35,7.3466,7.3331,7.3398,7.3432,7.3105,7.3172,7.3195,7.2925,7.1751,7.0466,6.9282,7.0128,7.0703,7.0263,7.0601,7.0917,7.1052,7.0951,7.0567,6.9823,6.8233,6.6745,6.5561,6.2584,6.0171,5.8608,5.9,5.9107,5.8793,5.9426,6.0054,6.061,6.12,6.2549,6.4517,6.1765,6.0554,0.0,0.0,0.0,0.0,0.0,0.0,0.0,0.0,0.0,0.0,0.0,4.6477,4.8634,0.0,5.3476,5.659,5.7949,5.9428,6.1762,6.2689,6.3108,6.3108,6.3947,6.4934,6.5922,6.6909,6.7627,6.7986,6.8914,6.9482,6.9482,7.041,7.0919,7.0889,7.1876,7.2385,7.2385,7.2744,7.2924,7.2924,7.2924,7.2924,7.2924,7.2924,7.2744,7.2385,7.2385,7.2206,7.1906,7.1906,7.2124,7.2534,7.2953,7.4169,7.5714,7.5714,7.6689,7.8,7.8,7.8,7.7874,7.7096,7.6826,7.669,7.6004,7.5473,7.5202,7.5202,7.4897,7.4593,7.4593,7.4593,7.4593,7.4593,7.4593,7.4492,7.4119,7.4322,7.4356,7.3635,7.3781,7.3706,7.2572,7.2394,7.2157,7.1413,7.1921,7.2124,7.1379,7.1616,7.1718,7.1323,7.1289,7.1007,7.0263,6.8774,6.7252,6.5764,6.3971,6.2448,6.1313,6.1264,6.1264,6.1245,6.1669,6.2269,6.3151,6.3521,6.4614,6.6277,6.5836,6.5229,0.0,0.0,0.0,0.0,0.0,0.0,0.0,0.0,4.3467,4.6289,4.8091,5.0176,5.3396,5.4659,5.6274,5.9517,5.9955,6.0655,6.2958,6.3527,6.3647,6.3647,6.5054,6.6311,6.7119,6.7808,6.8496,6.9123,6.9901,7.0382,7.0382,7.1457,7.2086,7.2086,7.2744,7.3103,7.3103,7.3223,7.3283,7.3283,7.3283,7.3283,7.3283,7.3283,7.3223,7.3103,7.2984,7.2924,7.2924,7.2924,7.2924,7.2924,7.2924,7.4005,7.5641,7.5968,7.698,7.8236,7.8544,7.8576,7.8382,7.8247,7.8213,7.8179,7.8044,7.757,7.7096,7.7096,7.6657,7.6149,7.6149,7.6149,7.6149,7.6149,7.6149,7.598,7.5405,7.5743,7.5777,7.4617,7.4728,7.4368,7.2324,7.2814,7.343,7.3104,7.3337,7.3297,7.2699,7.2597,7.2394,7.1785,7.1751,7.1379,7.0466,6.9147,6.7692,6.6203,6.5561,6.4918,6.4153,6.3565,6.3531,6.412,6.412,6.4877,6.6346,6.6346,6.6885,6.7992,6.8576,6.8408,3.5985,3.5897,3.6893,4.0393,4.1635,4.3881,0.0,0.0,5.1527,5.4412,5.4889,5.5271,5.6903,5.7476,5.8421,6.0609,6.1907,6.2958,6.3767,6.4934,6.5682,6.5682,6.5892,6.649,6.7778,6.8495,6.9153,6.9844,7.1011,7.17,7.17,7.2385,7.2804,7.2804,7.3432,7.3791,7.3791,7.436,7.4693,7.4693,7.4693,7.4693,7.4693,7.4693,7.433,7.3762,7.3163,7.2924,7.2924,7.2924,7.2924,7.2924,7.2924,7.3872,7.5432,7.6915,7.8039,7.902,8.0441,8.0479,7.9837,7.9194,7.8991,7.8855,7.8179,7.7967,7.7899,7.7899,7.7807,7.7764,7.7764,7.7764,7.7764,7.7764,7.7764,7.773,7.7638,7.7696,7.7671,7.7527,7.7029,7.6142,7.4581,7.3917,7.3101,7.1763,7.2682,7.3466,7.3398,7.3398,7.3364,7.3263,7.324,7.2699,7.1312,7.0432,6.9282,6.776,6.759,6.7218,6.6453,6.6352,6.6373,6.6419,6.6419,6.6937,6.7938,6.7938,6.8768,7.0325,7.0396,6.9654,4.0816,4.102,4.1745,0.0,4.661,4.8546,5.2225,5.2878,5.3262,5.5265,5.6414,5.74,5.8339,5.9242,6.0386,0.0,6.272,6.3587,6.4964,6.5323,6.5562,6.5951,6.6011,6.667,6.8405,6.8824,6.9423,7.044,7.1368,7.1876,7.1876,7.2894,7.3492,7.3492,7.4121,7.448,7.448,7.4783,7.4903,7.4903,7.4903,7.4903,7.4903,7.4903,7.4753,7.4484,7.418,7.4061,7.4061,7.4061,7.4061,7.4061,7.4061,7.4439,7.5221,7.7046,7.8496,7.9793,8.1372,8.1731,8.1359,8.0615,8.0378,8.0242,7.9498,7.8991,7.8653,7.8653,7.8314,7.8,7.8,7.8,7.8,7.8,7.8,7.8,7.8,7.8,7.8,7.8,7.7053,7.5728,7.4258,7.4457,7.4301,7.2804,7.312,7.369,7.4093,7.4153,7.3984,7.3567,7.35,7.3263,7.2631,7.1887,7.1007,6.9958,6.9485,6.891,6.8166,6.8132,6.8132,6.8132,6.8132,6.8345,6.8719,6.8719,6.9083,6.9788,7.0664,7.0712,4.3269,4.4436,0.0,4.8476,5.072,5.2576,5.3593,5.4192,5.488,5.6047,5.7393,5.859,5.9249,6.0326,6.1553,6.2898,6.3407,6.4186,6.5772,6.5562,6.5443,6.5951,6.5862,6.646,6.8256,6.8794,6.9602,7.1068,7.1787,7.2235,7.2415,7.3552,7.418,7.418,7.4663,7.4903,7.4903,7.4903,7.4903,7.4903,7.4903,7.4903,7.4903,7.4903,7.4903,7.4903,7.4903,7.4903,7.4903,7.4903,7.4903,7.4903,7.4903,7.4903,7.5128,7.6901,7.8466,7.9927,8.1979,8.2577,8.2306,8.1765,8.1596,8.1494,8.0987,8.0445,8.0006,8.0006,7.9634,7.916,7.8957,7.9058,7.916,7.8982,7.8914,7.8914,7.8914,7.8754,7.8486,7.8043,7.6916,7.5391,7.3473,7.3908,7.4249,7.358,7.3534,7.3972,7.5089,7.5067,7.4695,7.4153,7.3916,7.3781,7.3781,7.3138,7.2462,7.1954,7.1413,7.0894,7.0331,7.0297,7.0297,7.0297,7.0297,7.0297,7.0297,7.0297,7.0297,7.0331,7.1413,7.1921,4.1972,0.0,4.8656,5.0607,5.3114,5.5568,5.7487,5.7935,5.8145,5.886,5.9039,5.9279,5.9937,6.0625,6.1553,6.2898,6.4156,6.5174,6.5922,6.5981,6.5981,6.6011,6.5413,6.5592,0.0,6.8226,6.9782,7.1697,7.2505,7.3163,7.3791,7.448,7.4873,7.4873,7.4903,7.4903,7.4903,7.4903,7.4903,7.4903,7.4903,7.4903,7.4903,7.4903,7.4903,7.4903,7.4903,7.4903,7.4903,7.4903,7.4903,7.4903,7.4903,7.4903,7.5078,7.6704,7.7873,7.9099,8.2333,8.3016,8.2408,8.2374,8.2374,8.2374,8.234,8.234,8.2306,8.2306,8.2306,8.2103,8.1418,8.1731,8.2103,8.1359,8.1215,8.1215,8.1215,8.0648,7.9692,7.8198,7.7283,7.5842,7.2867,7.18,7.1806,7.3271,7.3492,7.4307,7.6518,7.6149,7.5676,7.5642,7.4999,7.4593,7.4593,7.3883,7.3466,7.3432,7.3432,7.3398,7.3364,7.3364,7.3364,7.3364,7.3364,7.3364,7.3364,7.3364,7.3364,7.3364,7.3432,7.3432,4.6809,0.0,5.2785,5.5184,5.7124,5.874,5.982,6.0089,6.0149,6.0386,6.0086,5.9817,6.0057,6.0655,6.1553,6.2898,6.4545,6.5922,6.658,6.7029,6.6819,6.5503,6.5922,0.0,0.0,0.0,0.0,7.1068,7.1846,7.2714,7.3821,7.4544,7.4903,7.4903,7.4903,7.4903,7.4903,7.4903,7.4903,7.4903,7.4903,7.4903,7.4903,7.4903,7.4903,7.4903,7.4903,7.4903,7.4903,7.4903,7.4903,7.4903,7.4903,7.4903,7.5078,7.67,7.8188,7.9538,8.0675,8.1557,8.2201,8.1702,8.2282,8.305,8.2543,8.2408,8.2408,8.2408,8.2408,8.234,8.2103,8.2205,8.234,8.2103,8.2035,8.2035,8.2035,8.1426,8.0467,7.8933,7.7213,7.5342,7.3315,7.2734,7.3479,7.6029,7.6439,7.6775,7.754,7.6961,7.6487,7.6487,7.5811,7.5337,7.5337,7.4661,7.4221,7.4221,7.3747,7.35,7.35,7.35,7.35,7.35,7.35,7.35,7.35,7.35,7.3747,7.4255,7.4728,7.5236,5.0787,5.3569,5.6171,5.8563,5.9997,6.0924,6.1373,6.1283,6.0956,6.0478,5.9668,5.889,5.8411,5.8501,5.9398,6.1671,6.3468,6.5263,6.7119,6.7538,6.7148,6.5892,6.6251,0.0,0.0,0.0,0.0,7.1068,7.1876,7.2834,7.418,7.4693,7.4903,7.4903,7.4903,7.4903,7.4903,7.4903,7.4903,7.4903,7.4903,7.4903,7.4903,7.4903,7.4903,7.4903,7.4903,7.4903,7.4903,7.4903,7.4903,7.4903,7.4903,7.4903,7.504,7.6066,7.7126,7.8313,8.0076,8.1708,8.2871,8.184,8.2184,8.2952,8.2483,8.2322,8.2456,8.3028,8.3219,8.3126,8.2881,8.3016,8.3092,8.2881,8.278,8.278,8.278,8.178,8.0382,7.8827,7.6869,7.4952,7.3412,7.3631,7.4768,7.7054,7.7947,7.8337,7.84,7.7739,7.7299,7.7299,7.6826,7.6521,7.6521,7.6082,7.5811,7.5811,7.5371,7.5124,7.5124,7.5124,7.5124,7.5124,7.5124,7.5124,7.5124,7.5124,7.5337,7.5845,7.6284,7.6792,5.3658,5.629,5.8773,6.0717,6.1672,6.2151,6.2151,6.1613,6.0717,5.9368,5.7962,5.6555,0.0,0.0,5.5508,5.9368,6.1283,6.3617,6.7449,6.7568,6.7148,0.0,0.0,0.0,0.0,0.0,0.0,7.1757,0.0,7.3492,7.4903,7.4963,7.4963,7.4963,7.4933,7.4903,7.4903,7.4903,7.4903,7.4903,7.4903,7.4903,7.4903,7.4903,7.4903,7.4903,7.4903,7.4903,7.4903,7.4903,7.4903,7.4903,7.4903,7.4903,7.4903,7.4903,7.4937,7.5661,8.0346,8.2942,8.3974,8.2458,8.1997,8.2054,8.2054,8.2112,8.2515,8.4062,8.4526,8.4444,8.3727,8.4099,8.4411,8.3727,8.3558,8.3531,8.3479,8.1649,7.9584,7.7963,7.6241,7.4606,7.316,7.4154,7.5496,7.6437,7.7933,7.9001,7.9128,7.8517,7.8044,7.8044,7.8034,7.8,7.8,7.8,7.8,7.8,7.8,7.8,7.8,7.8,7.8,7.8,7.8,7.8,7.8,7.8,7.8034,7.8111,7.8111,7.817,5.638,5.9069,6.1313,6.2331,6.2718,6.2868,6.2868,6.1942,6.0717,5.9368,5.6885,5.4551,0.0,0.0,0.0,5.8231,6.2211,0.0,6.7718,6.9093,0.0,6.7928,0.0,6.9333,6.8555,6.9963,0.0,0.0,7.2804,7.3702,7.5557,7.5647,7.5647,7.5647,7.5172,7.4903,7.4903,7.4903,7.4903,7.4903,7.4903,7.4903,7.4903,7.4903,7.4903,7.4903,7.4903,7.4903,7.4903,7.4903,7.4903,7.4903,7.4903,7.4903,7.4903,7.4903,7.5661,7.6865,7.8123,7.8815,7.9094,7.8659,7.9404,8.0408,8.0408,8.1271,8.2288,8.2718,8.3674,8.4546,8.4377,8.4444,8.4546,8.4343,8.4309,8.3982,8.2816,8.1627,8.0018,7.7211,7.4944,7.3362,7.296,7.4154,7.5714,7.7168,7.8714,7.9763,7.9896,7.9295,7.8822,7.8822,7.8314,7.8,7.8,7.8,7.8,7.8,7.8,7.8,7.8,7.8,7.8,7.8,7.8,7.8,7.8,7.8,7.8551,7.9634,7.9634,8.0242,5.9668,6.1792,6.3408,6.3468,6.3468,6.3019,6.1283,6.0565,5.9279,5.5872,5.3533,0.0,4.9912,5.102,0.0,0.0,0.0,0.0,6.7658,6.9662,7.05,0.0,7.05,0.0,7.032,7.1517,7.2624,0.0,7.3612,7.427,7.5377,7.5736,7.5766,7.5467,7.5113,7.4903,7.4903,7.4903,7.4903,7.4903,7.4903,7.4903,7.4903,7.4903,7.4903,7.4903,0.0,7.4903,7.4903,7.4903,7.4903,7.4903,7.4903,7.4903,7.4903,7.4903,7.5489,7.6235,7.6235,7.6235,7.6368,7.7094,7.7964,7.8722,7.8722,7.9832,8.1268,8.1997,8.3365,8.4614,8.4614,8.4614,8.4614,8.4614,8.4614,8.417,8.2543,8.1323,7.9554,7.6311,7.4647,7.3762,7.3762,7.5103,7.6588,7.7902,7.9462,8.0652,8.1111,8.0513,7.9938,7.9634,7.9194,7.8957,7.8957,7.8957,7.8957,7.8957,7.8957,7.8957,7.8957,7.9286,7.9456,7.9456,7.9769,7.9938,7.9938,7.9938,8.0344,8.1156,8.1156,8.1629,6.2838,6.4156,6.4845,6.4186,6.3947,6.2899,5.9102,5.8351,5.6855,5.1116,0.0,4.8079,4.6241,4.7219,4.9823,5.4576,0.0,6.3528,6.7688,6.9782,7.0979,7.1158,7.1757,7.2146,7.2146,7.2774,7.3402,7.3971,7.4719,7.5142,7.5053,7.5587,7.5587,7.4933,7.4903,7.4903,7.4903,7.4903,7.4903,7.4903,7.4903,7.4903,7.4903,7.4903,7.4903,7.4903,0.0,0.0,7.4903,7.4903,7.4903,7.4903,7.4903,7.4903,7.4903,7.4903,7.4903,7.4903,7.4903,7.4903,7.5112,7.6535,7.6996,7.6996,7.6996,7.8313,8.0076,8.1505,8.3166,8.4614,8.4614,8.4614,8.4614,8.4614,8.4446,8.3838,8.223,8.0436,7.8313,7.5455,7.4903,7.4903,7.4903,7.6066,7.7394,7.8574,8.0003,8.132,8.2402,8.19,8.119,8.0547,8.0479,8.0479,8.0479,8.0479,8.0479,8.0479,8.0479,8.0479,8.0479,8.1088,8.1452,8.1452,8.2069,8.2408,8.2408,8.2408,8.2475,8.2543,8.2543,8.2611,6.4306,6.4815,6.4845,6.4186,6.3617,6.2509,5.9608,5.6915,0.0,0.0,4.677,4.4895,4.3997,4.6292,4.9995,5.5174,5.9428,6.3857,6.8884,7.035,7.1308,0.0,0.0,0.0,0.0,0.0,0.0,0.0,0.0,0.0,7.5766,7.5826,7.5587,7.4933,7.4903,7.4903,7.4903,7.4903,7.4903,7.4903,7.4903,7.4903,7.4903,7.4903,7.4903,7.4903,0.0,0.0,7.4903,7.4903,7.4903,7.4903,7.4903,7.4903,7.4903,7.4903,7.4903,7.4903,7.4903,7.4903,7.4937,7.5214,7.535,7.535,7.535,7.7416,7.9864,8.0137,8.2345,8.4614,8.4614,8.4614,8.4614,8.4614,8.3558,8.2202,8.0558,7.7868,7.559,7.5006,7.4903,7.4903,7.4903,7.5112,7.6304,7.9183,7.9854,8.0844,8.3011,8.2678,8.2171,8.2035,8.2035,8.2035,8.2035,8.2035,8.2035,8.2035,8.2035,8.2035,8.2035,8.2137,8.2205,8.2205,8.234,8.2408,8.2408,8.2408,8.2712,8.3321,8.3321,8.3659,6.5233,6.5802,6.5802,6.4784,6.3797,6.179,5.6675,0.0,0.0,0.0,4.294,4.2073,4.1395,4.4287,4.7908,5.1522,5.5713,6.0356,6.5622,6.7807,6.9871,7.2595,0.0,0.0,0.0,0.0,0.0,0.0,0.0,0.0,7.5407,7.5377,7.5228,7.4933,7.4903,7.4903,7.4903,7.4903,7.4903,7.4903,7.4903,7.4903,7.4933,7.5258,7.5407,7.5437,0.0,0.0,7.5886,7.5886,7.5707,7.5437,7.5766,7.5707,7.5437,7.5766,7.5886,7.5886,7.5886,7.5886,7.5886,7.5886,7.5437,7.4903,7.4903,7.719,7.9803,7.9803,8.2112,8.4614,8.4614,8.4614,8.4392,8.3531,8.1472,7.9465,7.8659,7.6599,7.4903,7.4903,7.4903,7.4903,7.4903,7.5594,7.6963,7.9435,8.0495,8.1779,8.3806,8.3768,8.3227,8.2483,8.2408,8.2408,8.2408,8.2408,8.2408,8.2408,8.2408,8.2408,8.2408,8.278,8.2983,8.2983,8.3355,8.3531,8.3531,8.3531,8.3964,8.4674,8.4268,8.4505,6.6011,6.661,6.667,6.5323,6.3947,6.1072,5.4012,5.0936,0.0,0.0,3.9571,3.9679,3.9451,4.2192,4.5394,4.8237,5.2127,5.6765,6.2509,6.5563,6.8615,0.0,7.4061,0.0,0.0,0.0,0.0,0.0,0.0,0.0,0.0,7.4993,7.4903,7.4903,7.4903,7.4903,7.4903,7.4903,7.4993,7.5078,7.5078,7.5168,7.5318,7.5856,7.6096,7.6125,0.0,0.0,0.0,7.6779,7.6509,7.6155,7.6599,7.6509,7.6155,7.6629,7.6779,7.6779,7.6779,7.6779,7.6779,7.6779,7.6125,7.5361,7.5557,7.7667,8.0055,8.026,8.2501,8.4817,8.4647,8.4715,8.4318,8.2206,7.9465,7.7193,7.6865,7.5796,7.4903,7.4903,7.4903,7.4903,7.4903,7.5933,7.7451,7.9496,8.0885,8.2401,8.4366,8.4614,8.414,8.3016,8.2855,8.2855,8.2855,8.2855,8.2855,8.2855,8.2855,8.2855,8.2855,8.3592,8.3896,8.3727,8.4444,8.485,8.485,8.485,8.5283,8.5993,8.5418,8.5452,6.655,6.6939,6.667,6.5323,6.3558,6.0595,5.4516,0.0,4.6001,4.0528,3.8464,3.8015,3.9182,4.0696,4.3569,4.9142,5.1917,5.5863,6.2929,6.6221,6.9155,7.2505,0.0,0.0,0.0,0.0,0.0,0.0,0.0,0.0,0.0,7.5228,7.4903,7.4903,7.4903,7.4903,7.4903,7.4903,7.5198,7.5826,7.5826,7.6096,7.6629,7.6689,7.6719,7.6719,0.0,0.0,0.0,7.6779,7.6749,7.6719,7.6779,7.6749,7.6719,7.6779,7.6779,7.6779,7.6779,7.6779,7.6779,7.6779,7.6719,7.6794,7.7703,7.9224,8.0816,8.1727,8.3782,8.552,8.4783,8.5148,8.4738,8.0928,7.8628,7.6898,7.5422,7.5006,7.4903,7.4903,7.4903,7.4903,7.4903,7.504,7.6166,7.9312,7.9923,8.1118,8.4197,8.4614,8.4546,8.4411,8.4411,8.4411,8.4411,8.4411,8.4411,8.4411,8.4411,8.4411,8.4411,8.5148,8.5249,8.4512,8.5283,8.5716,8.5716,8.5716,8.6061,8.6805,8.671,8.6738,6.5712,6.67,6.6759,6.5862,6.3228,5.9428,5.3862,0.0,4.4227,3.9738,3.8063,3.7704,3.8631,3.9888,4.1953,4.5472,4.7048,5.0092,5.6585,5.9757,6.3408,6.8704,7.1218,0.0,0.0,0.0,0.0,0.0,0.0,0.0,0.0,7.5437,7.4903,7.4903,7.4903,7.4903,7.4903,7.5288,7.5647,7.5916,7.6275,7.6569,7.6808,7.7233,7.7412,0.0,0.0,0.0,0.0,7.8011,7.7771,7.7442,7.7861,7.7771,7.7472,7.7861,7.8011,7.8011,7.8011,7.8011,7.8011,7.8011,7.8011,7.8126,7.877,8.0107,8.1744,8.3139,8.4929,8.6399,8.6095,8.4426,8.2189,7.9543,7.7368,7.5695,7.504,7.4903,7.4903,7.4903,7.4903,7.4903,7.4903,7.4903,7.603,7.9312,7.9803,8.0974,8.417,8.4614,8.4614,8.4614,8.5046,8.5148,8.4647,8.5459,8.579,8.5351,8.5317,8.552,8.5966,8.5858,8.5858,8.5966,8.6298,8.6467,8.6467,8.6467,8.6839,8.755,8.711,8.7144,6.4485,6.5892,6.6311,6.5832,6.257,5.8171,5.3084,4.7967,4.318,3.9218,3.7853,3.7614,3.829,3.932,4.0756,4.2711,4.4087,4.686,5.242,5.5628,5.9488,6.5144,0.0,0.0,0.0,0.0,0.0,0.0,0.0,0.0,0.0,7.5497,7.4903,7.4903,7.5113,7.5198,7.5198,7.5856,7.6185,7.6185,7.6779,7.7078,7.7108,7.7801,7.81,0.0,0.0,0.0,0.0,7.8789,7.8519,7.813,7.8609,7.8519,7.816,7.8609,7.8789,7.8789,7.8789,7.8789,7.8789,7.8789,7.8789,7.9045,8.0368,8.1409,8.2607,8.4551,8.5625,8.6209,8.6382,8.3462,8.0111,7.8916,7.6976,7.5437,7.5437,7.5437,7.5437,7.5437,7.5437,7.5437,7.5437,7.5437,7.6608,7.9917,8.022,8.1334,8.481,8.5087,8.4952,8.4952,8.5858,8.596,8.4715,8.5594,8.6095,8.5817,8.5817,8.6129,8.6873,8.6602,8.6569,8.6879,8.711,8.7245,8.7245,8.7245,8.7617,8.8294,8.7786,8.782,6.2959,6.4515,6.5024,6.5024,6.1525,5.6918,5.2252,4.7616,4.318,3.9218,3.7853,3.7614,3.829,3.896,4.0068,4.2081,4.4586,4.7886,5.257,5.6017,5.9368,0.0,0.0,0.0,0.0,0.0,0.0,0.0,0.0,0.0,0.0,0.0,7.4903,7.4903,7.5527,7.5886,7.5886,7.6479,7.6779,7.6779,7.7502,7.7801,7.7831,7.8489,0.0,0.0,0.0,0.0,0.0,7.8789,7.8789,7.8789,7.8789,7.8789,7.8789,7.8789,7.8789,7.8789,7.8789,7.8789,7.8789,7.8789,7.8789,7.9445,8.2891,8.3419,8.3373,8.6085,8.5625,8.4474,8.5228,8.2395,7.93,7.93,7.7977,7.6779,7.6779,7.6779,7.6779,7.6779,7.6779,7.6779,7.6779,7.6779,7.7943,8.1348,8.1212,8.218,8.6353,8.623,8.5784,8.5784,8.7076,8.7076,8.4783,8.4614,8.4979,8.5723,8.5817,8.6129,8.6873,8.7583,8.7651,8.6913,8.7617,8.7989,8.7989,8.7989,8.8361,8.91,8.91,8.91,5.7154,5.9129,6.0059,5.9189,5.6855,5.3773,5.0062,4.63,4.2741,3.972,3.8542,3.8272,3.8943,3.9242,4.0647,4.4466,4.5762,4.7766,5.1917,5.5748,0.0,6.2718,6.8437,0.0,0.0,0.0,0.0,0.0,0.0,0.0,0.0,0.0,7.4903,7.4903,7.5078,7.5437,7.5916,7.6479,7.7018,7.7502,7.816,7.8489,7.8489,0.0,0.0,0.0,0.0,0.0,0.0,7.8789,7.8789,7.8789,7.8789,7.8789,7.8789,7.8789,7.8789,7.8789,7.8789,7.8789,7.8789,7.8789,7.8789,7.9445,8.2956,8.3835,8.4023,8.6069,8.624,8.5344,8.3194,8.1379,7.9745,7.8569,7.75,7.6779,7.6779,7.6779,7.6779,7.6779,7.6779,7.6779,7.6779,7.6779,7.7973,8.138,8.1691,8.2794,8.6454,8.6704,8.6569,8.6569,8.6974,8.6771,8.552,8.6805,8.755,8.7313,8.7279,8.7617,8.8361,8.8125,8.8125,8.8395,8.8632,8.8734,8.8734,8.8734,8.8869,8.91,8.91,8.91,5.2875,5.5329,5.6555,5.6282,5.4127,5.1349,4.8566,4.5334,4.2263,3.99,3.908,3.8901,3.9331,3.9601,4.0797,4.3958,4.5284,4.7198,5.0907,0.0,0.0,6.2929,0.0,0.0,0.0,0.0,0.0,0.0,0.0,0.0,0.0,0.0,7.4903,7.4903,7.5172,7.5467,7.5916,7.6479,7.6988,7.7442,7.81,7.843,7.843,0.0,0.0,0.0,0.0,0.0,0.0,7.8789,7.8789,7.8789,7.8789,7.8789,7.8789,7.8789,7.8789,7.8789,7.8789,7.8789,7.8789,7.8789,7.9261,8.0195,8.2358,8.3931,8.5165,8.6209,8.5566,8.4091,8.1956,8.059,7.952,7.8446,7.7861,7.7562,7.7562,7.7562,7.7562,7.7562,7.7562,7.7562,7.7562,7.7562,7.8733,8.2175,8.2427,8.3571,8.7262,8.7482,8.7313,8.7313,8.755,8.7414,8.667,8.7617,8.8192,8.8023,8.7989,8.8328,8.9066,8.8632,8.8632,8.91,8.91,8.91,8.91,8.91,8.91,8.91,8.91,8.91,0.0,5.2426,5.3773,5.4935,5.2456,4.9232,4.7287,4.4517,0.0,3.978,3.9391,3.9421,3.9511,4.0008,4.0726,4.1733,4.3988,4.68,0.0,5.3598,0.0,0.0,0.0,0.0,0.0,0.0,0.0,0.0,0.0,0.0,0.0,0.0,0.0,7.4903,7.5497,7.5856,7.5916,7.6485,7.6749,7.6808,7.7407,7.7771,7.7831,0.0,0.0,0.0,0.0,0.0,0.0,7.8789,7.8789,7.8789,7.8789,7.8789,7.8789,7.8789,7.8789,7.8789,7.8789,7.8789,7.8789,7.8789,7.998,8.1377,8.1377,8.3706,8.63,8.6179,8.3867,8.1377,8.1241,8.0015,7.8789,7.8789,7.8789,7.8789,7.8789,7.8789,7.8789,7.8789,7.8789,7.8789,7.8789,7.8789,7.9985,8.3478,8.3355,8.4384,8.857,8.8497,8.8091,8.8091,8.8666,8.8801,8.8125,8.7448,8.7347,8.8023,8.8091,8.8395,8.9066,8.91,8.91,8.91,8.91,8.9134,8.9201,8.9201,8.9201,8.9269,8.9269,8.9269,4.2282,0.0,4.6471,4.5804,4.5274,4.4566,0.0,4.2182,4.1224,3.972,3.9391,3.972,4.0726,4.0636,4.1773,4.5992,4.8027,5.0039,5.2851,0.0,0.0,0.0,0.0,0.0,0.0,0.0,0.0,0.0,0.0,0.0,0.0,0.0,0.0,7.4903,7.5018,7.5377,7.5886,7.6066,7.6365,7.6779,7.6958,7.7287,0.0,0.0,0.0,0.0,0.0,0.0,0.0,7.8789,7.8789,7.8789,7.8789,7.8789,7.8789,7.8789,7.8789,7.8789,7.8789,7.8789,7.8789,7.8789,7.998,8.1377,8.1377,8.289,8.4314,8.2989,8.2023,8.11,7.9734,7.9118,7.8789,7.8789,7.8789,7.8789,7.8789,7.8789,7.8789,7.8789,7.8789,7.8789,7.8789,7.8789,7.9985,8.3478,8.3835,8.5032,8.8638,8.8965,8.8835,8.8835,8.8998,8.9032,8.8863,8.8666,8.8632,8.8829,8.8835,8.8931,8.91,8.91,8.91,8.91,8.91,8.9376,8.9951,8.9951,9.0222,9.0763,9.0763,9.0763,3.902,4.1654,4.3868,4.3768,4.3748,4.3519,4.2521,4.1594,4.0636,3.9601,3.9391,3.972,4.0756,4.1164,4.2541,4.6292,4.8536,0.0,0.0,0.0,6.8345,0.0,0.0,0.0,0.0,0.0,0.0,0.0,0.0,0.0,0.0,0.0,0.0,0.0,7.4903,7.5048,7.5437,7.5437,7.5766,7.6395,7.6395,7.6724,0.0,0.0,0.0,0.0,0.0,0.0,7.837,7.8669,7.8789,7.8789,7.8789,7.8789,7.8789,7.8789,7.8789,7.8789,7.8789,7.8789,7.8789,7.8789,7.9445,8.0195,8.0195,8.0894,8.1584,8.1446,8.0825,8.0015,7.9046,7.8789,7.8789,7.8789,7.8789,7.8789,7.8789,7.8789,7.8789,7.8789,7.8789,7.8789,7.8789,7.8789,7.9985,8.3478,8.4283,8.5745,8.9148,8.9884,9.0087,9.0087,9.0087,9.0087,9.0087,9.0087,8.9816,8.9168,8.91,8.91,8.91,8.91,8.9269,8.9579,8.9579,8.9951,9.0696,9.0696,9.0899,9.1305,9.1305,9.1305,3.829,4.0924,4.3469,4.4317,4.4287,4.3838,4.321,4.1773,4.0397,3.981,3.969,3.996,4.0846,4.2092,0.0,0.0,0.0,0.0,6.1852,6.655,7.032,0.0,0.0,0.0,0.0,0.0,0.0,0.0,0.0,0.0,0.0,0.0,0.0,0.0,7.4903,7.4903,7.4903,7.4903,7.5168,7.5736,7.5736,7.6066,7.6659,0.0,0.0,0.0,0.0,0.0,7.7711,7.837,7.8639,7.8639,7.8759,7.8789,7.8789,7.8789,7.8789,7.8789,7.8789,7.8789,7.8789,7.8789,7.8789,7.8789,7.8789,7.8789,7.9118,8.0613,7.9945,7.8789,7.8789,7.8878,7.8938,7.8938,7.9028,7.9088,7.9088,7.9088,7.9088,7.9088,7.9088,7.9088,7.9088,7.9088,8.032,8.3796,8.4827,8.646,8.9923,9.0899,9.1305,9.1305,9.1305,9.1305,9.1305,9.1305,9.0763,8.9512,8.9438,8.9404,8.9241,8.9404,8.9681,9.0188,9.0324,9.0729,9.1474,9.1474,9.1541,9.1643,9.1643,9.1643,3.929,4.1313,4.2351,4.1384,4.1942,4.2511,4.1852,4.1463,4.1224,4.1104,4.1104,4.1643,4.3389,4.4805,4.6689,0.0,0.0,0.0,0.0,0.0,0.0,0.0,0.0,0.0,0.0,0.0,0.0,0.0,0.0,0.0,0.0,0.0,0.0,0.0,0.0,7.4903,7.4903,7.4903,7.4963,7.5018,7.5018,7.5377,7.6036,7.6036,0.0,0.0,0.0,0.0,7.6988,7.7682,7.7951,7.8011,7.8579,7.8789,7.8789,7.8789,7.8789,7.8789,7.8789,7.8789,7.8789,7.8789,7.8789,7.8789,7.8789,7.8789,7.8861,7.9118,7.9011,7.8789,7.8789,7.9238,7.9656,7.9656,8.0075,8.0494,8.0494,8.0494,8.0494,8.0494,8.0494,8.0494,8.0494,8.0494,8.1683,8.5259,8.5851,8.7207,9.0664,9.1237,9.1305,9.1305,9.1305,9.1305,9.1305,9.1305,9.1203,9.0966,9.0966,9.0662,9.0053,9.0628,9.0729,9.0222,9.0797,9.1508,9.2223,9.2223,9.259,9.3262,9.3262,9.3262,3.8182,4.0008,4.1523,4.2312,4.3778,4.4855,4.4197,4.3479,4.297,4.297,4.2671,4.301,4.5014,0.0,5.0069,0.0,0.0,0.0,0.0,0.0,0.0,0.0,0.0,0.0,0.0,0.0,0.0,0.0,0.0,0.0,0.0,0.0,0.0,0.0,0.0,0.0,7.4903,7.4903,7.4903,7.4903,7.4903,7.5048,7.5347,7.5347,7.5497,0.0,0.0,7.6479,7.6838,7.7532,7.8011,7.837,7.8669,7.8789,7.8789,7.8789,7.8789,7.8789,7.8789,7.8789,7.8789,7.8789,7.8789,7.8789,7.8789,7.8789,7.8878,7.9238,7.9088,7.8878,7.9238,7.9567,7.9896,8.0255,8.0584,8.0794,8.0794,8.0794,8.0794,8.0794,8.0794,8.0794,8.0794,8.0794,8.1987,8.5577,8.646,8.7954,9.1438,9.2286,9.2522,9.2522,9.2522,9.2522,9.2522,9.2522,9.2184,9.1338,9.1305,9.1135,9.0797,9.1102,9.1338,9.1377,9.1744,9.2286,9.3064,9.3064,9.3233,9.3601,9.3601,9.3601,3.7913,3.9469,4.1235,4.3688,4.5463,4.6711,4.7138,4.6181,0.0,0.0,0.0,0.0,0.0,5.0099,0.0,0.0,0.0,0.0,0.0,0.0,0.0,0.0,0.0,0.0,0.0,0.0,0.0,0.0,0.0,0.0,0.0,0.0,0.0,0.0,0.0,0.0,7.4903,7.4903,7.4903,7.4903,7.4903,7.4903,7.4903,7.4903,7.4903,7.4933,7.5437,7.6036,7.6629,7.7143,7.7741,7.834,7.8489,7.8639,7.8789,7.8789,7.8789,7.8789,7.8789,7.8789,7.8789,7.8789,7.8789,7.8789,7.8789,7.8789,7.8938,7.9627,7.9447,7.9178,7.9866,8.0165,8.0405,8.0913,8.1153,8.1272,8.1272,8.1272,8.1272,8.1272,8.1272,8.1272,8.1272,8.1272,8.2329,8.5513,8.6801,8.8571,9.1673,9.2963,9.3601,9.3601,9.3601,9.3601,9.3601,9.3601,9.3098,9.1913,9.1846,9.1744,9.1575,9.1744,9.2015,9.2392,9.259,9.2996,9.3601,9.3601,9.3601,9.3601,9.3601,9.3601,4.0415,4.1224,4.1822,4.3808,4.4416,4.5463,4.9089,4.8933,0.0,5.0308,0.0,0.0,0.0,5.5029,5.9608,0.0,0.0,0.0,0.0,0.0,0.0,0.0,0.0,0.0,0.0,0.0,0.0,0.0,0.0,0.0,0.0,0.0,0.0,0.0,0.0,0.0,7.4903,7.4903,7.4903,7.4903,7.4903,7.4903,7.4903,7.4903,7.4903,7.4903,7.4963,7.5347,7.5976,7.6036,7.6425,7.6988,7.7652,7.825,7.8789,7.8789,7.8789,7.8789,7.8789,7.8789,7.8789,7.8789,7.8789,7.8789,7.8789,7.8789,7.8938,7.9627,7.9776,7.9896,8.0554,8.1183,8.1699,8.1729,8.2208,8.2657,8.2657,8.2657,8.2657,8.2657,8.2657,8.2657,8.2657,8.2657,8.331,8.524,8.7035,8.8824,9.0733,9.2541,9.3601,9.3601,9.3601,9.3601,9.3601,9.3601,9.3567,9.3465,9.3402,9.3098,9.2358,9.303,9.3098,9.2392,9.3131,9.3567,9.3601,9.3601,9.3601,9.3601,9.3601,9.3601,3.9158,4.0745,4.2481,4.4436,4.645,0.0,0.0,5.1738,5.2636,5.5004,5.5359,0.0,0.0,0.0,0.0,0.0,0.0,0.0,0.0,0.0,0.0,0.0,0.0,0.0,0.0,0.0,0.0,0.0,0.0,0.0,0.0,0.0,0.0,0.0,0.0,0.0,0.0,7.4903,7.4903,7.4903,7.4903,7.4903,7.4903,7.4903,7.4903,7.4903,7.4903,7.5258,7.5916,7.5916,7.6514,7.7502,7.816,7.8579,7.8789,7.8789,7.8789,7.8789,7.8789,7.8789,7.8789,7.8789,7.8789,7.8789,7.8789,7.9088,7.9567,8.0225,8.0734,8.1093,8.1332,8.1601,8.1908,8.2327,8.2627,8.2806,8.2806,8.2806,8.2806,8.2806,8.2806,8.2806,8.2806,8.2806,8.3772,8.6746,8.7781,8.9251,9.2206,9.3182,9.3601,9.3601,9.3601,9.3601,9.3601,9.3601,9.3601,9.3601,9.3601,9.3436,9.3165,9.3436,9.3436,9.3165,9.3436,9.3601,9.3601,9.3601,9.3601,9.3601,9.3601,9.3601,3.902,4.0685,4.286,4.4796,0.0,0.0,5.3473,5.494,5.6496,5.9159,5.8979,0.0,0.0,0.0,0.0,0.0,0.0,0.0,0.0,0.0,0.0,0.0,0.0,0.0,0.0,0.0,0.0,0.0,0.0,0.0,0.0,0.0,0.0,0.0,0.0,0.0,0.0,7.4903,7.4903,7.4903,7.4903,7.4903,7.4903,7.4903,7.4903,7.4903,7.4903,7.5258,7.5886,7.5677,7.6335,7.7562,7.822,7.8609,7.8789,7.8789,7.8789,7.8789,7.8789,7.8789,7.8789,7.8789,7.8789,7.8789,7.8789,7.9267,7.9956,8.0614,8.1272,8.1878,8.2088,8.2118,8.2238,8.2687,8.2806,8.2806,8.2806,8.2806,8.2806,8.2806,8.2806,8.2806,8.2806,8.2806,8.381,8.6888,8.7849,8.9284,9.2359,9.3241,9.3601,9.3601,9.3601,9.3601,9.3601,9.3601,9.3601,9.3601,9.3876,9.3909,9.3634,9.3601,9.3601,9.3601,9.3601,9.3706,9.3943,9.3943,9.4045,9.4282,9.4282,9.4146,4.0756,4.1373,4.289,4.4825,0.0,0.0,5.6948,5.8653,5.9907,6.2599,0.0,0.0,0.0,0.0,0.0,0.0,0.0,0.0,0.0,0.0,0.0,0.0,0.0,0.0,0.0,0.0,0.0,0.0,0.0,0.0,0.0,0.0,0.0,0.0,0.0,0.0,0.0,7.4903,7.4903,7.4903,7.4903,7.4903,7.4903,7.4903,7.4903,7.4903,7.4903,7.5258,7.5856,7.5168,7.5677,7.6868,7.7562,7.822,7.8789,7.8789,7.8789,7.8789,7.8789,7.8789,7.8789,7.8789,7.8789,7.8789,7.8789,7.9297,7.9956,8.0614,8.1272,8.1968,8.2627,8.2806,8.2806,8.2806,8.2806,8.2806,8.2806,8.2806,8.2806,8.2806,8.2806,8.2806,8.2806,8.2806,8.3423,8.5251,8.7026,8.8855,9.0705,9.2514,9.3601,9.3601,9.3601,9.3601,9.3601,9.3601,9.3601,9.3601,9.4485,9.4586,9.3668,9.3634,9.3634,9.3634,9.3601,9.3943,9.4721,9.4721,9.5093,9.5804,9.5804,9.5398,3.9349,4.1294,4.4197,4.6202,5.1265,0.0,0.0,6.1433,0.0,0.0,0.0,0.0,0.0,0.0,0.0,0.0,0.0,0.0,0.0,0.0,0.0,0.0,0.0,0.0,0.0,0.0,0.0,0.0,0.0,0.0,0.0,0.0,0.0,0.0,0.0,0.0,0.0,0.0,7.4903,7.4903,7.4903,7.4903,7.4903,7.4903,7.4903,7.4903,7.4903,7.5023,7.5228,7.5946,7.6754,7.7592,7.825,7.8609,7.8789,7.8789,7.8789,7.8789,7.8789,7.8789,7.8789,7.8789,7.8789,7.8878,7.9357,7.9986,8.0644,8.1302,8.1998,8.2567,8.2747,8.2806,8.2806,8.2806,8.2806,8.2806,8.2806,8.2806,8.2806,8.2806,8.2806,8.2806,8.2806,8.2806,8.3847,8.6923,8.713,8.8355,9.2298,9.3271,9.3601,9.3601,9.3601,9.3601,9.3601,9.3601,9.3601,9.3601,9.3842,9.418,9.4586,9.4451,9.4383,9.4383,9.3842,9.3943,9.4721,9.4721,9.5093,9.5804,9.5804,9.5669,4.1534,4.3868,4.695,4.9733,5.4286,5.9192,6.3468,0.0,0.0,0.0,0.0,0.0,0.0,0.0,0.0,0.0,0.0,0.0,0.0,0.0,0.0,0.0,0.0,0.0,0.0,0.0,0.0,0.0,0.0,0.0,0.0,0.0,0.0,0.0,0.0,0.0,0.0,0.0,0.0,7.4903,7.4903,7.4903,7.4903,7.4903,7.4903,7.4903,7.4903,7.4903,7.4993,7.6036,7.6808,7.7502,7.813,7.8549,7.8789,7.8789,7.8789,7.8789,7.8789,7.8789,7.8789,7.8789,7.8789,7.8878,7.9297,8.0075,8.0883,8.1272,8.2088,8.2806,8.2806,8.2806,8.2806,8.2806,8.2806,8.2806,8.2806,8.2806,8.2806,8.2806,8.2806,8.2806,8.2806,8.2806,8.3847,8.6992,8.8489,9.0289,9.3241,9.3601,9.3601,9.3601,9.3601,9.3601,9.3601,9.3601,9.3601,9.3601,9.3601,9.4383,9.6112,9.5533,9.506,9.4793,9.4383,9.462,9.5567,9.5567,9.5939,9.6683,9.6683,9.6514,4.5433,4.7578,5.0265,5.4366,5.7214,6.0595,6.67,6.9245,7.0592,7.1667,0.0,0.0,0.0,0.0,0.0,0.0,0.0,0.0,0.0,0.0,0.0,0.0,0.0,0.0,0.0,0.0,0.0,0.0,0.0,0.0,0.0,0.0,0.0,0.0,0.0,0.0,0.0,0.0,0.0,0.0,7.4993,7.4993,7.4993,7.4933,7.4903,7.4903,7.4903,7.4933,7.5053,7.5647,7.6305,7.6928,7.7562,7.822,7.8789,7.8789,7.8789,7.8789,7.8789,7.8789,7.8789,7.8789,7.8789,7.8819,7.8938,7.9836,8.0823,8.0943,8.1878,8.2806,8.2806,8.2806,8.2806,8.2806,8.2806,8.2806,8.2806,8.2806,8.2806,8.2806,8.2806,8.2806,8.2806,8.2806,8.3543,8.5757,9.0385,9.3601,9.3601,9.3601,9.3601,9.3601,9.3601,9.3601,9.3601,9.3601,9.3601,9.3601,9.3871,9.5195,9.7901,9.6717,9.577,9.5266,9.5165,9.5702,9.6883,9.6883,9.7258,9.8003,9.8003,9.7631,4.299,4.6214,5.0474,5.5448,6.1313,6.637,6.8345,7.059,7.2206,7.1936,0.0,0.0,0.0,0.0,0.0,0.0,0.0,0.0,0.0,0.0,0.0,0.0,0.0,0.0,0.0,0.0,0.0,0.0,0.0,0.0,0.0,0.0,0.0,0.0,0.0,0.0,7.4903,7.5407,7.5677,0.0,7.5677,7.5677,7.5677,7.5138,7.4903,7.4903,7.4903,7.5198,7.5707,7.5856,7.6574,7.7622,7.7741,7.822,7.8789,7.8789,7.8789,7.8789,7.8789,7.8789,7.8789,7.8789,7.8789,7.8998,8.0045,8.0584,8.1003,8.2088,8.2567,8.2806,8.2806,8.2806,8.2806,8.2806,8.2806,8.2806,8.2806,8.2806,8.2806,8.2806,8.2806,8.2806,8.2806,8.2806,8.2965,8.3505,8.9284,9.3601,9.3601,9.3601,9.3601,9.3601,9.3601,9.3601,9.3601,9.3601,9.3601,9.3601,9.577,9.736,9.7969,9.7698,9.7461,9.736,9.6582,9.6311,9.6582,9.6815,9.7258,9.8003,9.8003,9.7935,4.4427,4.8379,5.3114,5.9338,6.4455,6.8197,6.8854,7.0769,7.2415,7.2385,0.0,0.0,0.0,0.0,0.0,0.0,0.0,0.0,0.0,0.0,0.0,0.0,0.0,0.0,0.0,0.0,0.0,0.0,0.0,0.0,0.0,0.0,0.0,0.0,0.0,0.0,7.4903,7.5228,7.5407,7.5407,7.5407,7.5407,7.5407,7.5083,7.4903,7.4903,7.4903,7.5113,7.5407,7.5407,7.6006,7.6933,7.7233,7.7741,7.837,7.8669,7.8789,7.8789,7.8789,7.8789,7.8789,7.8789,7.8789,7.8908,7.9627,8.0285,8.0943,8.1631,8.2297,8.2806,8.2806,8.2806,8.2806,8.2806,8.2806,8.2806,8.2806,8.2806,8.2806,8.2806,8.2806,8.2806,8.2806,8.2806,8.2806,8.2806,8.8954,9.3601,9.3601,9.3601,9.3601,9.3601,9.3601,9.3601,9.3601,9.489,9.5702,9.5702,9.7157,9.8003,9.8003,9.8003,9.8003,9.8003,9.7495,9.7225,9.7225,9.736,9.7631,9.8003,9.8003,9.8003,4.5813,5.081,5.6346,6.311,6.652,6.8347,6.8884,7.05,7.2056,7.2624,0.0,0.0,0.0,0.0,0.0,0.0,0.0,0.0,0.0,0.0,0.0,0.0,0.0,0.0,0.0,0.0,0.0,0.0,0.0,0.0,0.0,0.0,0.0,0.0,0.0,7.4903,7.4903,7.5023,7.5048,7.5048,7.5048,7.5023,7.4903,7.4903,7.4903,7.4903,7.4903,7.4903,7.4903,7.4903,7.5288,7.5976,7.6539,7.7197,7.7891,7.8549,7.8789,7.8789,7.8789,7.8789,7.8789,7.8789,7.8789,7.8819,7.8938,7.9836,8.0823,8.0943,8.1878,8.2806,8.2806,8.2806,8.2806,8.2806,8.2806,8.2806,8.2806,8.2806,8.2806,8.2806,8.2806,8.2806,8.2806,8.2806,8.3199,8.4484,8.974,9.3601,9.3601,9.3601,9.3601,9.3601,9.4074,9.4349,9.4349,9.6616,9.8003,9.8003,9.8003,9.8003,9.8003,9.8003,9.8003,9.8003,9.8003,9.8003,9.8003,9.8003,9.8003,9.8003,9.8003,9.8003,4.1673,4.9344,5.7902,6.2899,6.652,6.8884,6.8974,0.0,7.1939,0.0,0.0,0.0,0.0,0.0,0.0,0.0,0.0,0.0,0.0,0.0,0.0,0.0,0.0,0.0,0.0,0.0,0.0,0.0,0.0,0.0,0.0,0.0,7.4903,7.4903,7.4903,0.0,7.4903,7.5467,7.5766,7.5766,7.5766,7.5467,7.4903,7.4903,7.4903,7.4903,7.4903,7.4903,7.4903,7.4903,7.5288,7.5976,7.6539,7.7197,7.7891,7.8549,7.8789,7.8789,7.8789,7.8789,7.8789,7.8789,7.8789,7.8908,7.9507,8.0195,8.0913,8.1482,8.2208,8.2806,8.2806,8.2806,8.2806,8.2806,8.2806,8.2806,8.2806,8.2806,8.2806,8.2806,8.2806,8.2806,8.2806,8.2806,8.4926,9.1209,9.2969,9.3601,9.3601,9.3601,9.3601,9.3601,9.5872,9.7428,9.7428,9.7766,9.8003,9.8003,9.8003,9.8003,9.8003,9.8003,9.8003,9.8003,9.8003,9.8003,9.8003,9.8003,9.8003,9.8003,9.8003,9.8003,4.5693,5.2157,5.8381,6.3767,6.6789,6.8556,6.8914,7.0201,7.1457,0.0,0.0,0.0,0.0,0.0,0.0,0.0,0.0,0.0,0.0,0.0,0.0,0.0,0.0,0.0,0.0,0.0,0.0,0.0,0.0,0.0,7.4903,7.4903,7.4903,7.4903,7.4903,0.0,7.4903,7.5168,7.5318,7.5318,7.5318,7.5168,7.4903,7.4903,7.4903,7.4903,7.4903,7.4903,7.4903,7.4903,7.5048,7.5437,7.639,7.6958,7.7382,7.84,7.8789,7.8789,7.8789,7.8789,7.8789,7.8789,7.8789,7.8849,7.9148,7.9986,8.0853,8.1153,8.1998,8.2806,8.2806,8.2806,8.2806,8.2806,8.2806,8.2806,8.2806,8.2806,8.2806,8.2806,8.2806,8.2806,8.2806,8.2806,8.5287,9.251,9.3601,9.3601,9.3601,9.5026,9.6074,9.6074,9.7225,9.8003,9.8003,9.8003,9.8003,9.8003,9.8003,9.8003,9.8003,9.8003,9.8003,9.8003,9.8003,9.8003,9.8003,9.8003,9.8003,9.8003,9.8003,9.8003,4.7369,5.1977,5.5837,6.1972,6.5144,6.7059,6.8226,0.0,7.0859,0.0,0.0,0.0,0.0,0.0,0.0,0.0,0.0,0.0,0.0,0.0,0.0,0.0,0.0,0.0,0.0,0.0,0.0,0.0,0.0,0.0,7.4903,7.4903,7.4903,7.4903,7.4903,7.4903,7.4903,7.4903,7.4903,7.4903,7.4903,7.4903,7.4903,7.4903,7.4903,7.4903,7.4903,7.4903,7.4903,7.4903,7.4903,7.5053,7.6305,7.6779,7.6958,7.831,7.8789,7.8789,7.8789,7.8789,7.8789,7.8789,7.8789,7.8819,7.8998,7.9866,8.0823,8.1003,8.1908,8.2806,8.2806,8.2806,8.2806,8.2806,8.2806,8.2806,8.2806,8.2806,8.2806,8.2806,8.2806,8.2806,8.2806,8.2806,8.5287,9.251,9.3601,9.3871,9.462,9.665,9.8003,9.8003,9.8003,9.8003,9.8003,9.8003,9.8003,9.8003,9.8003,9.8003,9.8003,9.8003,9.8003,9.8003,9.8003,9.8003,9.8003,9.8003,9.8003,9.8003,9.8003,9.8003,4.1602,4.4825,4.8454,5.5055,6.0054,6.4006,6.652,0.0,0.0,0.0,0.0,0.0,0.0,0.0,0.0,0.0,0.0,0.0,0.0,0.0,0.0,0.0,0.0,0.0,0.0,0.0,0.0,0.0,0.0,0.0,7.4903,7.4903,7.4903,7.4903,7.4903,7.4903,7.4903,7.4903,7.4903,7.4903,7.4903,7.4903,7.4903,7.4903,7.4903,7.4903,7.4903,7.4903,7.4903,7.4903,7.4903,7.5053,7.6305,7.6779,7.6958,7.831,7.8789,7.8789,7.8789,7.8789,7.8789,7.8789,7.8789,7.8908,7.9567,8.0255,8.0943,8.1572,8.2268,8.2806,8.2806,8.2806,8.2806,8.2806,8.2806,8.2806,8.2806,8.2806,8.2806,8.2806,8.2806,8.2806,8.2806,8.2806,8.5287,9.251,9.3601,9.4586,9.7428,9.7901,9.8003,9.8003,9.8003,9.8003,9.8003,9.8003,9.8003,9.8003,9.8003,9.8003,9.8003,9.8003,9.8003,9.8003,9.8003,9.8003,9.8003,9.8003,9.8003,9.8003,9.8003,9.8003,4.1362,4.4287,4.7587,5.2959,5.745,6.1224,6.3916,6.67,6.9035,0.0,0.0,0.0,0.0,0.0,0.0,0.0,0.0,0.0,0.0,0.0,0.0,0.0,0.0,0.0,0.0,0.0,0.0,0.0,0.0,0.0,7.4903,7.4903,7.4903,7.4903,7.4903,7.4903,7.4903,7.4903,7.4903,7.4903,7.4903,7.4903,7.4903,7.4903,7.4903,7.4903,7.4903,7.4903,7.4903,7.4903,7.4903,7.5053,7.6305,7.6779,7.6958,7.831,7.8789,7.8789,7.8789,7.8789,7.8789,7.8789,7.8789,7.8908,7.9627,8.0285,8.0943,8.1601,8.2297,8.2806,8.2806,8.2806,8.2806,8.2806,8.2806,8.2806,8.2806,8.2806,8.2806,8.2806,8.2806,8.2806,8.2806,8.4183,8.5592,8.6541,9.225,9.6819,9.7867,9.8003,9.8003,9.8003,9.8003,9.8003,9.8003,9.8003,9.8003,9.8003,9.8003,9.8003,9.8003,9.8003,9.8003,9.8003,9.8003,9.8003,9.8003,9.8003,9.8003,9.8003,9.8003,9.8003,3.9757,4.2162,4.5194,5.0295,5.3533,5.6795,6.194,6.4605,6.673,0.0,0.0,0.0,0.0,0.0,0.0,0.0,0.0,0.0,0.0,0.0,0.0,0.0,0.0,0.0,0.0,0.0,0.0,0.0,0.0,0.0,7.4544,7.454,7.4693,7.4903,7.4903,7.4903,7.4903,7.4903,7.4903,7.4903,7.4903,7.4903,7.4903,7.4903,7.4903,7.4903,7.4903,7.4903,7.4903,7.4903,7.4903,7.5053,7.6305,7.6779,7.6958,7.831,7.8789,7.8789,7.8789,7.8789,7.8789,7.8789,7.8938,7.9267,7.9926,8.0614,8.1272,8.1968,8.2477,8.2806,8.2806,8.2806,8.2806,8.2806,8.2806,8.2806,8.2806,8.2806,8.2806,8.2806,8.2806,8.3076,8.3974,8.5561,8.6976,8.7775,9.281,9.6886,9.7867,9.8003,9.8003,9.8003,9.8003,9.8003,9.8003,9.8003,9.8003,9.8003,9.8003,9.8003,9.8003,9.8003,9.8003,9.8003,9.8003,9.8003,9.8003,9.8003,9.8003,9.8003,9.8003,9.8003,0.0,0.0,0.0,0.0,0.0,0.0,6.0473,0.0,6.3139,0.0,0.0,0.0,0.0,0.0,0.0,0.0,0.0,0.0,0.0,0.0,0.0,0.0,0.0,0.0,0.0,0.0,0.0,0.0,0.0,7.3163,7.3821,7.3881,7.418,7.4873,7.4903,7.4903,7.4903,7.4903,7.4903,7.4903,7.4903,7.4903,7.4903,7.4903,7.4903,7.4903,7.4903,7.4903,7.4903,7.4903,7.4903,7.5053,7.6305,7.6779,7.6958,7.831,7.8789,7.8789,7.8789,7.8789,7.8789,7.8819,7.9267,7.9956,8.0614,8.1272,8.1968,8.2627,8.2806,8.2806,8.2806,8.2806,8.2806,8.2806,8.2806,8.2806,8.2806,8.2806,8.2806,8.2806,8.2806,8.3645,8.6249,8.6728,8.9193,9.6546,9.5413,9.4755,9.7631,9.8003,9.8003,9.8003,9.8003,9.8003,9.8003,9.8003,9.8003,9.8003,9.8003,9.8003,9.8003,9.8003,9.8003,9.8003,9.8003,9.8003,9.8003,9.8003,9.8003,9.8003,9.8003,9.8003,3.6464,0.0,0.0,0.0,0.0,0.0,0.0,0.0,0.0,0.0,0.0,0.0,0.0,0.0,0.0,0.0,0.0,0.0,0.0,0.0,0.0,0.0,0.0,0.0,0.0,0.0,0.0,0.0,7.2176,7.2475,7.3163,7.3642,7.3971,7.4151,7.4663,7.4903,7.4903,7.4903,7.4903,7.4903,7.4903,7.4903,7.4903,7.4903,7.4903,7.4903,7.4903,7.4903,7.4903,7.4903,7.4903,7.5053,7.6305,7.6779,7.6958,7.831,7.8789,7.8789,7.8789,7.8789,7.8878,7.9387,7.9656,8.0045,8.1153,8.1631,8.1968,8.2627,8.2806,8.2806,8.2806,8.2806,8.2806,8.2806,8.2806,8.2806,8.2806,8.2806,8.2806,8.2806,8.2806,8.3645,8.6249,8.6728,8.7425,8.9531,9.3791,9.7089,9.7901,9.8003,9.8003,9.8003,9.8003,9.8003,9.8003,9.8003,9.8003,9.8003,9.8003,9.8003,9.8003,9.8003,9.8003,9.8003,9.8003,9.8003,9.8003,9.8003,9.8003,9.8003,9.8003,9.8003,0.0,0.0,0.0,0.0,0.0,0.0,0.0,5.1139,0.0,0.0,0.0,0.0,0.0,0.0,0.0,0.0,0.0,0.0,0.0,0.0,0.0,0.0,0.0,0.0,0.0,0.0,0.0,0.0,7.1487,7.1787,7.2445,7.3133,7.3612,7.3881,7.427,7.4634,7.4903,7.4903,7.4903,7.4903,7.4903,7.4903,7.4903,7.4903,7.4903,7.4903,7.4903,7.4903,7.4903,7.4903,7.4903,7.5053,7.6305,7.6779,7.6958,7.831,7.8789,7.8789,7.8789,7.8789,7.8908,7.9597,8.0016,8.0434,8.1452,8.2028,8.2297,8.2687,8.2806,8.2806,8.2806,8.2806,8.2806,8.2806,8.2806,8.2806,8.2806,8.3675,8.4094,8.3016,8.3675,8.4932,8.6459,8.6728,8.6728,8.6728,9.315,9.7563,9.6311,9.7258,9.8003,9.8003,9.8003,9.8003,9.8003,9.8003,9.8003,9.8003,9.8003,9.8003,9.8003,9.8003,9.8003,9.8003,9.8003,9.8003,9.8003,9.8003,9.8003,9.8003,9.8003,9.8003,3.9188,0.0,0.0,0.0,0.0,0.0,4.9905,5.0571,5.1654,0.0,0.0,0.0,0.0,0.0,0.0,0.0,0.0,0.0,0.0,0.0,0.0,0.0,0.0,0.0,0.0,0.0,7.0889,7.0889,7.0889,7.1158,7.1757,7.2415,7.3103,7.3762,7.3851,7.421,7.4903,7.4903,7.4903,7.4903,7.4903,7.4903,7.4903,7.4903,7.4903,7.4903,7.4903,7.4903,7.4903,7.4903,7.4903,7.5053,7.6305,7.6779,7.6958,7.831,7.8789,7.8789,7.8789,7.8789,7.8908,7.9597,8.0255,8.0913,8.1572,8.2268,8.2806,8.2806,8.2806,8.2806,8.2806,8.2806,8.2806,8.2806,8.2806,8.2806,8.2806,8.4872,8.601,8.3675,8.5112,8.6728,8.6728,8.6728,8.6728,8.6728,9.315,9.7056,9.4417,9.6379,9.8003,9.8003,9.8003,9.8003,9.8003,9.8003,9.8003,9.8003,9.8003,9.8003,9.8003,9.8003,9.8003,9.8003,9.8003,9.8003,9.8003,9.8003,9.8003,9.8003,9.8003,9.8003,4.1822,4.2211,4.2551,0.0,0.0,0.0,0.0,4.3818,4.6681,0.0,0.0,0.0,0.0,0.0,0.0,0.0,0.0,0.0,0.0,0.0,0.0,0.0,0.0,0.0,0.0,0.0,7.0889,7.0889,7.0889,7.0949,7.1098,7.1727,7.2385,7.3073,7.3612,7.421,7.4903,7.4903,7.4903,7.4903,7.4903,7.4903,7.4903,7.4903,7.4903,7.4903,7.4903,7.4903,7.4903,7.4903,7.4903,7.5053,7.6305,7.6779,7.6958,7.831,7.8789,7.8789,7.8789,7.8789,7.8908,7.9597,8.0255,8.0913,8.1572,8.2268,8.2806,8.2806,8.2806,8.2806,8.2806,8.2806,8.2806,8.2806,8.2806,8.2806,8.2806,8.4872,8.6549,8.604,8.6369,8.6728,8.6728,8.6728,8.6728,8.6728,9.315,9.78,9.7225,9.7631,9.8003,9.8003,9.8003,9.8003,9.8003,9.8003,9.8003,9.8003,9.8003,9.8003,9.8003,9.8003,9.8003,9.8003,9.8003,9.8003,9.8003,9.8003,9.8003,9.8003,9.8003,9.8003,4.3868,4.3858,4.4197,4.3489,0.0,0.0,0.0,0.0,4.5065,4.9344,0.0,0.0,0.0,0.0,0.0,0.0,0.0,0.0,0.0,0.0,0.0,0.0,0.0,0.0,0.0,0.0,7.0081,7.041,7.0739,7.0889,7.0889,7.1218,7.1697,7.2385,7.3043,7.3732,7.439,7.4753,7.4903,7.4903,7.4903,7.4903,7.4903,7.4903,7.4903,7.4903,7.4903,7.4903,7.4903,7.4903,7.4903,7.5053,7.6305,7.6779,7.6958,7.831,7.8789,7.8789,7.8789,7.8789,7.8908,7.9597,8.0255,8.0913,8.1572,8.2268,8.2806,8.2806,8.2806,8.2806,8.2806,8.2806,8.2806,8.2806,8.2806,8.2806,8.2806,8.3824,8.5141,8.6459,8.6728,8.6728,8.6728,8.6728,8.6728,8.6728,8.9948,9.2382,9.2382,9.2382,9.2382,9.2382,9.5736,9.8003,9.8003,9.8003,9.8003,9.8003,9.8003,9.8003,9.8003,9.8003,9.8003,9.8003,9.8003,9.8003,9.8003,9.8003,9.8003,9.8003,9.8003,9.8003,0.0,0.0,0.0,0.0,0.0,4.4726,0.0,0.0,0.0,4.8745,0.0,0.0,0.0,0.0,0.0,0.0,0.0,0.0,0.0,0.0,0.0,0.0,0.0,0.0,0.0,0.0,6.8525,6.9692,6.9782,7.0051,7.0679,7.0829,7.1218,7.1909,7.2565,7.3223,7.3881,7.454,7.4903,7.4903,7.4903,7.4903,7.4903,7.4903,7.4903,7.4903,7.4903,7.4903,7.4903,7.4903,7.4903,7.5053,7.6305,7.6779,7.6958,7.831,7.8789,7.8789,7.8789,7.8789,7.8878,7.9447,8.0165,8.0943,8.1721,8.2387,8.2806,8.2806,8.2806,8.2806,8.2806,8.2806,8.2806,8.2806,8.2806,8.2806,8.2806,8.2806,8.3585,8.6189,8.6728,8.6728,8.6728,8.6728,8.6728,8.6728,8.6728,8.6728,8.6728,8.6728,8.6728,8.6728,9.3461,9.8003,9.8003,9.8003,9.8003,9.8003,9.8003,9.8003,9.8003,9.8003,9.8003,9.8003,9.8003,9.8003,9.8003,9.8003,9.8003,9.8003,9.8003,9.8003,0.0,0.0,0.0,0.0,4.9164,0.0,0.0,0.0,0.0,4.3738,0.0,0.0,0.0,0.0,0.0,0.0,0.0,0.0,0.0,0.0,0.0,0.0,0.0,0.0,0.0,0.0,0.0,6.8884,6.6968,6.6969,6.9931,7.062,7.1218,7.1909,7.2565,7.3223,7.3881,7.454,7.4903,7.4903,7.4903,7.4903,7.4903,7.4903,7.4903,7.4903,7.4903,7.4903,7.4903,7.4903,7.4903,7.5053,7.6305,7.6779,7.6958,7.831,7.8789,7.8789,7.8789,7.8789,7.8789,7.8878,7.9776,8.1033,8.2297,8.2747,8.2806,8.2806,8.2806,8.2806,8.2806,8.2806,8.2806,8.2806,8.2806,8.2806,8.2806,8.2806,8.3585,8.6189,8.6728,8.6728,8.6728,8.6728,8.6728,8.6728,8.6728,8.6728,8.6728,8.6728,8.6728,8.6728,9.3461,9.8003,9.8003,9.8003,9.8003,9.8003,9.8003,9.8003,9.8003,9.8003,9.8003,9.8003,9.8003,9.8003,9.8003,9.8003,9.8003,9.8003,9.8003,9.8003,0.0,0.0,0.0,0.0,0.0,0.0,0.0,0.0,4.3948,0.0,0.0,0.0,0.0,0.0,0.0,0.0,0.0,0.0,0.0,0.0,0.0,0.0,0.0,0.0,0.0,0.0,0.0,0.0,0.0,6.5892,6.9243,7.0021,7.0649,7.1308,7.2355,7.3043,7.3313,7.436,7.4903,7.4903,7.4903,7.4903,7.4903,7.4903,7.4903,7.4903,7.4903,7.4903,7.4903,7.4903,7.4903,7.5053,7.6305,7.6779,7.6958,7.831,7.8789,7.8789,7.8789,7.8789,7.8908,7.9716,8.0584,8.1542,8.2507,8.2806,8.2806,8.2806,8.2806,8.2806,8.2806,8.2806,8.2806,8.2806,8.2806,8.2806,8.2806,8.2806,8.3585,8.6189,8.6728,8.6728,8.6728,8.6728,8.6728,8.6728,8.6728,8.6728,8.6728,8.6728,8.6728,8.6728,8.9568,9.1456,9.1456,9.1456,9.3323,9.7721,9.8003,9.8003,9.8003,9.8003,9.8003,9.8003,9.8003,9.8003,9.8003,9.8003,9.8003,9.8003,9.8003,9.8003,5.3569,0.0,0.0,0.0,0.0,0.0,0.0,0.0,0.0,0.0,0.0,0.0,0.0,0.0,0.0,0.0,0.0,0.0,0.0,0.0,0.0,0.0,0.0,0.0,0.0,0.0,0.0,0.0,0.0,0.0,6.8226,6.9243,6.9991,7.062,7.2116,7.2924,7.2924,7.421,7.4903,7.4903,7.4903,7.4903,7.4903,7.4903,7.4903,7.4903,7.4903,7.4903,7.4903,7.4903,7.5023,7.5258,7.636,7.6898,7.7197,7.837,7.8789,7.8789,7.8789,7.8908,7.9297,8.0644,8.1392,8.1938,8.2597,8.2806,8.2806,8.2806,8.2806,8.2806,8.2806,8.2806,8.2806,8.2806,8.2806,8.2806,8.2806,8.2806,8.3585,8.6189,8.6728,8.6728,8.6728,8.6728,8.6728,8.6728,8.6728,8.6728,8.6728,8.6728,8.6728,8.6728,8.6728,8.6728,8.6728,8.6728,8.9948,9.75,9.8003,9.8003,9.8003,9.8003,9.8003,9.8003,9.8003,9.8003,9.8003,9.8003,9.8003,9.8003,9.8003,9.8003,0.0,0.0,0.0,0.0,0.0,0.0,0.0,0.0,4.7758,0.0,0.0,0.0,0.0,0.0,0.0,0.0,0.0,0.0,0.0,0.0,0.0,0.0,0.0,0.0,0.0,0.0,0.0,0.0,0.0,0.0,6.67,6.8315,6.9333,7.0023,7.1906,7.2924,7.2924,7.421,7.4903,7.4903,7.4903,7.4903,7.4903,7.4903,7.4903,7.4903,7.4903,7.4903,7.4903,7.4903,7.5258,7.5946,7.6539,7.7197,7.7861,7.8549,7.8789,7.8789,7.8789,7.9238,8.0016,8.1332,8.1751,8.1938,8.2597,8.2806,8.2806,8.2806,8.2806,8.2806,8.2806,8.2806,8.2806,8.2806,8.2806,8.2806,8.2806,8.2806,8.3585,8.6189,8.6728,8.6728,8.6728,8.6728,8.6728,8.6728,8.6728,8.6728,8.6728,8.6728,8.6728,8.6728,8.6728,8.6728,8.6728,8.6728,8.9948,9.75,9.8003,9.8003,9.8003,9.8003,9.8003,9.8003,9.8003,9.8003,9.8003,9.8003,9.8003,9.8003,9.8003,9.8003,0.0,0.0,5.8168,5.3296,0.0,0.0,0.0,0.0,0.0,0.0,0.0,0.0,0.0,0.0,0.0,0.0,0.0,0.0,0.0,0.0,0.0,0.0,0.0,0.0,0.0,0.0,0.0,0.0,5.7723,0.0,0.0,6.7119,6.8676,6.9303,7.1667,7.2924,7.2924,7.421,7.4903,7.4903,7.4903,7.4903,7.4903,7.4903,7.4903,7.4903,7.4903,7.4903,7.4903,7.4903,7.5288,7.5976,7.6539,7.7197,7.7891,7.8549,7.8789,7.8849,7.9327,7.9896,8.0614,8.1512,8.2118,8.2507,8.2717,8.2806,8.2806,8.2806,8.2806,8.2806,8.2806,8.2806,8.2806,8.2806,8.2806,8.3285,8.5022,8.5381,8.565,8.6549,8.6728,8.6728,8.6728,8.6728,8.6728,8.6728,8.6728,8.6728,8.6728,8.6728,8.6728,8.6728,8.6728,8.6728,8.6728,9.1276,9.5277,9.7848,9.8003,9.8003,9.8003,9.8003,9.8003,9.8003,9.8003,9.8003,9.8003,9.8003,9.8003,9.8003,9.8003,9.8003,6.1139,6.0471,0.0,0.0,5.3436,0.0,0.0,0.0,0.0,0.0,0.0,0.0,0.0,0.0,0.0,0.0,0.0,0.0,0.0,0.0,0.0,0.0,0.0,0.0,0.0,0.0,5.1947,5.5777,5.5418,0.0,0.0,0.0,6.7718,6.8615,7.1427,7.2924,7.2924,7.421,7.4903,7.4903,7.4903,7.4903,7.4903,7.4903,7.4903,7.4903,7.4903,7.4903,7.4903,7.4903,7.5407,7.6275,7.6629,7.7382,7.822,7.8639,7.8789,7.8908,7.9836,8.0434,8.0943,8.1878,8.2447,8.2806,8.2806,8.2806,8.2806,8.2806,8.2806,8.2806,8.2806,8.2806,8.2806,8.2806,8.2806,8.3525,8.6159,8.6728,8.6728,8.6728,8.6728,8.6728,8.6728,8.6728,8.6728,8.6728,8.6728,8.6728,8.6728,8.6728,8.6728,8.6728,8.6728,8.7785,9.0507,9.5211,9.8003,9.8003,9.8003,9.8003,9.8003,9.8003,9.8003,9.8003,9.8003,9.8003,9.8003,9.8003,9.8003,9.8003,9.8003,9.8003]},{"header":{"parameterUnit":"m.s-1","parameterCategory":1,"la1":30.6,"la2":29.2853,"lo1":-89.7004,"lo2":-87.6739,"dy":0.0162,"dx":0.0183,"nx":112,"ny":82,"refTime":"2026-04-19T12:00:00:Z","depth":0,"parameterNumber":3,"parameterNumberName":"V-component_of_WINDS"},"data":[0.0,0.0,0.0,0.0,0.0,0.0,0.0,0.0,0.0,0.0,0.0,0.0,0.0,0.0,0.0,0.0,0.0,0.0,0.0,0.0,0.0,0.0,0.0,0.0,0.0,0.0,0.0,0.0,0.0,0.0,0.0,0.0,0.0,0.0,0.0,0.0,0.0,0.0,0.0,0.0,0.0,0.0,0.0,0.0,0.0,0.0,0.0,0.0,0.0,0.0,0.0,0.0,0.0,0.0,0.0,0.0,0.0,0.0,0.0,0.0,0.0,0.0,0.0,0.0,0.0,0.0,0.0,0.0,0.0,0.0,0.0,0.0,0.0,0.0,0.0,0.0,0.0,0.0,0.0,0.0,0.0,0.0,0.0,0.0,0.0,0.0,0.0,0.0,0.0,0.0,0.0,1.9236,2.1015,2.2071,2.2111,2.1496,2.0241,1.821,0.0,0.0,0.0,0.0,0.0,0.0,0.0,0.0,0.0,0.0,0.0,0.0,0.0,0.0,0.0,0.0,0.0,0.0,0.0,0.0,0.0,0.0,0.0,0.0,0.0,0.0,0.0,0.0,0.0,0.0,0.0,0.0,0.0,0.0,0.0,0.0,0.0,0.0,0.0,0.0,0.0,0.0,0.0,0.0,0.0,0.0,0.0,0.0,0.0,0.0,0.0,0.0,0.0,0.0,0.0,0.0,0.0,0.0,0.0,0.0,0.0,0.0,0.0,0.0,0.0,0.0,0.0,0.0,0.0,0.0,0.0,0.0,0.0,0.0,0.0,0.0,0.0,0.0,0.0,0.0,0.0,0.0,0.0,0.0,0.0,0.0,0.0,0.0,0.0,0.0,0.0,0.0,0.0,0.0,0.0,0.0,0.0,0.0,0.0,0.0,0.0,0.0,0.0,0.0,1.6955,2.1386,2.2131,2.2458,2.2746,2.1737,2.0334,1.8531,0.0,0.0,0.0,0.0,0.0,0.0,0.0,0.0,0.0,0.0,0.0,0.0,0.0,0.0,0.0,0.0,0.0,0.0,0.0,0.0,0.0,0.0,0.0,0.0,0.0,0.0,0.0,0.0,0.0,0.0,0.0,0.0,0.0,0.0,0.0,0.0,0.0,0.0,0.0,0.0,0.0,0.0,0.0,0.0,0.0,0.0,0.0,0.0,0.0,0.0,0.0,0.0,0.0,0.0,0.0,0.0,0.0,0.0,0.0,0.0,0.0,0.0,0.0,0.0,0.0,0.0,0.0,0.0,0.0,0.0,0.0,0.0,0.0,0.0,0.0,0.0,0.0,0.0,0.0,0.0,0.0,0.0,0.0,0.0,0.0,0.0,0.0,0.0,0.0,0.0,0.0,0.0,0.0,0.0,0.0,0.0,0.0,0.0,0.0,0.0,0.0,0.0,0.0,1.7344,1.8897,2.2305,2.2806,2.2899,2.2893,2.197,2.0601,1.8838,1.7207,0.0,0.0,0.0,0.0,0.0,0.0,0.0,0.0,0.0,0.0,0.0,0.0,0.0,0.0,0.0,0.0,0.0,0.0,0.0,0.0,0.0,0.0,0.0,0.0,0.0,0.0,0.0,0.0,0.0,0.0,0.0,0.0,0.0,0.0,0.0,0.0,0.0,0.0,0.0,0.0,0.0,0.0,0.0,0.0,0.0,0.0,0.0,0.0,0.0,0.0,0.0,0.0,0.0,0.0,0.0,0.0,0.0,0.0,0.0,0.0,0.0,0.0,0.0,0.0,0.0,0.0,0.0,0.0,0.0,0.0,0.0,0.0,0.0,0.0,0.0,0.0,0.0,0.0,0.0,0.0,0.0,0.0,0.0,0.0,0.0,0.0,0.0,0.0,0.0,0.0,0.0,0.0,0.0,0.0,0.0,0.0,0.0,0.0,0.0,0.0,0.0,0.0,2.0187,2.155,2.2941,2.3623,2.3768,2.3155,2.205,2.0712,1.9132,1.7168,0.0,0.0,0.0,0.0,0.0,0.0,0.0,0.0,0.0,0.0,0.0,0.0,0.0,0.0,0.0,0.0,0.0,0.0,0.0,0.0,0.0,0.0,0.0,0.0,0.0,0.0,0.0,0.0,0.0,0.0,0.0,0.0,0.0,0.0,0.0,0.0,0.0,0.0,0.0,0.0,0.0,0.0,0.0,0.0,0.0,0.0,0.0,0.0,0.0,0.0,0.0,0.0,0.0,0.0,0.0,0.0,0.0,0.0,0.0,0.0,0.0,0.0,0.0,0.0,0.0,0.0,0.0,0.0,0.0,0.0,0.0,0.0,0.0,0.0,0.0,0.0,0.0,0.0,0.0,0.0,0.0,0.0,0.0,0.0,0.0,0.0,0.0,0.0,0.0,0.0,0.0,0.0,0.0,0.0,0.0,0.0,0.0,0.0,0.0,0.0,0.0,0.0,2.1809,2.428,2.3779,2.5097,2.5386,2.3851,2.1917,2.0365,1.9428,1.6926,0.0,0.0,0.0,0.0,0.0,0.0,0.0,0.0,0.0,0.0,0.0,0.0,0.0,0.0,0.0,0.0,0.0,0.0,0.0,0.0,0.0,0.0,0.0,0.0,0.0,0.0,0.0,0.0,0.0,0.0,0.0,0.0,0.0,0.0,0.0,0.0,0.0,0.0,0.0,0.0,0.0,0.0,0.0,0.0,0.0,0.0,0.0,0.0,0.0,0.0,0.0,0.0,0.0,0.0,0.0,0.0,0.0,0.0,0.0,0.0,0.0,0.0,0.0,0.0,0.0,0.0,0.0,0.0,0.0,0.0,0.0,0.0,0.0,0.0,0.0,0.0,0.0,0.0,0.0,0.0,0.0,0.0,0.0,0.0,0.0,0.0,0.0,0.0,0.0,0.0,0.0,0.0,0.0,0.0,0.0,0.0,0.0,0.0,0.0,0.0,0.0,0.0,2.2662,2.5151,0.0,2.8152,2.8129,2.7235,2.5888,2.3825,2.0941,0.0,0.0,0.0,0.0,0.0,0.0,0.0,0.0,0.0,0.0,0.0,0.0,0.0,0.0,0.0,0.0,0.0,0.0,0.0,0.0,0.0,0.0,0.0,0.0,0.0,0.0,0.0,0.0,0.0,0.0,0.0,0.0,0.0,0.0,0.0,0.0,0.0,0.0,0.0,0.0,0.0,0.0,0.0,0.0,0.0,0.0,0.0,0.0,0.0,0.0,0.0,0.0,0.0,0.0,0.0,0.0,0.0,0.0,0.0,0.0,0.0,0.0,0.0,0.0,0.0,0.0,0.0,0.0,0.0,0.0,0.0,0.0,0.0,0.0,0.0,0.0,0.0,0.0,0.0,0.0,0.0,0.0,0.0,0.0,0.0,0.0,0.0,0.0,0.0,0.0,0.0,0.0,0.0,0.0,0.0,0.0,0.0,0.0,0.0,0.0,0.0,0.0,2.1334,2.3985,2.6664,0.0,3.0645,3.0613,2.9704,2.8295,2.5845,2.2037,0.0,0.0,0.0,0.0,0.0,0.0,0.0,0.0,0.0,0.0,0.0,0.0,0.0,0.0,0.0,0.0,0.0,0.0,0.0,0.0,0.0,0.0,0.0,0.0,0.0,0.0,0.0,0.0,0.0,0.0,0.0,0.0,0.0,0.0,0.0,0.0,0.0,0.0,0.0,0.0,0.0,0.0,0.0,0.0,0.0,0.0,0.0,0.0,0.0,0.0,0.0,0.0,0.0,0.0,0.0,0.0,0.0,0.0,0.0,0.0,0.0,0.0,0.0,0.0,0.0,0.0,0.0,0.0,0.0,0.0,0.0,0.0,0.0,0.0,0.0,0.0,0.0,0.0,0.0,0.0,0.0,0.0,0.0,0.0,0.0,0.0,0.0,0.0,0.0,0.0,0.0,0.0,0.0,0.0,0.0,0.0,0.0,0.0,0.0,0.0,0.0,0.0,2.178,2.601,2.9127,3.0443,3.2281,3.2665,3.0734,2.844,2.5696,0.0,0.0,0.0,0.0,0.0,0.0,0.0,0.0,0.0,0.0,0.0,0.0,0.0,0.0,0.0,0.0,0.0,0.0,0.0,0.0,0.0,0.0,0.0,0.0,0.0,0.0,0.0,0.0,0.0,0.0,0.0,0.0,0.0,0.0,0.0,0.0,0.0,0.0,0.0,0.0,0.0,0.0,0.0,0.0,0.0,0.0,0.0,0.0,0.0,0.0,0.0,0.0,0.0,0.0,0.0,0.0,0.0,0.0,0.0,0.0,0.0,0.0,0.0,0.0,0.0,0.0,0.0,0.0,0.0,0.0,0.0,0.0,0.0,0.0,0.0,0.0,0.0,0.0,0.0,0.0,0.0,0.0,0.0,0.0,0.0,0.0,0.0,0.0,0.0,0.0,0.0,0.0,0.0,0.0,0.0,0.0,0.0,0.0,0.0,0.0,0.0,0.0,0.0,0.0,2.8881,3.2573,3.5023,3.5825,3.5648,3.449,3.2927,2.9959,2.5177,0.0,0.0,0.0,0.0,0.0,0.0,0.0,0.0,0.0,0.0,0.0,0.0,0.0,0.0,0.0,0.0,0.0,0.0,0.0,0.0,0.0,0.0,0.0,0.0,0.0,0.0,0.0,0.0,0.0,0.0,0.0,0.0,0.0,0.0,0.0,0.0,0.0,0.0,0.0,0.0,0.0,0.0,0.0,0.0,0.0,0.0,0.0,0.0,0.0,0.0,0.0,0.0,0.0,0.0,0.0,0.0,0.0,0.0,0.0,0.0,0.0,0.0,0.0,0.0,0.0,0.0,0.0,0.0,0.0,0.0,0.0,0.0,0.0,0.0,0.0,0.0,0.0,0.0,0.0,0.0,0.0,0.0,0.0,0.0,0.0,0.0,0.0,0.0,0.0,0.0,0.0,0.0,0.0,0.0,0.0,0.0,0.0,0.0,0.0,0.0,0.0,0.0,2.5783,3.0159,3.4084,3.7206,3.7539,3.7344,3.6782,3.543,3.2435,2.7364,0.0,0.0,0.0,0.0,0.0,0.0,0.0,0.0,0.0,0.0,0.0,0.0,0.0,0.0,0.0,0.0,0.0,0.0,0.0,0.0,0.0,0.0,0.0,0.0,0.0,0.0,0.0,0.0,0.0,0.0,0.0,0.0,0.0,0.0,0.0,0.0,0.0,0.0,0.0,0.0,0.0,0.0,0.0,0.0,0.0,0.0,0.0,0.0,0.0,0.0,0.0,0.0,0.0,0.0,0.0,0.0,0.0,0.0,0.0,0.0,0.0,0.0,0.0,0.0,0.0,0.0,0.0,0.0,0.0,0.0,0.0,0.0,0.0,0.0,0.0,0.0,0.0,0.0,0.0,0.0,0.0,0.0,0.0,0.0,0.0,0.0,0.0,0.0,0.0,0.0,0.0,0.0,0.0,0.0,0.0,0.0,0.0,0.0,0.0,0.0,0.0,0.0,2.6306,3.0638,3.4479,3.7614,3.7952,3.7969,3.7894,3.6406,3.3495,2.8894,0.0,0.0,0.0,0.0,0.0,0.0,0.0,0.0,0.0,0.0,0.0,0.0,0.0,0.0,0.0,0.0,0.0,0.0,0.0,0.0,0.0,0.0,0.0,0.0,0.0,0.0,0.0,0.0,0.0,0.0,0.0,0.0,0.0,0.0,0.0,0.0,0.0,0.0,0.0,0.0,0.0,0.0,0.0,0.0,0.0,0.0,0.0,0.0,0.0,0.0,0.0,0.0,0.0,0.0,0.0,0.0,0.0,0.0,0.0,0.0,2.0412,0.0,0.0,0.0,0.0,0.0,0.0,0.0,0.0,0.0,0.0,0.0,0.0,0.0,0.0,0.0,0.0,0.0,0.0,0.0,0.0,0.0,0.0,0.0,0.0,0.0,0.0,0.0,0.0,0.0,0.0,0.0,0.0,0.0,0.0,0.0,0.0,0.0,0.0,0.0,0.0,0.0,2.8034,3.3105,3.6913,3.8284,3.8437,3.8301,3.7913,3.6645,3.3789,2.8916,0.0,0.0,0.0,0.0,0.0,0.0,0.0,0.0,0.0,0.0,0.0,0.0,0.0,0.0,0.0,0.0,0.0,0.0,0.0,0.0,0.0,0.0,0.0,0.0,0.0,0.0,0.0,0.0,0.0,0.0,0.0,0.0,0.0,0.0,0.0,0.0,0.0,0.0,0.0,0.0,0.0,0.0,0.0,0.0,0.0,0.0,0.0,0.0,0.0,0.0,0.0,0.0,0.0,0.0,0.0,0.0,0.0,0.0,0.0,0.0,0.0,2.3098,0.0,0.0,0.0,0.0,0.0,0.0,0.0,0.0,0.0,0.0,0.0,0.0,0.0,0.0,0.0,0.0,0.0,0.0,0.0,0.0,0.0,0.0,0.0,0.0,0.0,0.0,0.0,0.0,0.0,0.0,0.0,0.0,0.0,0.0,0.0,0.0,0.0,0.0,0.0,0.0,2.8913,3.4002,3.7617,3.8513,3.8611,3.8513,3.8262,3.707,3.4896,3.1469,2.6857,0.0,0.0,0.0,0.0,0.0,0.0,0.0,0.0,0.0,0.0,0.0,0.0,0.0,0.0,0.0,0.0,0.0,0.0,0.0,0.0,0.0,0.0,0.0,0.0,0.0,0.0,0.0,0.0,0.0,0.0,0.0,0.0,0.0,0.0,0.0,0.0,0.0,0.0,0.0,0.0,0.0,0.0,0.0,0.0,0.0,0.0,0.0,0.0,0.0,0.0,0.0,0.0,0.0,0.0,0.0,3.0996,3.1387,3.1797,3.2012,2.8781,2.7493,2.7539,0.0,0.0,0.0,0.0,0.0,0.0,0.0,0.0,0.0,0.0,0.0,0.0,0.0,0.0,0.0,0.0,0.0,0.0,0.0,0.0,0.0,0.0,0.0,0.0,0.0,2.7552,2.7705,0.0,0.0,0.0,0.0,0.0,0.0,0.0,0.0,0.0,0.0,0.0,0.0,2.9777,3.4422,3.7715,3.8496,3.8611,3.8611,3.8611,3.7574,3.6084,3.4069,2.8829,2.4686,0.0,0.0,0.0,0.0,0.0,0.0,0.0,0.0,0.0,0.0,0.0,0.0,0.0,0.0,0.0,0.0,0.0,0.0,0.0,0.0,0.0,0.0,0.0,0.0,0.0,0.0,0.0,0.0,0.0,0.0,0.0,0.0,2.0366,2.151,0.0,0.0,0.0,0.0,0.0,0.0,0.0,0.0,0.0,0.0,0.0,0.0,0.0,0.0,2.9512,3.1074,3.1973,3.2226,3.3379,3.4004,3.4101,3.416,3.4453,3.4863,3.4336,0.0,3.0293,2.9266,0.0,0.0,0.0,0.0,0.0,0.0,0.0,0.0,0.0,0.0,0.0,0.0,0.0,0.0,0.0,0.0,0.0,0.0,0.0,0.0,0.0,0.0,2.9342,3.0376,3.1176,3.1362,0.0,2.6546,2.2996,2.1479,0.0,0.0,0.0,0.0,0.0,0.0,0.0,0.0,3.1807,3.5582,3.8027,3.8552,3.8611,3.8611,3.8611,3.8066,3.6432,3.3422,2.986,2.6409,2.3072,1.908,0.0,0.0,0.0,0.0,0.0,0.0,0.0,0.0,0.0,0.0,0.0,0.0,0.0,0.0,0.0,0.0,0.0,0.0,0.0,0.0,0.0,0.0,0.0,0.0,0.0,0.0,0.0,0.0,0.0,2.1081,2.3001,2.2208,2.3554,2.3737,0.0,0.0,0.0,0.0,0.0,0.0,0.0,0.0,0.0,2.9891,3.0684,3.1621,3.2715,3.3984,3.4844,3.5332,3.7489,3.8664,3.8964,4.0275,4.1002,4.118,4.118,3.9534,3.6567,3.3138,3.1016,2.9766,0.0,0.0,0.0,0.0,0.0,0.0,2.9355,0.0,0.0,0.0,0.0,0.0,0.0,0.0,0.0,0.0,0.0,0.0,0.0,0.0,0.0,3.3396,3.4023,3.4219,3.3789,3.1715,2.9016,0.0,2.3768,2.1587,1.8989,0.0,0.0,0.0,0.0,0.0,3.3364,3.625,3.8086,3.8571,3.8611,3.8611,3.8611,3.7949,3.6848,3.5223,3.106,2.7764,2.5646,2.1263,1.8237,0.0,0.0,0.0,0.0,0.0,0.0,0.0,0.0,0.0,0.0,0.0,0.0,0.0,0.0,0.0,0.0,0.0,0.0,0.0,0.0,0.0,0.0,0.0,0.0,0.0,0.0,0.0,0.0,2.3513,2.5475,2.4638,2.6071,2.6213,0.0,0.0,0.0,0.0,0.0,0.0,3.0033,3.0882,3.2369,3.4708,3.5423,3.6321,3.7358,3.8119,3.8818,3.949,4.1721,4.3007,4.3386,4.5145,4.5943,4.592,4.5772,4.4206,4.1487,3.6988,3.4306,3.2902,3.166,3.0918,0.0,3.1455,3.1699,3.1973,3.3821,3.4368,3.4095,3.3008,0.0,3.1094,2.875,0.0,0.0,0.0,0.0,2.8924,3.1033,0.0,3.4531,3.5625,3.6113,3.6269,3.5937,3.5527,3.405,0.0,2.8139,2.596,2.2602,0.0,0.0,0.0,0.0,3.1665,3.4809,3.6894,3.8223,3.8571,3.8611,3.8571,3.8418,3.7832,3.7285,3.689,3.2611,2.9545,2.8207,2.3782,2.044,0.0,0.0,0.0,0.0,0.0,0.0,0.0,0.0,0.0,0.0,0.0,0.0,0.0,0.0,0.0,0.0,0.0,0.0,0.0,0.0,0.0,0.0,0.0,0.0,0.0,0.0,0.0,0.0,0.0,0.0,3.1294,3.0774,0.0,0.0,0.0,0.0,2.8609,3.0186,3.2364,3.51,3.6895,3.9056,4.1714,4.3186,4.4129,4.4576,4.4987,4.522,4.5287,4.6002,4.6379,4.6366,4.6496,4.6532,4.651,4.5965,4.4565,4.261,4.0632,3.8036,3.5137,3.4271,3.3613,3.3281,3.375,3.3938,3.4075,3.5,3.5039,3.4785,3.5513,3.4616,3.3152,3.2637,3.1572,0.0,0.0,3.2396,3.3382,3.4764,3.5825,3.6656,3.709,3.7226,3.7226,3.7207,3.691,3.5898,0.0,3.1395,0.0,2.8696,0.0,0.0,2.9526,0.0,3.327,3.6245,3.777,3.8591,3.8611,3.8611,3.8418,3.7952,3.7874,3.7715,3.7285,3.4687,3.2207,3.0065,2.6471,2.3298,2.0596,1.8545,0.0,0.0,0.0,0.0,0.0,0.0,0.0,0.0,0.0,0.0,0.0,0.0,0.0,0.0,0.0,0.0,0.0,0.0,0.0,0.0,0.0,0.0,0.0,0.0,0.0,0.0,0.0,0.0,3.3492,3.458,0.0,0.0,3.1711,3.1687,3.3045,3.4839,3.7181,4.0192,4.1595,4.314,4.5023,4.5588,4.6107,4.6604,4.6969,4.7158,4.7217,4.8981,4.9842,4.9878,5.1165,5.1726,5.1726,5.1532,4.9374,4.6043,4.5412,4.2261,3.7812,3.75,3.7109,3.6797,3.7226,3.7383,3.7461,3.8086,3.8184,3.7949,3.7386,3.6235,3.4986,3.459,3.416,3.3906,3.4492,3.4863,3.5299,3.6348,3.6836,3.7109,3.7266,3.7305,3.7305,3.7305,3.7187,3.6836,3.6074,3.368,3.1545,3.0801,3.033,3.0305,3.1027,3.343,3.5707,3.7254,3.8125,3.8611,3.8611,3.8611,3.8398,3.7933,3.7894,3.7637,3.6968,3.4855,3.296,3.1435,2.772,2.4764,2.2728,2.0284,1.7862,0.0,0.0,0.0,0.0,0.0,0.0,0.0,0.0,0.0,0.0,0.0,0.0,0.0,0.0,0.0,0.0,0.0,0.0,0.0,0.0,0.0,0.0,0.0,0.0,0.0,0.0,3.5706,3.6953,3.8251,3.8477,3.6952,3.6079,3.6425,3.8381,3.9812,4.1916,4.4955,4.5931,4.7202,4.892,4.919,4.9554,5.0071,5.0363,5.0584,5.0808,5.2557,5.3436,5.3472,5.4624,5.515,5.5125,5.4773,5.2513,4.9079,4.8373,4.5454,4.1216,4.0105,3.9394,3.9062,3.9336,3.9434,3.9473,3.9785,3.9785,3.9512,3.8633,3.7773,3.7031,3.6758,3.668,3.6738,3.7012,3.709,3.7226,3.7793,3.8047,3.8184,3.8184,3.8184,3.8184,3.8184,3.8184,3.8184,3.8184,3.6042,3.4088,3.3619,3.3719,3.3842,3.3732,3.5639,3.7402,3.8242,3.8476,3.8669,3.8806,3.8689,3.8398,3.7933,3.7656,3.7324,3.6949,3.5001,3.3387,3.2282,2.8576,2.5735,2.391,2.0912,1.8384,1.6395,0.0,0.0,0.0,0.0,0.0,0.0,0.0,0.0,0.0,0.0,0.0,0.0,0.0,0.0,0.0,0.0,0.0,0.0,0.0,0.0,0.0,0.0,0.0,3.2795,3.5948,3.9161,4.2033,4.1962,4.2109,4.3184,4.2754,4.3045,4.455,4.5048,4.6484,4.9281,5.0018,5.1384,5.3723,5.4371,5.4949,5.5465,5.5465,5.5742,5.6269,5.6759,5.7035,5.701,5.6483,5.6269,5.6219,5.5139,5.3551,5.1552,4.9501,4.7493,4.5299,4.1885,4.0332,3.998,3.998,3.998,3.998,3.998,3.9668,3.9277,3.9258,3.9258,3.9238,3.9219,3.9219,3.9219,3.9219,3.9219,3.9219,3.9219,3.9551,3.9902,3.9902,3.9902,3.9902,3.9902,3.9902,3.9902,3.9902,3.8535,3.7363,3.7344,3.7344,3.748,3.7835,3.7933,0.0,3.9101,3.8867,3.8769,3.918,3.8867,3.8437,3.7952,3.7187,3.691,3.7226,3.5307,3.365,3.2605,2.9241,2.6342,2.4145,2.048,1.8305,1.7728,0.0,0.0,0.0,0.0,0.0,0.0,0.0,0.0,0.0,0.0,0.0,0.0,0.0,0.0,0.0,0.0,0.0,0.0,0.0,0.0,0.0,0.0,3.6748,3.5649,3.9267,4.309,4.5995,4.6126,4.6267,4.696,4.6035,4.6136,4.7864,4.8839,5.0281,5.2381,5.3428,5.4412,5.548,5.6068,5.662,5.7198,5.7198,5.7298,5.7424,5.76,5.765,5.765,5.7499,5.7424,5.7424,5.7123,5.578,5.379,5.3253,5.0484,4.6284,4.3121,4.1796,4.1699,4.1699,4.1699,4.1699,4.1699,4.1445,4.1035,4.0723,4.041,4.0098,3.9805,3.9707,3.9707,3.9707,3.9707,3.9707,3.9707,3.9805,3.9902,3.9902,3.9902,3.9902,3.9902,3.9902,3.9902,3.9902,3.9512,3.8984,3.834,3.8476,3.8516,3.7972,0.0,0.0,3.9219,3.9394,3.957,3.9687,3.9609,3.9219,3.8457,3.8184,0.0,0.0,3.5527,3.4646,3.3696,3.1207,2.8725,2.6294,2.3004,2.101,0.0,0.0,0.0,0.0,0.0,0.0,0.0,0.0,0.0,0.0,0.0,0.0,0.0,0.0,0.0,0.0,0.0,0.0,0.0,0.0,0.0,0.0,3.6887,4.1109,4.0684,4.3601,4.6489,4.8365,4.9158,4.9733,5.0269,4.9884,5.0126,5.1439,5.2314,5.3392,5.4666,5.5591,5.6344,5.6897,5.7186,5.7675,5.8227,5.8252,5.8353,5.8579,5.8579,5.8579,5.8554,5.8353,5.8252,0.0,5.8001,5.7209,5.5953,5.5057,5.2945,0.0,0.0,0.0,0.0,0.0,4.2382,4.2382,4.2382,4.2266,4.2031,4.1777,4.1523,4.123,4.1035,4.0957,4.0957,4.0957,4.0957,4.0957,4.0957,4.0957,4.0957,4.0957,4.0957,4.0918,4.0723,4.084,4.0859,4.0508,0.0,0.0,3.9551,3.9453,3.9316,3.8828,3.9394,3.9863,0.0,3.9844,3.9961,4.0137,4.0,3.9609,3.8906,3.834,0.0,0.0,0.0,3.4095,3.241,0.0,0.0,0.0,0.0,0.0,0.0,0.0,0.0,0.0,1.849,1.8357,0.0,0.0,0.0,0.0,0.0,0.0,0.0,0.0,0.0,0.0,0.0,0.0,0.0,0.0,0.0,0.0,4.0171,4.4701,4.6681,4.8278,4.9446,4.9916,5.1297,5.2427,5.302,5.3632,5.4185,5.4748,5.5315,5.5892,0.0,0.0,0.0,0.0,0.0,5.8403,5.8867,5.8956,5.9232,5.9684,5.9684,5.9684,5.9684,5.9207,5.8917,5.8842,5.8378,5.8127,5.7926,5.6046,5.5085,5.4311,4.9434,4.5671,4.3058,4.3058,4.2916,0.0,0.0,0.0,0.0,4.2557,4.2538,4.2518,4.2421,4.2382,4.2382,4.2382,4.2382,4.2382,4.2382,4.2382,4.2382,4.2382,4.2382,4.2284,4.1953,4.2168,4.2207,4.1465,4.1621,4.1621,4.084,4.0351,4.0,3.9902,3.998,0.0,4.045,4.0234,4.0176,4.0547,0.0,0.0,3.9394,3.8223,3.7461,3.7363,3.5391,3.3091,3.0475,3.0064,2.9367,2.8289,2.8067,2.7295,2.5972,2.5771,2.4607,2.2512,2.0107,1.9696,0.0,0.0,0.0,0.0,0.0,0.0,0.0,0.0,0.0,0.0,0.0,0.0,0.0,0.0,0.0,4.0932,4.4933,4.8362,5.0124,5.1381,5.2176,5.2243,5.2544,5.3155,5.4195,5.5139,5.5767,5.5892,5.6846,5.7449,5.7575,5.8102,0.0,5.8567,5.9382,5.991,6.001,6.0462,6.0763,6.0864,0.0,0.0,6.0864,6.0738,6.0437,5.9971,5.991,5.9608,5.9143,5.8732,5.7325,5.5138,5.1974,4.9235,4.7154,4.7154,4.6039,4.4489,4.4489,4.4489,4.4352,4.3691,4.3457,4.332,4.2596,4.2382,0.0,4.2382,4.2382,4.2382,4.2382,4.2382,4.2382,4.2382,4.2382,4.2362,4.2284,4.2323,4.2343,4.2207,4.2246,4.2206,4.205,4.1426,4.0684,4.0,4.0488,4.082,4.0566,4.0762,4.0996,4.1074,4.1015,4.0742,4.0312,3.9394,3.8535,3.7851,3.6133,3.4609,3.3328,3.3508,3.3399,3.2841,3.1514,2.9778,2.7701,2.6373,2.4955,2.3522,2.2519,2.2077,0.0,0.0,0.0,0.0,0.0,0.0,0.0,0.0,0.0,0.0,0.0,3.2167,3.3582,0.0,4.2016,4.4312,4.7241,4.9866,5.1825,5.2544,5.2895,5.2895,5.3658,5.4486,5.5315,5.6143,5.6746,5.7047,5.7826,5.8303,5.8303,5.9081,5.9508,5.9483,6.0311,6.0738,6.0738,6.104,6.119,6.119,6.119,6.119,6.119,6.119,6.104,6.0738,6.0738,6.0588,6.0337,6.0337,5.9587,5.828,5.6933,5.3088,4.8293,4.8293,4.688,4.4977,4.4977,4.4977,4.4961,4.4512,4.4355,4.4277,4.3826,4.3574,4.3418,4.3418,4.3242,4.3066,4.3066,4.3066,4.3066,4.3066,4.3066,4.3008,4.2793,4.291,4.293,4.246,4.2598,4.3038,4.3876,4.2803,4.166,4.123,4.1523,4.1641,4.1211,4.1348,4.1406,4.123,4.1211,4.0996,4.0566,3.9707,3.8828,3.7969,3.6934,3.6055,3.5444,3.5371,3.5371,3.5404,3.4581,3.324,3.1357,3.0511,2.9276,2.7707,2.7649,2.6769,0.0,0.0,0.0,0.0,0.0,0.0,0.0,0.0,3.1617,3.3515,3.5221,3.7001,3.9018,4.1894,4.4712,4.6972,4.8985,5.0896,5.277,5.3246,5.3406,5.3406,5.4587,5.5641,5.6319,5.6835,5.7412,5.8001,5.8654,5.8992,5.8992,5.996,6.0487,6.0487,6.104,6.1341,6.1341,6.1441,6.1492,6.1492,6.1492,6.1492,6.1492,6.1492,6.1441,6.1341,6.124,6.119,6.119,6.119,6.119,6.119,6.119,5.6658,5.0125,4.9629,4.8044,4.597,4.5519,4.5309,4.5254,4.5176,4.5156,4.5137,4.5058,4.4785,4.4512,4.4512,4.4258,4.3965,4.3965,4.3965,4.3965,4.3965,4.3965,4.3867,4.3535,4.373,4.375,4.3026,4.3144,4.3916,4.5688,4.4456,4.32,4.3061,4.2662,4.2265,4.1973,4.1914,4.1797,4.1445,4.1426,4.1211,4.0684,3.9922,3.9082,3.8223,3.7851,3.748,3.7086,3.6699,3.668,3.7066,3.7066,3.6287,3.4722,3.4722,3.3759,3.1931,3.2342,3.122,3.0161,2.9101,2.8727,3.0646,3.0879,3.1845,0.0,0.0,3.7137,3.8946,4.0941,4.2699,4.391,4.6336,4.8696,5.0464,5.1774,5.277,5.3507,5.4486,5.5114,5.5114,5.529,5.5792,5.6809,5.7474,5.8027,5.8541,5.9519,6.0097,6.0097,6.0738,6.109,6.109,6.1617,6.1918,6.1918,6.2395,6.2606,6.2606,6.2606,6.2606,6.2606,6.2606,6.237,6.1893,6.1391,6.119,6.119,6.119,6.119,6.119,6.119,5.9421,5.6585,5.4484,5.2021,4.9497,4.7383,4.6465,4.6094,4.5723,4.5605,4.5527,4.5137,4.4957,4.4918,4.4918,4.4922,4.484,4.484,4.484,4.484,4.484,4.484,4.4821,4.4824,4.4801,4.4844,4.4704,4.4473,4.4907,4.6943,4.6751,4.6068,4.5334,4.3618,4.2362,4.2323,4.2323,4.2304,4.2245,4.2285,4.1973,4.1172,4.0664,4.0,3.9121,3.9023,3.8809,3.8415,3.8356,3.832,3.8396,3.8396,3.7486,3.5555,3.5555,3.4709,3.3121,3.3154,3.2712,3.4248,3.4003,3.4107,0.0,3.7409,3.8615,4.1079,4.1639,4.2035,4.347,4.5226,4.6741,4.7506,4.9053,5.067,0.0,5.2628,5.3296,5.4511,5.4813,5.5074,5.534,5.539,5.5942,5.7399,5.775,5.8252,5.9106,5.9885,6.0311,6.0311,6.1165,6.1667,6.1667,6.2195,6.2496,6.2496,6.2681,6.2781,6.2781,6.2781,6.2781,6.2781,6.2781,6.2656,6.243,6.2245,6.2144,6.2144,6.2144,6.2144,6.2144,6.2144,6.1568,6.0236,5.5977,5.2884,5.0468,4.8111,4.7187,4.6973,4.6543,4.6406,4.6328,4.5898,4.5605,4.541,4.541,4.5215,4.4977,4.4977,4.4977,4.4977,4.4977,4.4977,4.4977,4.4977,4.4977,4.4977,4.4977,4.5899,4.732,4.9384,4.8584,4.7964,4.8818,4.6695,4.4442,4.2994,4.2812,4.2715,4.2421,4.2382,4.2245,4.1933,4.1504,4.0996,4.0391,4.0117,3.9785,3.9355,3.9336,3.9336,3.9336,3.9336,3.8964,3.814,3.814,3.7802,3.7156,3.7671,3.7747,3.6307,3.7287,0.0,4.0676,4.2559,4.4116,4.497,4.5472,4.605,4.7029,4.8159,4.9163,4.9715,5.0619,5.1649,5.2719,5.3146,5.3858,5.5189,5.5074,5.4974,5.534,5.5265,5.5767,5.7273,5.7725,5.8403,5.9633,6.0236,6.0613,6.0763,6.1718,6.2245,6.2245,6.2581,6.2781,6.2781,6.2781,6.2781,6.2781,6.2781,6.2781,6.2781,6.2781,6.2781,6.2781,6.2781,6.2781,6.2781,6.2781,6.2781,6.2781,6.2781,6.2781,6.2206,5.749,5.4244,5.1781,4.8772,4.7676,4.7519,4.7207,4.7109,4.7051,4.6758,4.6445,4.6191,4.6191,4.5976,4.5703,4.5586,4.5644,4.5703,4.5543,4.5504,4.5504,4.5504,4.5469,4.5542,4.6143,4.7481,4.9369,5.2046,5.1152,5.0377,5.1282,4.9483,4.6956,4.3846,4.334,4.3125,4.2812,4.2676,4.2598,4.2598,4.2226,4.1836,4.1543,4.123,4.0879,4.0605,4.0586,4.0586,4.0586,4.0586,4.0586,4.0586,4.0586,4.0586,4.0605,4.123,4.1523,3.518,0.0,4.0827,4.2512,4.4568,4.6627,4.8291,4.8667,4.8843,4.9389,4.954,4.9741,5.0293,5.087,5.1649,5.2719,5.3833,5.4748,5.5315,5.5365,5.5365,5.539,5.4949,5.5039,0.0,5.7248,5.8554,6.0161,6.0839,6.1391,6.1918,6.2496,6.2756,6.2756,6.2781,6.2781,6.2781,6.2781,6.2781,6.2781,6.2781,6.2781,6.2781,6.2781,6.2781,6.2781,6.2781,6.2781,6.2781,6.2781,6.2781,6.2781,6.2781,6.2781,6.2511,6.0062,5.7426,5.4427,4.9777,4.793,4.7578,4.7558,4.7558,4.7558,4.7539,4.7539,4.7519,4.7519,4.7519,4.7402,4.6948,4.7187,4.7402,4.6973,4.6831,4.6831,4.6831,4.6562,4.6884,4.9042,4.9175,5.0318,5.4536,5.4846,5.3803,5.1723,5.134,4.9592,4.496,4.3965,4.3691,4.3672,4.3301,4.3066,4.3066,4.2656,4.2362,4.2343,4.2343,4.2323,4.2304,4.2304,4.2304,4.2304,4.2304,4.2304,4.2304,4.2304,4.2304,4.2304,4.2343,4.2343,3.9321,0.0,4.4292,4.6356,4.7933,4.9289,5.025,5.0476,5.0527,5.067,5.0419,5.0193,5.0393,5.0896,5.1649,5.2719,5.416,5.5315,5.5867,5.6244,5.6068,5.5024,5.5315,0.0,0.0,0.0,0.0,5.9633,6.0286,6.1014,6.1943,6.248,6.2781,6.2781,6.2781,6.2781,6.2781,6.2781,6.2781,6.2781,6.2781,6.2781,6.2781,6.2781,6.2781,6.2781,6.2781,6.2781,6.2781,6.2781,6.2781,6.2781,6.2781,6.2781,6.2511,6.0194,5.7724,5.5371,5.3842,5.2208,5.0743,5.0436,4.9257,4.7949,4.7656,4.7578,4.7578,4.7578,4.7578,4.7539,4.7402,4.7461,4.7539,4.7402,4.7363,4.7363,4.7363,4.7012,4.7339,4.9562,5.0864,5.2511,5.5435,5.5811,5.4434,5.0741,4.8463,4.6588,4.4993,4.4433,4.416,4.416,4.3769,4.3496,4.3496,4.3105,4.2851,4.2851,4.2578,4.2382,4.2382,4.2382,4.2382,4.2382,4.2382,4.2382,4.2382,4.2382,4.2578,4.2871,4.3144,4.3437,4.2663,4.4999,4.7185,4.9195,5.0343,5.1122,5.1498,5.1423,5.1205,5.0803,5.0067,4.9414,4.9012,4.9088,4.9841,5.1691,5.3256,5.4762,5.6257,5.6609,5.6344,5.529,5.5591,0.0,0.0,0.0,0.0,5.9633,6.0311,6.1115,6.2245,6.2606,6.2781,6.2781,6.2781,6.2781,6.2781,6.2781,6.2781,6.2781,6.2781,6.2781,6.2781,6.2781,6.2781,6.2781,6.2781,6.2781,6.2781,6.2781,6.2781,6.2781,6.2781,6.2781,6.2618,6.1118,5.9583,5.7949,5.5486,5.3125,5.1219,5.1762,5.0919,4.9658,4.9377,4.9342,4.9117,4.8299,4.8047,4.8053,4.7851,4.793,4.8033,4.7851,4.7793,4.7793,4.7793,4.8112,4.9077,5.1252,5.3326,5.5398,5.7614,5.7333,5.5515,5.1668,4.8707,4.649,4.5378,4.4883,4.4629,4.4629,4.4355,4.418,4.418,4.3926,4.3769,4.3769,4.3516,4.3318,4.3318,4.3318,4.3318,4.3318,4.3318,4.3318,4.3318,4.3318,4.3496,4.3789,4.4043,4.4336,4.5075,4.7286,4.9371,5.1004,5.1749,5.2151,5.2151,5.1699,5.1004,4.9816,4.8636,4.7456,0.0,0.0,4.6577,4.9816,5.1423,5.3381,5.6533,5.6634,5.6344,0.0,0.0,0.0,0.0,0.0,0.0,6.0211,0.0,6.1667,6.2781,6.2832,6.2832,6.2832,6.2807,6.2781,6.2781,6.2781,6.2781,6.2781,6.2781,6.2781,6.2781,6.2781,6.2781,6.2781,6.2781,6.2781,6.2781,6.2781,6.2781,6.2781,6.2781,6.2781,6.2781,6.2781,6.2741,6.168,5.5027,5.1326,4.9774,5.2027,5.2679,5.259,5.259,5.25,5.1937,4.9702,4.8986,4.8815,4.834,4.8555,4.8796,4.834,4.8242,4.8288,4.8379,4.9851,5.1806,5.4148,5.648,5.8749,6.0846,5.9382,5.6955,5.4146,5.1828,4.9306,4.6146,4.5332,4.5058,4.5058,4.4996,4.4977,4.4977,4.4977,4.4977,4.4977,4.4977,4.4977,4.4977,4.4977,4.4977,4.4977,4.4977,4.4977,4.4977,4.4977,4.4996,4.5098,4.5098,4.5074,4.7361,4.9565,5.1448,5.2302,5.2569,5.2694,5.2694,5.1975,5.1004,4.9816,4.7732,4.5773,0.0,0.0,0.0,4.8862,5.2201,0.0,5.6759,5.7976,0.0,5.6935,0.0,5.8177,5.7524,5.8641,0.0,0.0,6.109,6.1843,6.34,6.3475,6.3475,6.3475,6.3007,6.2781,6.2781,6.2781,6.2781,6.2781,6.2781,6.2781,6.2781,6.2781,6.2781,6.2781,6.2781,6.2781,6.2781,6.2781,6.2781,6.2781,6.2781,6.2781,6.2781,6.2781,6.168,5.9919,5.8139,5.7131,5.6744,5.7346,5.6377,5.5005,5.5005,5.3792,5.2297,5.1688,5.0276,4.8874,4.8776,4.8815,4.8874,4.8757,4.8737,4.9222,5.0936,5.1441,5.2712,5.6678,5.9015,6.0542,6.1086,5.9382,5.7055,5.46,5.2347,4.9781,4.6536,4.5781,4.5508,4.5508,4.5215,4.4977,4.4977,4.4977,4.4977,4.4977,4.4977,4.4977,4.4977,4.4977,4.4977,4.4977,4.4977,4.4977,4.4977,4.4977,4.5351,4.5976,4.5976,4.6328,5.0067,5.185,5.3206,5.3256,5.3256,5.2879,5.1423,5.082,4.9741,4.6934,4.492,0.0,4.1882,4.2811,0.0,0.0,0.0,0.0,5.6709,5.8453,5.9156,0.0,5.9156,0.0,5.9006,6.001,6.0939,0.0,6.1768,6.232,6.3249,6.355,6.3576,6.3324,6.2957,6.2781,6.2781,6.2781,6.2781,6.2781,6.2781,6.2781,6.2781,6.2781,6.2781,6.2781,0.0,6.2781,6.2781,6.2781,6.2781,6.2781,6.2781,6.2781,6.2781,6.2781,6.1952,6.0844,6.0844,6.0844,6.0678,5.9625,5.8417,5.7392,5.7392,5.5769,5.3726,5.2679,5.0712,4.8913,4.8913,4.8913,4.8913,4.8913,4.8913,4.9518,5.1892,5.3001,5.4868,5.9487,6.1193,6.1893,6.1893,6.0008,5.7648,5.5119,5.2845,5.0275,4.7244,4.6484,4.6152,4.5976,4.5723,4.5586,4.5586,4.5586,4.5586,4.5586,4.5586,4.5586,4.5586,4.5718,4.5816,4.5816,4.6055,4.6152,4.6152,4.6152,4.6387,4.6855,4.6855,4.7129,5.2669,5.3833,5.4471,5.3858,5.3658,5.2779,4.9647,4.8962,4.7707,4.2939,0.0,4.0299,3.8843,3.9622,4.1806,4.5744,0.0,5.3306,5.6734,5.8554,5.9558,5.9709,6.0211,6.0537,6.0537,6.1065,6.1592,6.2069,6.2697,6.2982,6.2907,6.3425,6.3425,6.2807,6.2781,6.2781,6.2781,6.2781,6.2781,6.2781,6.2781,6.2781,6.2781,6.2781,6.2781,6.2781,0.0,0.0,6.2781,6.2781,6.2781,6.2781,6.2781,6.2781,6.2781,6.2781,6.2781,6.2781,6.2781,6.2781,6.247,6.0403,5.9751,5.9751,5.9751,5.7949,5.5486,5.3437,5.0964,4.8913,4.8913,4.8913,4.8913,4.8913,4.9124,5.0002,5.2387,5.4895,5.7949,6.1993,6.2781,6.2781,6.2781,6.1118,5.8719,5.5724,5.3583,5.1123,4.8055,4.7285,4.6875,4.6504,4.6465,4.6465,4.6465,4.6465,4.6465,4.6465,4.6465,4.6465,4.6465,4.6816,4.6967,4.6967,4.7383,4.7578,4.7578,4.7578,4.7617,4.7656,4.7656,4.7695,5.3959,5.4446,5.4471,5.3858,5.3381,5.2393,5.0017,4.7757,0.0,0.0,3.9245,3.7713,3.6959,3.8843,4.1904,4.6245,4.9866,5.3582,5.7801,5.9031,5.9834,0.0,0.0,0.0,0.0,0.0,0.0,0.0,0.0,0.0,6.3576,6.3626,6.3425,6.2807,6.2781,6.2781,6.2781,6.2781,6.2781,6.2781,6.2781,6.2781,6.2781,6.2781,6.2781,6.2781,0.0,0.0,6.2781,6.2781,6.2781,6.2781,6.2781,6.2781,6.2781,6.2781,6.2781,6.2781,6.2781,6.2781,6.2741,6.2347,6.2183,6.2183,6.2183,5.927,5.5792,5.5399,5.2207,4.8913,4.8913,4.8913,4.8913,4.8913,5.0393,5.2431,5.4785,5.8611,6.1829,6.2659,6.2781,6.2781,6.2781,6.247,6.0695,5.6351,5.5396,5.3446,4.8715,4.7734,4.7441,4.7363,4.7363,4.7363,4.7363,4.7363,4.7363,4.7363,4.7363,4.7363,4.7363,4.7422,4.7461,4.7461,4.7539,4.7578,4.7578,4.7578,4.7754,4.8105,4.8105,4.8301,5.4798,5.5214,5.5214,5.4361,5.3532,5.1791,4.7556,0.0,0.0,0.0,3.6031,3.5303,3.4773,3.7161,4.0199,4.3184,4.6697,5.0645,5.5064,5.6897,5.8629,6.0914,0.0,0.0,0.0,0.0,0.0,0.0,0.0,0.0,6.3274,6.3249,6.3124,6.2807,6.2781,6.2781,6.2781,6.2781,6.2781,6.2781,6.2781,6.2781,6.2807,6.3149,6.3274,6.3299,0.0,0.0,6.3676,6.3676,6.3525,6.3299,6.3576,6.3525,6.3299,6.3576,6.3676,6.3676,6.3676,6.3676,6.3676,6.3676,6.3299,6.2781,6.2781,5.9565,5.5879,5.5879,5.25,4.8913,4.8913,4.8913,4.9216,5.0439,5.3416,5.6291,5.7412,6.0386,6.2781,6.2781,6.2781,6.2781,6.2781,6.1763,5.9793,5.6334,5.4807,5.2728,4.9058,4.8424,4.8112,4.7682,4.7578,4.7578,4.7578,4.7578,4.7578,4.7578,4.7578,4.7578,4.7578,4.7793,4.791,4.791,4.8125,4.8288,4.8288,4.8288,4.8476,4.8887,4.8652,4.8789,5.539,5.5892,5.5942,5.4873,5.3658,5.1189,4.5321,4.2788,0.0,0.0,3.3241,3.3294,3.314,3.5403,3.809,4.0475,4.374,4.7631,5.2393,5.4953,5.7575,0.0,6.2144,0.0,0.0,0.0,0.0,0.0,0.0,0.0,0.0,6.2857,6.2781,6.2781,6.2781,6.2781,6.2781,6.2781,6.2857,6.2998,6.2998,6.3073,6.3199,6.3651,6.3852,6.3877,0.0,0.0,0.0,6.4496,6.427,6.3902,6.4346,6.427,6.3902,6.4371,6.4496,6.4496,6.4496,6.4496,6.4496,6.4496,6.3877,6.3025,6.2423,5.9327,5.586,5.529,5.218,4.9031,4.8933,4.8972,4.9729,5.2497,5.6291,5.9433,5.9919,6.1515,6.2781,6.2781,6.2781,6.2781,6.2781,6.1284,5.9096,5.6247,5.4301,5.2117,4.9262,4.8913,4.864,4.793,4.7897,4.7897,4.7897,4.7897,4.7897,4.7897,4.7897,4.7897,4.7897,4.8262,4.8437,4.834,4.8815,4.905,4.905,4.905,4.9238,4.9648,4.9316,4.9336,5.5842,5.6168,5.5942,5.4873,5.3391,5.0845,4.5693,0.0,3.8642,3.4045,3.2311,3.1934,3.2914,3.4148,3.6558,4.1281,4.3564,4.6823,5.2804,5.5505,5.7964,6.0839,0.0,0.0,0.0,0.0,0.0,0.0,0.0,0.0,0.0,6.3124,6.2781,6.2781,6.2781,6.2781,6.2781,6.2781,6.3099,6.3626,6.3626,6.3852,6.4371,6.4421,6.4446,6.4446,0.0,0.0,0.0,6.4496,6.4471,6.4446,6.4496,6.4471,6.4446,6.4496,6.4496,6.4496,6.4496,6.4496,6.4496,6.4496,6.4446,6.3869,6.1256,5.8622,5.6064,5.3455,5.1153,4.9375,4.9011,4.916,5.0476,5.4587,5.7455,5.9877,6.2035,6.2659,6.2781,6.2781,6.2781,6.2781,6.2781,6.2618,6.0993,5.6573,5.5639,5.3882,4.9472,4.8913,4.8874,4.8796,4.8796,4.8796,4.8796,4.8796,4.8796,4.8796,4.8796,4.8796,4.8796,4.916,4.9219,4.8855,4.9238,4.9426,4.9426,4.9426,4.9687,5.0117,5.0125,5.0078,5.5139,5.5968,5.6018,5.5265,5.3055,4.9866,4.5196,0.0,3.7111,3.3345,3.1938,3.1637,3.2416,3.347,3.5203,3.824,3.9522,4.2032,4.7481,5.0142,5.3206,5.765,5.9759,0.0,0.0,0.0,0.0,0.0,0.0,0.0,0.0,6.3299,6.2781,6.2781,6.2781,6.2781,6.2781,6.3174,6.3475,6.3701,6.4002,6.432,6.4521,6.4806,6.4957,0.0,0.0,0.0,0.0,6.5459,6.5258,6.4982,6.5333,6.5258,6.5007,6.5333,6.5459,6.5459,6.5459,6.5459,6.5459,6.5459,6.5459,6.4833,6.1542,5.8939,5.651,5.3863,5.1599,4.9883,4.9707,5.1673,5.4529,5.7725,5.9972,6.1639,6.2618,6.2781,6.2781,6.2781,6.2781,6.2781,6.2781,6.2781,6.1225,5.6573,5.5879,5.4169,4.9518,4.8913,4.8913,4.8913,4.9101,4.916,4.8933,4.9402,4.9531,4.9277,4.9258,4.9375,4.9695,4.957,4.957,4.9695,4.9824,4.9922,4.9922,4.9922,5.0137,5.0547,5.0293,5.0312,5.411,5.529,5.5641,5.5239,5.2503,4.8812,4.4543,4.0249,3.6232,3.2871,3.1763,3.1562,3.2093,3.2993,3.4198,3.5879,3.7034,3.932,4.3937,4.6677,4.9916,5.4662,0.0,0.0,0.0,0.0,0.0,0.0,0.0,0.0,0.0,6.335,6.2781,6.2781,6.2957,6.3099,6.3099,6.3651,6.3927,6.3927,6.4496,6.4748,6.4773,6.5283,6.5534,0.0,0.0,0.0,0.0,6.6112,6.5886,6.5559,6.5961,6.5886,6.5584,6.5961,6.6112,6.6112,6.6112,6.6112,6.6112,6.6112,6.6112,6.5377,6.139,5.8944,5.684,5.3541,5.1958,5.1289,5.1456,5.4655,5.8271,6.0009,6.1918,6.3299,6.3299,6.3299,6.3299,6.3299,6.3299,6.3299,6.3299,6.3299,6.1691,5.7004,5.6236,5.4474,4.9895,4.9187,4.9109,4.9109,4.957,4.9629,4.8972,4.948,4.9707,4.9484,4.9484,4.9726,5.0156,5.0,4.998,5.0223,5.0293,5.0371,5.0371,5.0371,5.0586,5.0976,5.0683,5.0703,5.2829,5.4135,5.4622,5.4622,5.1682,4.7813,4.3894,3.9999,3.6232,3.2871,3.1763,3.1562,3.2093,3.2692,3.3621,3.5232,3.7412,4.0225,4.4062,4.7004,4.9816,0.0,0.0,0.0,0.0,0.0,0.0,0.0,0.0,0.0,0.0,0.0,6.2781,6.2781,6.3375,6.3676,6.3676,6.4245,6.4496,6.4496,6.5032,6.5283,6.5308,6.586,0.0,0.0,0.0,0.0,0.0,6.6112,6.6112,6.6112,6.6112,6.6112,6.6112,6.6112,6.6112,6.6112,6.6112,6.6112,6.6112,6.6112,6.6112,6.5199,6.0293,5.8478,5.6966,5.1725,5.1958,5.3881,5.4297,5.7694,6.0986,6.0986,6.2793,6.4496,6.4496,6.4496,6.4496,6.4496,6.4496,6.4496,6.4496,6.4496,6.2836,5.8025,5.6931,5.5105,5.0739,4.9785,4.9465,4.9465,5.0273,5.0273,4.9011,4.8913,4.9062,4.9492,4.9484,4.9726,5.0156,5.0566,5.0605,5.0243,5.0586,5.0801,5.0801,5.0801,5.1016,5.1377,5.1377,5.1377,4.7958,4.9615,5.0451,4.9665,4.7707,4.5121,4.2007,3.8894,3.5904,3.3366,3.234,3.2114,3.2713,3.2964,3.4145,3.7312,3.8441,4.0125,4.3564,4.6778,0.0,5.2569,5.7361,0.0,0.0,0.0,0.0,0.0,0.0,0.0,0.0,0.0,6.2781,6.2781,6.2998,6.3299,6.3701,6.4245,6.4697,6.5032,6.5584,6.586,6.586,0.0,0.0,0.0,0.0,0.0,0.0,6.6112,6.6112,6.6112,6.6112,6.6112,6.6112,6.6112,6.6112,6.6112,6.6112,6.6112,6.6112,6.6112,6.6112,6.5199,6.0271,5.8702,5.7883,5.4503,5.4085,5.5489,5.9068,6.0699,6.1815,6.3553,6.4242,6.4496,6.4496,6.4496,6.4496,6.4496,6.4496,6.4496,6.4496,6.4496,6.286,5.8047,5.7201,5.5452,5.0798,5.0058,4.998,4.998,5.0215,5.0098,4.9375,5.0117,5.0547,5.041,5.0391,5.0586,5.1016,5.0879,5.0879,5.1035,5.1172,5.123,5.123,5.123,5.1308,5.1377,5.1377,5.1377,4.4367,4.6426,4.7456,4.7174,4.5367,4.3087,4.0752,3.804,3.5502,3.3517,3.2792,3.2641,3.304,3.3266,3.4271,3.6885,3.8039,3.9647,4.2763,0.0,0.0,5.2804,0.0,0.0,0.0,0.0,0.0,0.0,0.0,0.0,0.0,0.0,6.2781,6.2781,6.3007,6.3324,6.3701,6.4245,6.4672,6.4982,6.5534,6.581,6.581,0.0,0.0,0.0,0.0,0.0,0.0,6.6112,6.6112,6.6112,6.6112,6.6112,6.6112,6.6112,6.6112,6.6112,6.6112,6.6112,6.6112,6.6112,6.5483,6.4148,6.1151,5.8905,5.7107,5.5518,5.6433,5.8608,6.1688,6.2893,6.3679,6.5243,6.5333,6.5082,6.5082,6.5082,6.5082,6.5082,6.5082,6.5082,6.5082,6.5082,6.3473,5.8615,5.7716,5.5906,5.1273,5.0508,5.041,5.041,5.0547,5.0469,5.0039,5.0586,5.0918,5.082,5.0801,5.0996,5.1358,5.1172,5.1172,5.1377,5.1377,5.1377,5.1377,5.1377,5.1377,5.1377,5.1377,5.1377,0.0,4.3991,4.5121,4.6045,4.4016,4.1356,3.9723,3.7313,0.0,3.3416,3.309,3.3115,3.319,3.3571,3.4173,3.4979,3.691,3.927,0.0,4.5024,0.0,0.0,0.0,0.0,0.0,0.0,0.0,0.0,0.0,0.0,0.0,0.0,0.0,6.2781,6.335,6.3651,6.3701,6.4178,6.4471,6.4521,6.5024,6.5258,6.5308,0.0,0.0,0.0,0.0,0.0,0.0,6.6112,6.6112,6.6112,6.6112,6.6112,6.6112,6.6112,6.6112,6.6112,6.6112,6.6112,6.6112,6.6112,6.4478,6.2514,6.2514,5.9157,5.5377,5.5565,5.8929,6.2514,6.2691,6.4435,6.6112,6.6112,6.6112,6.6112,6.6112,6.6112,6.6112,6.6112,6.6112,6.6112,6.6112,6.6112,6.441,5.9545,5.8434,5.6517,5.1977,5.1094,5.0859,5.0859,5.1191,5.1269,5.0879,5.0488,5.043,5.082,5.0859,5.1035,5.1358,5.1377,5.1377,5.1377,5.1377,5.1397,5.1436,5.1436,5.1436,5.1475,5.1475,5.1475,3.5479,0.0,3.8994,3.8392,3.799,3.7436,0.0,3.5355,3.4552,3.3366,3.309,3.3366,3.4173,3.4098,3.5052,3.8592,4.03,4.2034,4.4396,0.0,0.0,0.0,0.0,0.0,0.0,0.0,0.0,0.0,0.0,0.0,0.0,0.0,0.0,6.2781,6.2948,6.3249,6.3676,6.3827,6.4078,6.4496,6.4647,6.4923,0.0,0.0,0.0,0.0,0.0,0.0,0.0,6.6112,6.6112,6.6112,6.6112,6.6112,6.6112,6.6112,6.6112,6.6112,6.6112,6.6112,6.6112,6.6112,6.4478,6.2514,6.2514,6.0361,5.8355,6.0226,6.1599,6.2936,6.4783,6.5656,6.6112,6.6112,6.6112,6.6112,6.6112,6.6112,6.6112,6.6112,6.6112,6.6112,6.6112,6.6112,6.441,5.9545,5.8702,5.6884,5.2016,5.1299,5.1289,5.1289,5.1319,5.1338,5.124,5.1191,5.1172,5.1221,5.1289,5.128,5.1377,5.1377,5.1377,5.1377,5.1377,5.1601,5.1933,5.1933,5.209,5.2402,5.2402,5.2402,3.2742,3.4951,3.681,3.6685,3.6709,3.6557,3.568,3.4901,3.4098,3.3266,3.309,3.3366,3.4198,3.4502,3.5656,3.8843,4.0727,0.0,0.0,0.0,5.7349,0.0,0.0,0.0,0.0,0.0,0.0,0.0,0.0,0.0,0.0,0.0,0.0,0.0,6.2781,6.2973,6.3299,6.3299,6.3576,6.4103,6.4103,6.4379,0.0,0.0,0.0,0.0,0.0,0.0,6.576,6.6011,6.6112,6.6112,6.6112,6.6112,6.6112,6.6112,6.6112,6.6112,6.6112,6.6112,6.6112,6.6112,6.5199,6.4148,6.4148,6.3201,6.2179,6.2425,6.329,6.4435,6.5742,6.6112,6.6112,6.6112,6.6112,6.6112,6.6112,6.6112,6.6112,6.6112,6.6112,6.6112,6.6112,6.6112,6.441,5.9545,5.8947,5.7293,5.2381,5.1894,5.2012,5.2012,5.2012,5.2012,5.2012,5.2012,5.1855,5.1416,5.1377,5.1377,5.1377,5.1377,5.1475,5.1719,5.1719,5.1933,5.2363,5.2363,5.248,5.2715,5.2715,5.2715,3.2093,3.4301,3.6434,3.7186,3.7161,3.6784,3.6257,3.5052,3.3897,3.3442,3.3341,3.3567,3.4274,3.528,0.0,0.0,0.0,0.0,5.19,5.5842,5.9006,0.0,0.0,0.0,0.0,0.0,0.0,0.0,0.0,0.0,0.0,0.0,0.0,0.0,6.2781,6.2781,6.2781,6.2781,6.3073,6.355,6.355,6.3827,6.4396,0.0,0.0,0.0,0.0,0.0,6.5208,6.576,6.5986,6.5986,6.6086,6.6112,6.6112,6.6112,6.6112,6.6112,6.6112,6.6112,6.6112,6.6112,6.6112,6.6112,6.6112,6.6112,6.5656,6.3622,6.4522,6.6112,6.6112,6.6187,6.6237,6.6237,6.6312,6.6363,6.6363,6.6363,6.6363,6.6363,6.6363,6.6363,6.6363,6.6363,6.468,5.9771,5.9328,5.777,5.2836,5.248,5.2715,5.2715,5.2715,5.2715,5.2715,5.2715,5.2402,5.168,5.1572,5.1553,5.1523,5.1553,5.1777,5.207,5.2148,5.2383,5.2812,5.2812,5.2851,5.291,5.291,5.291,3.2968,3.4628,3.5458,3.4726,3.5155,3.5631,3.5079,3.4753,3.4552,3.4452,3.4452,3.4904,3.6408,3.7637,3.922,0.0,0.0,0.0,0.0,0.0,0.0,0.0,0.0,0.0,0.0,0.0,0.0,0.0,0.0,0.0,0.0,0.0,0.0,0.0,0.0,6.2781,6.2781,6.2781,6.2832,6.2948,6.2948,6.3249,6.3802,6.3802,0.0,0.0,0.0,0.0,6.4672,6.5183,6.5409,6.5459,6.5936,6.6112,6.6112,6.6112,6.6112,6.6112,6.6112,6.6112,6.6112,6.6112,6.6112,6.6112,6.6112,6.6112,6.6026,6.5656,6.5785,6.6112,6.6112,6.6488,6.684,6.684,6.7191,6.7543,6.7543,6.7543,6.7543,6.7543,6.7543,6.7543,6.7543,6.7543,6.5851,6.0815,6.0113,5.8339,5.3272,5.2676,5.2715,5.2715,5.2715,5.2715,5.2715,5.2715,5.2656,5.2519,5.2519,5.2344,5.1992,5.2324,5.2383,5.209,5.2422,5.2832,5.3312,5.3312,5.3457,5.3777,5.3777,5.3777,3.2039,3.3571,3.4803,3.5504,3.6734,3.7638,3.7086,3.6483,3.6056,3.6056,3.5805,3.613,3.7813,0.0,4.206,0.0,0.0,0.0,0.0,0.0,0.0,0.0,0.0,0.0,0.0,0.0,0.0,0.0,0.0,0.0,0.0,0.0,0.0,0.0,0.0,0.0,6.2781,6.2781,6.2781,6.2781,6.2781,6.2973,6.3224,6.3224,6.335,0.0,0.0,6.4245,6.4547,6.5057,6.5459,6.576,6.6011,6.6112,6.6112,6.6112,6.6112,6.6112,6.6112,6.6112,6.6112,6.6112,6.6112,6.6112,6.6112,6.6112,6.6187,6.6488,6.6363,6.6187,6.6488,6.6764,6.7041,6.7342,6.7618,6.7794,6.7794,6.7794,6.7794,6.7794,6.7794,6.7794,6.7794,6.7794,6.6096,6.1042,6.047,5.8769,5.3727,5.3281,5.3418,5.3418,5.3418,5.3418,5.3418,5.3418,5.3223,5.2734,5.2715,5.2617,5.2422,5.2598,5.2734,5.2823,5.2969,5.3281,5.373,5.373,5.3828,5.3972,5.3972,5.3972,3.1813,3.3119,3.46,3.6659,3.819,3.9195,3.9597,3.8793,0.0,0.0,0.0,0.0,0.0,4.2085,0.0,0.0,0.0,0.0,0.0,0.0,0.0,0.0,0.0,0.0,0.0,0.0,0.0,0.0,0.0,0.0,0.0,0.0,0.0,0.0,0.0,0.0,6.2781,6.2781,6.2781,6.2781,6.2781,6.2781,6.2781,6.2781,6.2781,6.2807,6.3299,6.3802,6.4371,6.4731,6.5233,6.5735,6.586,6.5986,6.6112,6.6112,6.6112,6.6112,6.6112,6.6112,6.6112,6.6112,6.6112,6.6112,6.6112,6.6112,6.6237,6.6815,6.6664,6.6438,6.7015,6.7267,6.7467,6.7894,6.8095,6.8196,6.8196,6.8196,6.8196,6.8196,6.8196,6.8196,6.8196,6.8196,6.6668,6.22,6.1274,5.9461,5.5015,5.4215,5.3972,5.3972,5.3972,5.3972,5.3972,5.3972,5.375,5.3066,5.3027,5.2969,5.2871,5.2969,5.3125,5.341,5.3457,5.3691,5.3972,5.3972,5.3972,5.3972,5.3972,5.3972,3.3875,3.4552,3.5054,3.6759,3.7311,3.819,4.1282,4.1105,0.0,4.2261,0.0,0.0,0.0,4.6175,5.0017,0.0,0.0,0.0,0.0,0.0,0.0,0.0,0.0,0.0,0.0,0.0,0.0,0.0,0.0,0.0,0.0,0.0,0.0,0.0,0.0,0.0,6.2781,6.2781,6.2781,6.2781,6.2781,6.2781,6.2781,6.2781,6.2781,6.2781,6.2832,6.3224,6.3751,6.3802,6.4128,6.4672,6.5157,6.566,6.6112,6.6112,6.6112,6.6112,6.6112,6.6112,6.6112,6.6112,6.6112,6.6112,6.6112,6.6112,6.6237,6.6815,6.694,6.7041,6.7593,6.812,6.8477,6.8503,6.8904,6.928,6.928,6.928,6.928,6.928,6.928,6.928,6.928,6.928,6.8371,6.5629,6.3162,6.0691,5.7943,5.5467,5.3972,5.3972,5.3972,5.3972,5.3972,5.3972,5.3953,5.3894,5.3926,5.375,5.339,5.3711,5.375,5.341,5.3769,5.3953,5.3972,5.3972,5.3972,5.3972,5.3972,5.3972,3.2821,3.4151,3.5606,3.7287,3.9019,0.0,0.0,4.3413,4.4166,4.6205,4.6451,0.0,0.0,0.0,0.0,0.0,0.0,0.0,0.0,0.0,0.0,0.0,0.0,0.0,0.0,0.0,0.0,0.0,0.0,0.0,0.0,0.0,0.0,0.0,0.0,0.0,0.0,6.2781,6.2781,6.2781,6.2781,6.2781,6.2781,6.2781,6.2781,6.2781,6.2781,6.3149,6.3701,6.3701,6.4203,6.5032,6.5584,6.5936,6.6112,6.6112,6.6112,6.6112,6.6112,6.6112,6.6112,6.6112,6.6112,6.6112,6.6112,6.6363,6.6764,6.7317,6.7744,6.8045,6.8246,6.8472,6.8653,6.9004,6.9255,6.9406,6.9406,6.9406,6.9406,6.9406,6.9406,6.9406,6.9406,6.9406,6.7989,6.3823,6.2325,6.02,5.6021,5.4615,5.3972,5.3972,5.3972,5.3972,5.3972,5.3972,5.3972,5.3972,5.3972,5.3945,5.3789,5.3945,5.3945,5.3789,5.3945,5.3972,5.3972,5.3972,5.3972,5.3972,5.3972,5.3972,3.2742,3.4101,3.5884,3.7588,0.0,0.0,4.4869,4.61,4.7405,4.964,4.949,0.0,0.0,0.0,0.0,0.0,0.0,0.0,0.0,0.0,0.0,0.0,0.0,0.0,0.0,0.0,0.0,0.0,0.0,0.0,0.0,0.0,0.0,0.0,0.0,0.0,0.0,6.2781,6.2781,6.2781,6.2781,6.2781,6.2781,6.2781,6.2781,6.2781,6.2781,6.3149,6.3676,6.35,6.4053,6.5082,6.5634,6.5961,6.6112,6.6112,6.6112,6.6112,6.6112,6.6112,6.6112,6.6112,6.6112,6.6112,6.6112,6.6513,6.7091,6.7643,6.8196,6.8628,6.8804,6.8829,6.8929,6.9306,6.9406,6.9406,6.9406,6.9406,6.9406,6.9406,6.9406,6.9406,6.9406,6.9406,6.7943,6.3563,6.2229,6.0152,5.5769,5.4513,5.3972,5.3972,5.3972,5.3972,5.3972,5.3972,5.3972,5.3972,5.4199,5.4219,5.3992,5.3972,5.3972,5.3972,5.3972,5.4101,5.4238,5.4238,5.4297,5.4433,5.4433,5.4355,3.4198,3.4678,3.5909,3.7613,0.0,0.0,4.7838,4.927,5.0268,5.2468,0.0,0.0,0.0,0.0,0.0,0.0,0.0,0.0,0.0,0.0,0.0,0.0,0.0,0.0,0.0,0.0,0.0,0.0,0.0,0.0,0.0,0.0,0.0,0.0,0.0,0.0,0.0,6.2781,6.2781,6.2781,6.2781,6.2781,6.2781,6.2781,6.2781,6.2781,6.2781,6.3149,6.3651,6.3073,6.35,6.4572,6.5082,6.5634,6.6112,6.6112,6.6112,6.6112,6.6112,6.6112,6.6112,6.6112,6.6112,6.6112,6.6112,6.6538,6.7091,6.7643,6.8196,6.8703,6.9255,6.9406,6.9406,6.9406,6.9406,6.9406,6.9406,6.9406,6.9406,6.9406,6.9406,6.9406,6.9406,6.9406,6.854,6.5934,6.3374,6.0783,5.8204,5.5588,5.3972,5.3972,5.3972,5.3972,5.3972,5.3972,5.3972,5.3972,5.4551,5.4609,5.4011,5.3992,5.3992,5.3992,5.3972,5.4238,5.4687,5.4687,5.4902,5.5312,5.5312,5.5078,3.3018,3.465,3.7086,3.8768,4.3065,0.0,0.0,5.1548,0.0,0.0,0.0,0.0,0.0,0.0,0.0,0.0,0.0,0.0,0.0,0.0,0.0,0.0,0.0,0.0,0.0,0.0,0.0,0.0,0.0,0.0,0.0,0.0,0.0,0.0,0.0,0.0,0.0,0.0,6.2781,6.2781,6.2781,6.2781,6.2781,6.2781,6.2781,6.2781,6.2781,6.2882,6.3124,6.3726,6.4404,6.5107,6.566,6.5961,6.6112,6.6112,6.6112,6.6112,6.6112,6.6112,6.6112,6.6112,6.6112,6.6187,6.6589,6.7116,6.7668,6.8221,6.8728,6.9205,6.9356,6.9406,6.9406,6.9406,6.9406,6.9406,6.9406,6.9406,6.9406,6.9406,6.9406,6.9406,6.9406,6.9406,6.7898,6.3516,6.3231,6.1508,5.587,5.4462,5.3972,5.3972,5.3972,5.3972,5.3972,5.3972,5.3972,5.3972,5.418,5.4375,5.4609,5.4531,5.4492,5.4492,5.418,5.4238,5.4687,5.4687,5.4902,5.5312,5.5312,5.5234,3.4851,3.681,3.9396,4.1731,4.5602,4.9723,5.3256,0.0,0.0,0.0,0.0,0.0,0.0,0.0,0.0,0.0,0.0,0.0,0.0,0.0,0.0,0.0,0.0,0.0,0.0,0.0,0.0,0.0,0.0,0.0,0.0,0.0,0.0,0.0,0.0,0.0,0.0,0.0,0.0,6.2781,6.2781,6.2781,6.2781,6.2781,6.2781,6.2781,6.2781,6.2781,6.2857,6.3802,6.4521,6.5032,6.5559,6.5911,6.6112,6.6112,6.6112,6.6112,6.6112,6.6112,6.6112,6.6112,6.6112,6.6187,6.6538,6.7191,6.7869,6.8196,6.8804,6.9406,6.9406,6.9406,6.9406,6.9406,6.9406,6.9406,6.9406,6.9406,6.9406,6.9406,6.9406,6.9406,6.9406,6.9406,6.7898,6.3421,6.1315,5.8704,5.4513,5.3972,5.3972,5.3972,5.3972,5.3972,5.3972,5.3972,5.3972,5.3972,5.3972,5.4492,5.556,5.5156,5.4883,5.4798,5.4492,5.4629,5.5176,5.5176,5.539,5.582,5.582,5.5723,3.8165,3.9923,4.213,4.5568,4.8008,5.0845,5.5906,5.8039,5.9168,6.0136,0.0,0.0,0.0,0.0,0.0,0.0,0.0,0.0,0.0,0.0,0.0,0.0,0.0,0.0,0.0,0.0,0.0,0.0,0.0,0.0,0.0,0.0,0.0,0.0,0.0,0.0,0.0,0.0,0.0,0.0,6.2857,6.2857,6.2857,6.2807,6.2781,6.2781,6.2781,6.2807,6.2907,6.3475,6.4028,6.4622,6.5082,6.5634,6.6112,6.6112,6.6112,6.6112,6.6112,6.6112,6.6112,6.6112,6.6112,6.6137,6.6237,6.699,6.7819,6.7919,6.8628,6.9406,6.9406,6.9406,6.9406,6.9406,6.9406,6.9406,6.9406,6.9406,6.9406,6.9406,6.9406,6.9406,6.9406,6.9406,6.8333,6.5211,5.8627,5.3972,5.3972,5.3972,5.3972,5.3972,5.3972,5.3972,5.3972,5.3972,5.3972,5.3972,5.4128,5.4961,5.6523,5.584,5.5293,5.5071,5.5013,5.5254,5.5865,5.5865,5.6152,5.6582,5.6582,5.6367,3.6033,3.8693,4.2306,4.6527,5.1448,5.5691,5.7349,5.9232,6.0588,6.0362,0.0,0.0,0.0,0.0,0.0,0.0,0.0,0.0,0.0,0.0,0.0,0.0,0.0,0.0,0.0,0.0,0.0,0.0,0.0,0.0,0.0,0.0,0.0,0.0,0.0,0.0,6.2781,6.3274,6.35,0.0,6.35,6.35,6.35,6.3048,6.2781,6.2781,6.2781,6.3099,6.3525,6.3651,6.4254,6.5132,6.5233,6.5634,6.6112,6.6112,6.6112,6.6112,6.6112,6.6112,6.6112,6.6112,6.6112,6.6287,6.7166,6.7618,6.797,6.8804,6.9205,6.9406,6.9406,6.9406,6.9406,6.9406,6.9406,6.9406,6.9406,6.9406,6.9406,6.9406,6.9406,6.9406,6.9406,6.9406,6.9155,6.8379,6.0152,5.3972,5.3972,5.3972,5.3972,5.3972,5.3972,5.3972,5.3972,5.3972,5.3972,5.3972,5.5293,5.6211,5.6562,5.6406,5.6269,5.6211,5.5762,5.5605,5.5762,5.5826,5.6152,5.6582,5.6582,5.6543,3.7237,4.0549,4.4568,4.9791,5.4084,5.7161,5.7775,5.9382,6.0763,6.0738,0.0,0.0,0.0,0.0,0.0,0.0,0.0,0.0,0.0,0.0,0.0,0.0,0.0,0.0,0.0,0.0,0.0,0.0,0.0,0.0,0.0,0.0,0.0,0.0,0.0,0.0,6.2781,6.3124,6.3274,6.3274,6.3274,6.3274,6.3274,6.2932,6.2781,6.2781,6.2781,6.2957,6.3274,6.3274,6.3776,6.4555,6.4806,6.5233,6.576,6.6011,6.6112,6.6112,6.6112,6.6112,6.6112,6.6112,6.6112,6.6212,6.6815,6.7367,6.7919,6.8497,6.8979,6.9406,6.9406,6.9406,6.9406,6.9406,6.9406,6.9406,6.9406,6.9406,6.9406,6.9406,6.9406,6.9406,6.9406,6.9406,6.9406,6.9406,6.0638,5.3972,5.3972,5.3972,5.3972,5.3972,5.3972,5.3972,5.3972,5.4785,5.5254,5.5254,5.6094,5.6582,5.6582,5.6582,5.6582,5.6582,5.6289,5.6133,5.6133,5.6211,5.6367,5.6582,5.6582,5.6582,3.8442,4.2635,4.728,5.3014,5.5817,5.7286,5.7801,5.9156,6.0462,6.0939,0.0,0.0,0.0,0.0,0.0,0.0,0.0,0.0,0.0,0.0,0.0,0.0,0.0,0.0,0.0,0.0,0.0,0.0,0.0,0.0,0.0,0.0,0.0,0.0,0.0,6.2781,6.2781,6.2882,6.2973,6.2973,6.2973,6.2882,6.2781,6.2781,6.2781,6.2781,6.2781,6.2781,6.2781,6.2781,6.3174,6.3751,6.4295,6.4848,6.5358,6.5911,6.6112,6.6112,6.6112,6.6112,6.6112,6.6112,6.6112,6.6137,6.6237,6.699,6.7819,6.7919,6.8628,6.9406,6.9406,6.9406,6.9406,6.9406,6.9406,6.9406,6.9406,6.9406,6.9406,6.9406,6.9406,6.9406,6.9406,6.9406,6.8813,6.6977,5.9468,5.3972,5.3972,5.3972,5.3972,5.3972,5.4245,5.4473,5.4473,5.5781,5.6582,5.6582,5.6582,5.6582,5.6582,5.6582,5.6582,5.6582,5.6582,5.6582,5.6582,5.6582,5.6582,5.6582,5.6582,5.6582,3.4929,4.1404,4.8586,5.2779,5.5817,5.7801,5.7876,0.0,6.0297,0.0,0.0,0.0,0.0,0.0,0.0,0.0,0.0,0.0,0.0,0.0,0.0,0.0,0.0,0.0,0.0,0.0,0.0,0.0,0.0,0.0,0.0,0.0,6.2781,6.2781,6.2781,0.0,6.2781,6.3324,6.3576,6.3576,6.3576,6.3324,6.2781,6.2781,6.2781,6.2781,6.2781,6.2781,6.2781,6.2781,6.3174,6.3751,6.4295,6.4848,6.5358,6.5911,6.6112,6.6112,6.6112,6.6112,6.6112,6.6112,6.6112,6.6212,6.6714,6.7292,6.7894,6.8371,6.8904,6.9406,6.9406,6.9406,6.9406,6.9406,6.9406,6.9406,6.9406,6.9406,6.9406,6.9406,6.9406,6.9406,6.9406,6.9406,6.6352,5.741,5.49,5.3972,5.3972,5.3972,5.3972,5.3972,5.5351,5.625,5.625,5.6445,5.6582,5.6582,5.6582,5.6582,5.6582,5.6582,5.6582,5.6582,5.6582,5.6582,5.6582,5.6582,5.6582,5.6582,5.6582,5.6582,3.8341,4.3765,4.8987,5.3507,5.6043,5.7462,5.7826,5.8905,5.996,0.0,0.0,0.0,0.0,0.0,0.0,0.0,0.0,0.0,0.0,0.0,0.0,0.0,0.0,0.0,0.0,0.0,0.0,0.0,0.0,0.0,6.2781,6.2781,6.2781,6.2781,6.2781,0.0,6.2781,6.3073,6.3199,6.3199,6.3199,6.3073,6.2781,6.2781,6.2781,6.2781,6.2781,6.2781,6.2781,6.2781,6.2973,6.3299,6.417,6.4647,6.4931,6.5785,6.6112,6.6112,6.6112,6.6112,6.6112,6.6112,6.6112,6.6162,6.6413,6.7116,6.7844,6.8095,6.8728,6.9406,6.9406,6.9406,6.9406,6.9406,6.9406,6.9406,6.9406,6.9406,6.9406,6.9406,6.9406,6.9406,6.9406,6.9406,6.5888,5.5517,5.3972,5.3972,5.3972,5.4863,5.5469,5.5469,5.6133,5.6582,5.6582,5.6582,5.6582,5.6582,5.6582,5.6582,5.6582,5.6582,5.6582,5.6582,5.6582,5.6582,5.6582,5.6582,5.6582,5.6582,5.6582,5.6582,3.9747,4.3614,4.6853,5.2,5.4662,5.6207,5.7248,0.0,5.9458,0.0,0.0,0.0,0.0,0.0,0.0,0.0,0.0,0.0,0.0,0.0,0.0,0.0,0.0,0.0,0.0,0.0,0.0,0.0,0.0,0.0,6.2781,6.2781,6.2781,6.2781,6.2781,6.2781,6.2781,6.2781,6.2781,6.2781,6.2781,6.2781,6.2781,6.2781,6.2781,6.2781,6.2781,6.2781,6.2781,6.2781,6.2781,6.2907,6.4028,6.4496,6.4647,6.571,6.6112,6.6112,6.6112,6.6112,6.6112,6.6112,6.6112,6.6137,6.6287,6.7015,6.7819,6.797,6.8653,6.9406,6.9406,6.9406,6.9406,6.9406,6.9406,6.9406,6.9406,6.9406,6.9406,6.9406,6.9406,6.9406,6.9406,6.9406,6.5888,5.5517,5.3972,5.4128,5.4629,5.5801,5.6582,5.6582,5.6582,5.6582,5.6582,5.6582,5.6582,5.6582,5.6582,5.6582,5.6582,5.6582,5.6582,5.6582,5.6582,5.6582,5.6582,5.6582,5.6582,5.6582,5.6582,5.6582,3.4831,3.7613,4.0703,4.6145,5.0336,5.3648,5.5817,0.0,0.0,0.0,0.0,0.0,0.0,0.0,0.0,0.0,0.0,0.0,0.0,0.0,0.0,0.0,0.0,0.0,0.0,0.0,0.0,0.0,0.0,0.0,6.2781,6.2781,6.2781,6.2781,6.2781,6.2781,6.2781,6.2781,6.2781,6.2781,6.2781,6.2781,6.2781,6.2781,6.2781,6.2781,6.2781,6.2781,6.2781,6.2781,6.2781,6.2907,6.4028,6.4496,6.4647,6.571,6.6112,6.6112,6.6112,6.6112,6.6112,6.6112,6.6112,6.6212,6.6764,6.7342,6.7919,6.8447,6.8954,6.9406,6.9406,6.9406,6.9406,6.9406,6.9406,6.9406,6.9406,6.9406,6.9406,6.9406,6.9406,6.9406,6.9406,6.9406,6.5888,5.5517,5.3972,5.4609,5.625,5.6523,5.6582,5.6582,5.6582,5.6582,5.6582,5.6582,5.6582,5.6582,5.6582,5.6582,5.6582,5.6582,5.6582,5.6582,5.6582,5.6582,5.6582,5.6582,5.6582,5.6582,5.6582,5.6582,3.463,3.7161,3.9974,4.4389,4.8153,5.1373,5.3573,5.5906,5.7863,0.0,0.0,0.0,0.0,0.0,0.0,0.0,0.0,0.0,0.0,0.0,0.0,0.0,0.0,0.0,0.0,0.0,0.0,0.0,0.0,0.0,6.2781,6.2781,6.2781,6.2781,6.2781,6.2781,6.2781,6.2781,6.2781,6.2781,6.2781,6.2781,6.2781,6.2781,6.2781,6.2781,6.2781,6.2781,6.2781,6.2781,6.2781,6.2907,6.4028,6.4496,6.4647,6.571,6.6112,6.6112,6.6112,6.6112,6.6112,6.6112,6.6112,6.6212,6.6815,6.7367,6.7919,6.8472,6.8979,6.9406,6.9406,6.9406,6.9406,6.9406,6.9406,6.9406,6.9406,6.9406,6.9406,6.9406,6.9406,6.9406,6.9406,7.056,6.9776,6.4624,5.9195,5.5898,5.6504,5.6582,5.6582,5.6582,5.6582,5.6582,5.6582,5.6582,5.6582,5.6582,5.6582,5.6582,5.6582,5.6582,5.6582,5.6582,5.6582,5.6582,5.6582,5.6582,5.6582,5.6582,5.6582,5.6582,3.3323,3.5378,3.7964,4.2155,4.492,4.7657,5.1916,5.415,5.5931,0.0,0.0,0.0,0.0,0.0,0.0,0.0,0.0,0.0,0.0,0.0,0.0,0.0,0.0,0.0,0.0,0.0,0.0,0.0,0.0,0.0,6.248,6.2546,6.2606,6.2781,6.2781,6.2781,6.2781,6.2781,6.2781,6.2781,6.2781,6.2781,6.2781,6.2781,6.2781,6.2781,6.2781,6.2781,6.2781,6.2781,6.2781,6.2907,6.4028,6.4496,6.4647,6.571,6.6112,6.6112,6.6112,6.6112,6.6112,6.6112,6.6237,6.6513,6.7066,6.7643,6.8196,6.8703,6.913,6.9406,6.9406,6.9406,6.9406,6.9406,6.9406,6.9406,6.9406,6.9406,6.9406,6.9406,6.9406,6.9632,7.0384,7.1714,7.0983,6.5844,5.9769,5.5937,5.6504,5.6582,5.6582,5.6582,5.6582,5.6582,5.6582,5.6582,5.6582,5.6582,5.6582,5.6582,5.6582,5.6582,5.6582,5.6582,5.6582,5.6582,5.6582,5.6582,5.6582,5.6582,5.6582,5.6582,0.0,0.0,0.0,0.0,0.0,0.0,5.0687,0.0,5.298,0.0,0.0,0.0,0.0,0.0,0.0,0.0,0.0,0.0,0.0,0.0,0.0,0.0,0.0,0.0,0.0,0.0,0.0,0.0,0.0,6.1391,6.1943,6.1994,6.2245,6.2756,6.2781,6.2781,6.2781,6.2781,6.2781,6.2781,6.2781,6.2781,6.2781,6.2781,6.2781,6.2781,6.2781,6.2781,6.2781,6.2781,6.2781,6.2907,6.4028,6.4496,6.4647,6.571,6.6112,6.6112,6.6112,6.6112,6.6112,6.6137,6.6513,6.7091,6.7643,6.8196,6.8703,6.9255,6.9406,6.9406,6.9406,6.9406,6.9406,6.9406,6.9406,6.9406,6.9406,6.9406,6.9406,6.9406,6.9406,7.0108,7.2292,7.2693,6.9138,5.8658,5.5364,5.4707,5.6367,5.6582,5.6582,5.6582,5.6582,5.6582,5.6582,5.6582,5.6582,5.6582,5.6582,5.6582,5.6582,5.6582,5.6582,5.6582,5.6582,5.6582,5.6582,5.6582,5.6582,5.6582,5.6582,5.6582,3.0563,0.0,0.0,0.0,0.0,0.0,0.0,0.0,0.0,0.0,0.0,0.0,0.0,0.0,0.0,0.0,0.0,0.0,0.0,0.0,0.0,0.0,0.0,0.0,0.0,0.0,0.0,0.0,6.0563,6.0814,6.1391,6.1793,6.2069,6.222,6.2581,6.2781,6.2781,6.2781,6.2781,6.2781,6.2781,6.2781,6.2781,6.2781,6.2781,6.2781,6.2781,6.2781,6.2781,6.2781,6.2781,6.2907,6.4028,6.4496,6.4647,6.571,6.6112,6.6112,6.6112,6.6112,6.6187,6.6614,6.684,6.7166,6.8095,6.8497,6.8703,6.9255,6.9406,6.9406,6.9406,6.9406,6.9406,6.9406,6.9406,6.9406,6.9406,6.9406,6.9406,6.9406,6.9406,7.0108,7.2292,7.2693,7.1668,6.87,6.12,5.6055,5.6523,5.6582,5.6582,5.6582,5.6582,5.6582,5.6582,5.6582,5.6582,5.6582,5.6582,5.6582,5.6582,5.6582,5.6582,5.6582,5.6582,5.6582,5.6582,5.6582,5.6582,5.6582,5.6582,5.6582,0.0,0.0,0.0,0.0,0.0,0.0,0.0,4.2911,0.0,0.0,0.0,0.0,0.0,0.0,0.0,0.0,0.0,0.0,0.0,0.0,0.0,0.0,0.0,0.0,0.0,0.0,0.0,0.0,5.9985,6.0236,6.0788,6.1366,6.1768,6.1994,6.232,6.2556,6.2781,6.2781,6.2781,6.2781,6.2781,6.2781,6.2781,6.2781,6.2781,6.2781,6.2781,6.2781,6.2781,6.2781,6.2781,6.2907,6.4028,6.4496,6.4647,6.571,6.6112,6.6112,6.6112,6.6112,6.6212,6.6789,6.7141,6.7493,6.8346,6.8753,6.8979,6.9306,6.9406,6.9406,6.9406,6.9406,6.9406,6.9406,6.9406,6.9406,6.9406,7.0134,7.0485,6.9582,7.0134,7.1187,7.2467,7.2693,7.2693,7.2693,6.3498,5.6328,5.5605,5.6152,5.6582,5.6582,5.6582,5.6582,5.6582,5.6582,5.6582,5.6582,5.6582,5.6582,5.6582,5.6582,5.6582,5.6582,5.6582,5.6582,5.6582,5.6582,5.6582,5.6582,5.6582,5.6582,3.2846,0.0,0.0,0.0,0.0,0.0,4.1829,4.2434,4.3391,0.0,0.0,0.0,0.0,0.0,0.0,0.0,0.0,0.0,0.0,0.0,0.0,0.0,0.0,0.0,0.0,0.0,5.9483,5.9483,5.9483,5.9709,6.0211,6.0763,6.1341,6.1893,6.1969,6.227,6.2781,6.2781,6.2781,6.2781,6.2781,6.2781,6.2781,6.2781,6.2781,6.2781,6.2781,6.2781,6.2781,6.2781,6.2781,6.2907,6.4028,6.4496,6.4647,6.571,6.6112,6.6112,6.6112,6.6112,6.6212,6.6789,6.7342,6.7894,6.8447,6.8954,6.9406,6.9406,6.9406,6.9406,6.9406,6.9406,6.9406,6.9406,6.9406,6.9406,6.9406,7.1137,7.2091,7.0134,7.1338,7.2693,7.2693,7.2693,7.2693,7.2693,6.3498,5.6035,5.4512,5.5644,5.6582,5.6582,5.6582,5.6582,5.6582,5.6582,5.6582,5.6582,5.6582,5.6582,5.6582,5.6582,5.6582,5.6582,5.6582,5.6582,5.6582,5.6582,5.6582,5.6582,5.6582,5.6582,3.5054,3.538,3.5705,0.0,0.0,0.0,0.0,3.6808,3.917,0.0,0.0,0.0,0.0,0.0,0.0,0.0,0.0,0.0,0.0,0.0,0.0,0.0,0.0,0.0,0.0,0.0,5.9483,5.9483,5.9483,5.9533,5.9659,6.0186,6.0738,6.1316,6.1768,6.227,6.2781,6.2781,6.2781,6.2781,6.2781,6.2781,6.2781,6.2781,6.2781,6.2781,6.2781,6.2781,6.2781,6.2781,6.2781,6.2907,6.4028,6.4496,6.4647,6.571,6.6112,6.6112,6.6112,6.6112,6.6212,6.6789,6.7342,6.7894,6.8447,6.8954,6.9406,6.9406,6.9406,6.9406,6.9406,6.9406,6.9406,6.9406,6.9406,6.9406,6.9406,7.1137,7.2542,7.2116,7.2392,7.2693,7.2693,7.2693,7.2693,7.2693,6.3498,5.6465,5.6133,5.6367,5.6582,5.6582,5.6582,5.6582,5.6582,5.6582,5.6582,5.6582,5.6582,5.6582,5.6582,5.6582,5.6582,5.6582,5.6582,5.6582,5.6582,5.6582,5.6582,5.6582,5.6582,5.6582,3.681,3.6761,3.7086,3.6532,0.0,0.0,0.0,0.0,3.7814,4.1404,0.0,0.0,0.0,0.0,0.0,0.0,0.0,0.0,0.0,0.0,0.0,0.0,0.0,0.0,0.0,0.0,5.8805,5.9081,5.9357,5.9483,5.9483,5.9759,6.0161,6.0738,6.1291,6.1868,6.2421,6.2656,6.2781,6.2781,6.2781,6.2781,6.2781,6.2781,6.2781,6.2781,6.2781,6.2781,6.2781,6.2781,6.2781,6.2907,6.4028,6.4496,6.4647,6.571,6.6112,6.6112,6.6112,6.6112,6.6212,6.6789,6.7342,6.7894,6.8447,6.8954,6.9406,6.9406,6.9406,6.9406,6.9406,6.9406,6.9406,6.9406,6.9406,6.9406,6.9406,7.0259,7.1363,7.2467,7.2693,7.2693,7.2693,7.2693,7.2693,7.2693,6.8088,6.4611,6.4611,6.4611,6.4611,6.4611,5.9823,5.6582,5.6582,5.6582,5.6582,5.6582,5.6582,5.6582,5.6582,5.6582,5.6582,5.6582,5.6582,5.6582,5.6582,5.6582,5.6582,5.6582,5.6582,5.6582,0.0,0.0,0.0,0.0,0.0,3.7488,0.0,0.0,0.0,4.0902,0.0,0.0,0.0,0.0,0.0,0.0,0.0,0.0,0.0,0.0,0.0,0.0,0.0,0.0,0.0,0.0,5.7499,5.8478,5.8554,5.878,5.9307,5.9433,5.9759,6.0272,6.0889,6.1441,6.1994,6.2546,6.2781,6.2781,6.2781,6.2781,6.2781,6.2781,6.2781,6.2781,6.2781,6.2781,6.2781,6.2781,6.2781,6.2907,6.4028,6.4496,6.4647,6.571,6.6112,6.6112,6.6112,6.6112,6.6187,6.6664,6.7267,6.7919,6.8572,6.9055,6.9406,6.9406,6.9406,6.9406,6.9406,6.9406,6.9406,6.9406,6.9406,6.9406,6.9406,6.9406,7.0058,7.2241,7.2693,7.2693,7.2693,7.2693,7.2693,7.2693,7.2693,7.2693,7.2693,7.2693,7.2693,7.2693,6.304,5.6582,5.6582,5.6582,5.6582,5.6582,5.6582,5.6582,5.6582,5.6582,5.6582,5.6582,5.6582,5.6582,5.6582,5.6582,5.6582,5.6582,5.6582,5.6582,0.0,0.0,0.0,0.0,4.1254,0.0,0.0,0.0,0.0,3.666,0.0,0.0,0.0,0.0,0.0,0.0,0.0,0.0,0.0,0.0,0.0,0.0,0.0,0.0,0.0,0.0,0.0,5.7801,5.6255,5.6194,5.8679,5.9257,5.9759,6.0272,6.0889,6.1441,6.1994,6.2546,6.2781,6.2781,6.2781,6.2781,6.2781,6.2781,6.2781,6.2781,6.2781,6.2781,6.2781,6.2781,6.2781,6.2907,6.4028,6.4496,6.4647,6.571,6.6112,6.6112,6.6112,6.6112,6.6112,6.6187,6.694,6.7995,6.8979,6.9356,6.9406,6.9406,6.9406,6.9406,6.9406,6.9406,6.9406,6.9406,6.9406,6.9406,6.9406,6.9406,7.0058,7.2241,7.2693,7.2693,7.2693,7.2693,7.2693,7.2693,7.2693,7.2693,7.2693,7.2693,7.2693,7.2693,6.304,5.6582,5.6582,5.6582,5.6582,5.6582,5.6582,5.6582,5.6582,5.6582,5.6582,5.6582,5.6582,5.6582,5.6582,5.6582,5.6582,5.6582,5.6582,5.6582,0.0,0.0,0.0,0.0,0.0,0.0,0.0,0.0,3.6836,0.0,0.0,0.0,0.0,0.0,0.0,0.0,0.0,0.0,0.0,0.0,0.0,0.0,0.0,0.0,0.0,0.0,0.0,0.0,0.0,5.529,5.8102,5.8755,5.9282,5.9834,6.0713,6.1291,6.1517,6.2395,6.2781,6.2781,6.2781,6.2781,6.2781,6.2781,6.2781,6.2781,6.2781,6.2781,6.2781,6.2781,6.2781,6.2907,6.4028,6.4496,6.4647,6.571,6.6112,6.6112,6.6112,6.6112,6.6212,6.689,6.7618,6.8422,6.9155,6.9406,6.9406,6.9406,6.9406,6.9406,6.9406,6.9406,6.9406,6.9406,6.9406,6.9406,6.9406,6.9406,7.0058,7.2241,7.2693,7.2693,7.2693,7.2693,7.2693,7.2693,7.2693,7.2693,7.2693,7.2693,7.2693,7.2693,6.8651,6.5915,6.5915,6.5915,6.3244,5.6989,5.6582,5.6582,5.6582,5.6582,5.6582,5.6582,5.6582,5.6582,5.6582,5.6582,5.6582,5.6582,5.6582,5.6582,4.4999,0.0,0.0,0.0,0.0,0.0,0.0,0.0,0.0,0.0,0.0,0.0,0.0,0.0,0.0,0.0,0.0,0.0,0.0,0.0,0.0,0.0,0.0,0.0,0.0,0.0,0.0,0.0,0.0,0.0,5.7248,5.8102,5.873,5.9257,6.0512,6.119,6.119,6.227,6.2781,6.2781,6.2781,6.2781,6.2781,6.2781,6.2781,6.2781,6.2781,6.2781,6.2781,6.2781,6.2882,6.3149,6.4145,6.4597,6.4848,6.576,6.6112,6.6112,6.6112,6.6212,6.6538,6.7668,6.8296,6.8678,6.923,6.9406,6.9406,6.9406,6.9406,6.9406,6.9406,6.9406,6.9406,6.9406,6.9406,6.9406,6.9406,6.9406,7.0058,7.2241,7.2693,7.2693,7.2693,7.2693,7.2693,7.2693,7.2693,7.2693,7.2693,7.2693,7.2693,7.2693,7.2693,7.2693,7.2693,7.2693,6.8088,5.7289,5.6582,5.6582,5.6582,5.6582,5.6582,5.6582,5.6582,5.6582,5.6582,5.6582,5.6582,5.6582,5.6582,5.6582,0.0,0.0,0.0,0.0,0.0,0.0,0.0,0.0,4.0074,0.0,0.0,0.0,0.0,0.0,0.0,0.0,0.0,0.0,0.0,0.0,0.0,0.0,0.0,0.0,0.0,0.0,0.0,0.0,0.0,0.0,5.5968,5.7323,5.8177,5.8691,6.0337,6.119,6.119,6.227,6.2781,6.2781,6.2781,6.2781,6.2781,6.2781,6.2781,6.2781,6.2781,6.2781,6.2781,6.2781,6.3149,6.3726,6.4295,6.4848,6.5333,6.5911,6.6112,6.6112,6.6112,6.6488,6.7141,6.8246,6.8597,6.8678,6.923,6.9406,6.9406,6.9406,6.9406,6.9406,6.9406,6.9406,6.9406,6.9406,6.9406,6.9406,6.9406,6.9406,7.0058,7.2241,7.2693,7.2693,7.2693,7.2693,7.2693,7.2693,7.2693,7.2693,7.2693,7.2693,7.2693,7.2693,7.2693,7.2693,7.2693,7.2693,6.8088,5.7289,5.6582,5.6582,5.6582,5.6582,5.6582,5.6582,5.6582,5.6582,5.6582,5.6582,5.6582,5.6582,5.6582,5.6582,0.0,0.0,5.186,4.7464,0.0,0.0,0.0,0.0,0.0,0.0,0.0,0.0,0.0,0.0,0.0,0.0,0.0,0.0,0.0,0.0,0.0,0.0,0.0,0.0,0.0,0.0,0.0,0.0,4.8435,0.0,0.0,5.6319,5.7562,5.8152,6.0136,6.119,6.119,6.227,6.2781,6.2781,6.2781,6.2781,6.2781,6.2781,6.2781,6.2781,6.2781,6.2781,6.2781,6.2781,6.3174,6.3751,6.4295,6.4848,6.5358,6.5911,6.6112,6.6162,6.6564,6.7041,6.7643,6.8396,6.8829,6.9155,6.9331,6.9406,6.9406,6.9406,6.9406,6.9406,6.9406,6.9406,6.9406,6.9406,6.9406,6.9807,7.1263,7.1564,7.179,7.2542,7.2693,7.2693,7.2693,7.2693,7.2693,7.2693,7.2693,7.2693,7.2693,7.2693,7.2693,7.2693,7.2693,7.2693,7.2693,6.6164,6.0479,5.6849,5.6582,5.6582,5.6582,5.6582,5.6582,5.6582,5.6582,5.6582,5.6582,5.6582,5.6582,5.6582,5.6582,5.6582,5.2797,5.4091,0.0,0.0,5.0432,0.0,0.0,0.0,0.0,0.0,0.0,0.0,0.0,0.0,0.0,0.0,0.0,0.0,0.0,0.0,0.0,0.0,0.0,0.0,0.0,0.0,4.3589,4.6803,4.6502,0.0,0.0,0.0,5.6759,5.7575,5.9935,6.119,6.119,6.227,6.2781,6.2781,6.2781,6.2781,6.2781,6.2781,6.2781,6.2781,6.2781,6.2781,6.2781,6.2781,6.3274,6.4002,6.4371,6.4931,6.5634,6.5986,6.6112,6.6212,6.699,6.7493,6.7919,6.8628,6.9105,6.9406,6.9406,6.9406,6.9406,6.9406,6.9406,6.9406,6.9406,6.9406,6.9406,6.9406,6.9406,7.0008,7.2216,7.2693,7.2693,7.2693,7.2693,7.2693,7.2693,7.2693,7.2693,7.2693,7.2693,7.2693,7.2693,7.2693,7.2693,7.2693,7.2693,7.1166,6.7278,6.0583,5.6582,5.6582,5.6582,5.6582,5.6582,5.6582,5.6582,5.6582,5.6582,5.6582,5.6582,5.6582,5.6582,5.6582,5.6582,5.6582]}]]